     2              Observation         GPS                 RINEX VERSION / TYPE
teqc 2002Apr3 20050203 19:26:54UTC                          PGM / RUN BY / DATE
                                                            COMMENT
L2: 1 -> 1; 5 -> 5; 60 -> 9                                 COMMENT
L2: 1 -> 1; 5 -> 5; 60 -> 9                                 COMMENT
L2: 1 -> 1; 5 -> 5; 60 -> 9                                 COMMENT
L2: 1 -> 1; 5 -> 5; 60 -> 9                                 COMMENT
L2: 1 -> 1; 5 -> 5; 60 -> 9                                 COMMENT
Original Marker Name: 7368                                  COMMENT
Campaign Name: CSRC/Caltrans post-San Simeon                COMMENT
4-Character Station Name: P991                              COMMENT
6-Character Antenna Code: TRZEPH                            COMMENT
Vertical Measurement Point: BPA                             COMMENT
Vertical Offset to Rinex Ref. Point: 0.0000                 COMMENT
Radial Measurement Point: RRP                               COMMENT
Radial Offset to Rinex Ref. Point: 0.0000                   COMMENT
Antenna Height from Field Measurement: 2.0000 m             COMMENT
Revised Rinex header created by UCSD GPS archive for        COMMENT
SCEC DC on 10-Feb-2005 (2005.041) 16:25:28 GMT              COMMENT
For assistance contact dagnew@ucsd.edu                      COMMENT
or anderson@python.ucsd.edu                                 COMMENT
                                                            COMMENT
P991                                                        MARKER NAME
7368                                                        MARKER NUMBER
R. B. MacKenzie CALIF DEPT TRANSPORTATION DISTRICT 5        OBSERVER / AGENCY
0220247368 TRIMBLE 5700 NP 2.01 / SP 0.00                   REC # / TYPE / VERS
12200350 TRM41249.00                                        ANT # / TYPE
 -2581757.9310 -4526285.3051  3666512.0923                  APPROX POSITION XYZ
        2.0000        0.0000        0.0000                  ANTENNA: DELTA H/E/N
     1     1     0                                          WAVELENGTH FACT L1/2
     7    C1    L1    L2    P1    P2    S1    S2            # / TYPES OF OBSERV
     0                                                      INTERVAL
  2004     9    30    16    39   30.000000                  TIME OF FIRST OBS
  2004     9    30    23    50   15.000000                  TIME OF LAST OBS
                                                            END OF HEADER
 04  9 30 16 39 30.0000000  0  7G 1G11G16G20G23G25G13
  21072100.9684    -544086.13749   -398854.41048                  21072100.0884
        51.0004         40.0004
  23489152.4424    -132460.81249   -102106.58646                  23489152.0374
        43.2504         24.2504
  21980252.2444   -1183135.32049   -865403.02747                  21980251.2774
        48.5004         34.5004
  20207818.5374    -929737.52349   -682827.82048                  20207816.3254
        50.5004         42.0004
  21218148.5144   -1106056.25049   -804690.47347                  21218144.8124
        49.2504         38.7504
  22278075.1244    -173214.94149   -129861.26247                  22278073.9794
        49.0004         36.0004
  23938495.8534   -1303499.23049   -958506.41846                  23938495.0494
        36.2504         21.0004
 04  9 30 16 39 45.0000000  0  7G 1G11G16G20G23G25G13
  21065366.9994    -579473.69149   -426429.14548                  21065365.9324
        51.0004         39.5004
  23487507.5064    -141106.32849   -108843.40647                  23487506.6014
        44.2504         25.7504
  21965579.0334   -1260245.76649   -925489.07847                  21965577.6994
        49.2504         36.0004
  20196356.4144    -989970.71149   -729762.77748                  20196354.5514
        49.5004         42.0004
  21204418.4774   -1178209.65649   -860913.90647                  21204414.5034
        49.2504         39.0004
  22275975.9474    -184245.94149   -138456.85947                  22275974.4844
        48.2504         36.0004
  23922029.6274   -1390028.22749  -1025931.56646                  23922028.5174
        37.2504         18.5004
 04  9 30 16 40  0.0000000  0  7G 1G11G16G20G23G25G13
  21058640.5674    -614822.10549   -453973.37147                  21058639.6004
        51.0004         39.2504
  23485866.8944    -149727.99649   -115561.64147                  23485866.9334
        43.7504         27.0004
  21950927.4714   -1337243.10549   -985486.97347                  21950926.3044
        50.0004         36.2504
  20184919.1064   -1050076.64849   -776598.58648                  20184916.9514
        50.0004         42.0004
  21190695.7034   -1250321.94149   -917105.29347                  21190691.7364
        49.0004         39.0004
  22273884.7304    -195235.39549   -147020.09447                  22273883.1834
        48.2504         35.7504
  23905565.8374   -1476545.05948  -1093347.28946                  23905563.9554
        35.5004         17.7504
 04  9 30 16 40 15.0000000  0  7G 1G11G16G20G23G25G13
  21051921.3934    -650131.11749   -481486.89848                  21051920.3764
        51.5004         39.5004
  23484231.1084    -158325.88749   -122261.34047                  23484230.5274
        45.7504         27.2504
  21936296.3544   -1414126.82849  -1045396.37947                  21936294.2024
        48.5004         34.5004
  20173505.3584   -1110054.83649   -823334.84448                  20173503.2454
        50.0004         42.5004
  21176981.7124   -1322392.84849   -973264.44548                  21176977.1074
        50.0004         39.5004
  22271801.5484    -206183.27749   -155550.93047                  22271800.2014
        48.5004         36.0004
  23889104.9184   -1563049.40649  -1160753.29746                  23889102.7794
        38.7504         18.5004
 04  9 30 16 40 30.0000000  0  7G 1G11G16G20G23G25G13
  21045209.5284    -685402.41049   -508971.03547                  21045208.5744
        50.7504         39.2504
  23482599.3694    -166902.14549   -128944.18447                  23482599.0124
        45.5004         29.0004
  21921687.5034   -1490898.30949  -1105218.28547                  21921686.7204
        49.0004         36.5004
  20162115.7604   -1169906.90249   -869972.82448                  20162113.7684
        50.0004         42.0004
  21163274.6304   -1394424.06649  -1029392.66447                  21163270.3414
        49.5004         39.0004
  22269725.6484    -217091.56249   -164050.91847                  22269724.1504
        48.7504         35.7504
  23872646.0534   -1649543.44549  -1228151.25846                  23872644.0334
        40.0004         19.5004
 04  9 30 16 40 45.0000000  0  7G 1G11G16G20G23G25G13
  21038504.2814    -720637.42249   -536426.89847                  21038503.3934
        51.5004         39.0004
  23480971.4174    -175458.48049   -135611.50847                  23480970.3484
        45.5004         27.2504
  21907099.2064   -1567558.73849  -1164953.67247                  21907097.5244
        49.2504         35.2504
  20150750.3734   -1229634.01249   -916513.43748                  20150748.0144
        50.0004         42.0004
  21149574.6594   -1466416.91049  -1085490.98847                  21149570.1564
        50.0004         38.5004
  22267657.2934    -227961.79749   -172521.25847                  22267655.5754
        47.2504         34.5004
  23856188.8104   -1736028.07849  -1295541.87146                  23856186.5324
        40.0004         20.0004
 04  9 30 16 41  0.0000000  0  7G 1G11G16G20G23G25G13
  21031806.5154    -755835.44549   -563853.94147                  21031805.1594
        51.0004         39.2504
  23479347.1464    -183994.55949   -142263.03547                  23479346.0304
        46.0004         28.0004
  21892532.7524   -1644107.03149  -1224601.66447                  21892531.9574
        50.0004         36.5004
  20139408.8054   -1289235.28549   -962955.99248                  20139406.3014
        50.2504         41.5004
  21135882.2384   -1538370.75449  -1141558.92247                  21135877.6874
        49.5004         38.2504
  22265595.7204    -238793.59049   -180961.62547                  22265593.9144
        48.2504         35.2504
  23839732.6434   -1822502.84049  -1362924.78946                  23839731.4654
        41.7504         21.5004
 04  9 30 16 41 15.0000000  0  7G 1G11G16G20G23G25G13
  21324908.3584    -790996.16849   -591251.91848                  21324907.1054
        51.5004         39.5004
  23777518.0864    -192512.10549   -148900.12547                  23777517.5594
        46.5004         27.0004
  22177780.6124   -1720539.79749  -1284159.66047                  22177778.5474
        49.2504         35.0004
  20427883.6524   -1348708.53949  -1009298.79348                  20427881.2704
        49.5004         42.0004
  21421990.1224   -1610282.71149  -1197594.22347                  21421985.2414
        49.7504         38.5004
  22563334.0174    -249588.58649   -189373.32047                  22563332.9394
        48.0004         36.0004
  24123072.4274   -1908963.91049  -1430297.05546                  24123071.0934
        41.2504         22.7504
 04  9 30 16 41 30.0000000  0  7G 1G11G16G20G23G25G13
  21318223.6604    -826124.67649   -618624.78948                  21318222.7724
        51.7504         39.5004
  23775900.0444    -201013.15649   -155524.35547                  23775899.9204
        45.0004         26.0004
  22163255.9484   -1796867.41449  -1343635.70747                  22163254.2304
        49.5004         35.7504
  20416588.8814   -1408062.00849  -1055548.25848                  20416586.7664
        50.0004         42.2504
  21408311.8444   -1682162.77349  -1253604.64547                  21408307.4344
        49.2504         38.2504
  22561286.4524    -260348.82849   -197757.95747                  22561285.5474
        47.5004         35.5004
  24106619.7504   -1995423.31649  -1497668.02746                  24106618.5304
        42.5004         24.0004
 04  9 30 16 41 45.0000000  0  7G 1G11G16G20G23G25G13
  21311545.1354    -861218.16449   -645970.36747                  21311544.2884
        51.5004         39.2504
  23774286.4694    -209497.03949   -162135.18447                  23774285.7534
        45.7504         27.2504
  22148751.9084   -1873084.01249  -1403025.24247                  22148750.5564
        48.5004         35.5004
  20405317.9624   -1467291.14849  -1101700.84448                  20405315.6874
        50.0004         42.0004
  21394640.5154   -1754005.61749  -1309586.08647                  21394636.6404
        49.0004         39.0004
  22559245.8194    -271073.42249   -206114.79747                  22559244.4994
        48.0004         35.5004
  24090169.0404   -2081874.79349  -1565032.79346                  24090167.5984
        43.2504         22.2504
 04  9 30 16 42  0.0000000  0  7G 1G11G16G20G23G25G13
  21304873.8104    -896277.82449   -673289.59447                  21304872.6464
        51.7504         39.0004
  23772674.9534    -217965.21149   -168733.80147                  23772674.6724
        45.2504         26.5004
  22134270.0384   -1949190.51249  -1462328.99647                  22134268.2854
        51.0004         37.0004
  20394070.6844   -1526396.89849  -1147757.28148                  20394068.3324
        49.5004         42.2504
  21380976.0004   -1825812.45349  -1365539.45747                  21380972.0974
        49.2504         38.7504
  22557211.0804    -281763.93049   -214445.08647                  22557210.2004
        46.7504         34.5004
  24073718.9094   -2168319.65249  -1632392.42246                  24073717.5474
        43.5004         24.5004
 04  9 30 16 42 15.0000000  0  7G 1G11G16G20G23G25G13
  21298208.2764    -931304.66049   -700583.24247                  21298207.0684
        51.2504         39.2504
  23771066.3294    -226419.14149   -175321.33646                  23771065.6634
        45.2504         25.5004
  22119807.8894   -2025187.63349  -1521547.51647                  22119805.9944
        49.5004         36.0004
  20382846.7324   -1585380.16049  -1193718.27348                  20382844.0014
        49.5004         42.0004
  21367318.7214   -1897584.21949  -1421465.51647                  21367314.4024
        49.2504         39.0004
  22555183.2144    -292421.41449   -222749.64847                  22555182.0024
        47.2504         34.0004
  24057270.1934   -2254758.78149  -1699747.57046                  24057268.3434
        43.5004         24.7504
 04  9 30 16 42 30.0000000  0  7G 1G11G16G20G23G25G13
  21291549.1454    -966298.60949   -727851.25847                  21291548.1644
        52.0004         39.0004
  23769460.2254    -234858.93449   -181897.85547                  23769459.8774
        44.7504         26.0004
  22105367.0404   -2101075.01649  -1580680.53947                  22105365.8004
        49.5004         36.0004
  20371645.4894   -1644240.66849  -1239583.60248                  20371643.6484
        48.7504         42.2504
  21353667.5954   -1969320.74249  -1477364.10547                  21353663.2334
        49.5004         39.0004
  22553161.5114    -303046.11749   -231028.65247                  22553160.3254
        48.2504         35.0004
  24040822.4164   -2341192.11749  -1767098.24246                  24040819.8454
        42.5004         22.7504
 04  9 30 16 42 45.0000000  0  7G 1G11G16G20G23G25G13
  21284896.2744   -1001259.56649   -755093.57447                  21284895.3554
        51.5004         39.2504
  23767857.1014    -243284.94549   -188463.60947                  23767856.2934
        45.2504         25.7504
  22090947.1734   -2176852.27349  -1639727.70747                  22090945.2194
        50.0004         36.2504
  20360468.2474   -1702978.17249  -1285353.09448                  20360466.0694
        49.5004         42.0004
  21340023.1614   -2041021.96549  -1533235.18747                  21340019.1204
        49.2504         39.0004
  22551145.7734    -313638.03549   -239282.12547                  22551144.8404
        47.7504         34.5004
  24024375.6154   -2427619.75849  -1834444.45346                  24024373.5824
        41.7504         22.2504
 04  9 30 16 43  0.0000000  0  7G 1G11G16G20G23G25G13
  21278249.3794   -1036189.07449   -782311.38347                  21278248.4494
        51.2504         39.2504
  23766255.9444    -251699.02049   -195020.08246                  23766255.2374
        45.5004         25.0004
  22076547.9144   -2252520.52749  -1698690.00447                  22076546.1644
        49.2504         35.5004
  20349314.0784   -1761593.93449  -1331027.72348                  20349312.1594
        49.5004         42.0004
  21326385.1994   -2112689.35549  -1589079.90647                  21326381.2774
        49.5004         39.0004
  22549135.9874    -324199.03549   -247511.49647                  22549134.8964
        47.5004         34.2504
  24007929.3924   -2514043.11749  -1901787.35546                  24007928.0774
        39.5004         21.7504
 04  9 30 16 43 15.0000000  0  7G 1G11G16G20G23G25G13
  21271608.6824   -1071086.82449   -809504.44947                  21271607.5404
        51.7504         39.2504
  23764657.3484    -260101.28549   -201567.33647                  23764656.5694
        44.7504         25.7504
  22062169.4774   -2328079.50449  -1757567.09847                  22062168.6824
        49.7504         36.5004
  20338183.1914   -1820087.58649  -1376607.19948                  20338180.9394
        49.0004         42.2504
  21312753.9034   -2184322.62149  -1644898.02747                  21312749.7174
        49.7504         39.0004
  22547132.4924    -334729.09449   -255716.75847                  22547131.0914
        47.5004         34.0004
  23991484.8144   -2600461.78949  -1969126.55146                  23991482.8194
        39.5004         20.5004
 04  9 30 16 43 30.0000000  0  7G 1G11G16G20G23G25G13
  21264973.8924   -1105952.85549   -836672.79348                  21264972.9024
        51.5004         40.0004
  23763060.2414    -268492.10549   -208105.68046                  23763059.5314
        43.7504         24.2504
  22047812.0324   -2403528.64549  -1816358.60247                  22047810.9424
        49.5004         35.7504
  20327075.6524   -1878459.00849  -1422091.42248                  20327073.3064
        49.5004         42.2504
  21299129.1094   -2255921.79349  -1700689.59847                  21299124.9584
        48.5004         39.0004
  22545134.2454    -345228.55949   -263898.18447                  22545133.1864
        46.7504         34.2504
  23975040.6084   -2686875.94949  -2036462.28546                  23975038.8154
        38.7504         20.5004
 04  9 30 16 43 45.0000000  0  7G 1G11G16G20G23G25G13
  21258344.8774   -1140788.27049   -863817.28547                  21258343.8234
        50.5004         39.2504
  23761465.5284    -276873.08249   -214636.35246                  23761464.4664
        45.2504         23.5004
  22033474.7564   -2478868.92249  -1875065.28947                  22033473.5624
        48.5004         35.0004
  20315991.1044   -1936709.12149  -1467481.13348                  20315988.4014
        49.5004         42.0004
  21285510.5654   -2327487.94549  -1756455.42247                  21285506.2734
        48.7504         38.5004
  22543141.7394    -355698.70349   -272056.76247                  22543140.7624
        47.5004         34.5004
  23958596.3894   -2773286.73049  -2103795.33246                  23958595.1274
        38.7504         21.5004
 04  9 30 16 44  0.0000000  0  7G 1G11G16G20G23G25G13
  21251721.9114   -1175591.80949   -890936.93448                  21251720.9804
        51.5004         39.5004
  23759872.7874    -285243.16449   -221158.49246                  23759871.2484
        44.7504         22.5004
  22019159.4494   -2554098.77049  -1933685.94947                  22019157.2834
        49.7504         35.5004
  20304929.3214   -1994836.44549  -1512775.16048                  20304927.2414
        51.0004         41.7504
  21271898.6094   -2399019.68449  -1812194.44147                  21271893.8794
        49.2504         38.7504
  22541155.5134    -366138.46949   -280191.66047                  22541154.2794
        48.7504         35.2504
  23942154.0364   -2859692.94549  -2171124.84446                  23942152.9894
        39.2504         22.0004
 04  9 30 16 44 15.0000000  0  7G 1G11G16G20G23G25G13
  21245105.2104   -1210364.61749   -918032.64847                  21245103.8274
        51.0004         39.0004
  23758281.4724    -293603.98049   -227673.43446                  23758280.6454
        44.5004         23.0004
  22004864.6664   -2629219.10549  -1992221.26647                  22004862.3874
        49.0004         35.0004
  20293891.3994   -2052842.08649  -1557974.36748                  20293889.0674
        49.7504         41.7504
  21258292.6044   -2470518.21149  -1867907.57047                  21258288.4554
        49.0004         38.7504
  22539174.4354    -376549.46549   -288304.15247                  22539173.5934
        47.0004         34.5004
  23925712.1814   -2946095.52049  -2238451.52046                  23925711.6944
        40.7504         22.5004
 04  9 30 16 44 30.0000000  0  7G 1G11G16G20G23G25G13
  21238493.7484   -1245107.12949   -945104.74647                  21238492.9524
        50.7504         39.0004
  23756692.2164    -301956.16049   -234181.66446                  23756690.9464
        43.5004         22.5004
  21990590.3374   -2704229.94149  -2050671.25447                  21990589.4414
        49.7504         36.0004
  20282876.4714   -2110726.31249  -1603078.96548                  20282874.0224
        49.0004         41.7504
  21244693.2154   -2541983.96549  -1923595.18047                  21244688.7774
        49.2504         38.5004
  22537198.9534    -386932.28949   -296394.70747                  22537197.5554
        47.2504         34.7504
  23909271.1124   -3032495.10549  -2305775.85946                  23909270.4074
        38.2504         22.5004
 04  9 30 16 44 45.0000000  0  7G 1G11G16G20G23G25G13
  21231888.2424   -1279819.07849   -972153.03947                  21231886.9774
        50.5004         39.2504
  23755104.3464    -310299.86749   -240683.29746                  23755103.4654
        43.5004         22.5004
  21976336.9274   -2779130.91049  -2109035.61747                  21976334.7144
        49.5004         35.0004
  20271884.7874   -2168488.76249  -1648088.67248                  20271882.4034
        49.2504         42.0004
  21231099.8634   -2613416.61749  -1979256.98447                  21231095.1334
        48.5004         38.5004
  22535228.1474    -397286.87949   -304463.24247                  22535226.9994
        48.5004         35.5004
  23892829.9754   -3118891.45349  -2373097.64846                  23892829.7144
        37.5004         21.7504
 04  9 30 16 45  0.0000000  0  7G 1G11G16G20G23G25G13
  21225288.3924   -1314500.80149   -999177.77347                  21225287.5484
        50.7504         38.5004
  23753517.7264    -318635.67649   -247178.78547                  23753517.9464
        44.0004         27.0004
  21962104.8984   -2853922.00449  -2167314.38747                  21962103.8244
        49.0004         35.2504
  20260916.2554   -2226129.50449  -1693003.54348                  20260913.9024
        49.0004         42.0004
  21217513.0584   -2684816.43449  -2034893.20347                  21217508.6904
        48.5004         38.0004
  22533262.9644    -407613.84849   -312510.23447                  22533262.0364
        47.7504         34.2504
  23876389.9594   -3205284.69549  -2440417.02046                  23876389.9094
        38.7504         23.0004
 04  9 30 16 45 15.0000000  0  7G 1G11G16G20G23G25G13
  21218694.5694   -1349152.62549  -1026179.20347                  21218693.4324
        51.0004         39.0004
  23751933.7724    -326964.44549   -253668.77747                  23751933.1674
        44.5004         26.0004
  21947893.1454   -2928603.16049  -2225507.46947                  21947891.8624
        49.7504         35.5004
  20249970.5054   -2283648.73849  -1737823.73048                  20249968.3044
        49.5004         42.0004
  21203932.1454   -2756183.66849  -2090504.03147                  21203927.9444
        49.0004         38.2504
  22531302.9104    -417913.64549   -320536.09847                  22531301.9564
        46.5004         34.2504
  23859950.6494   -3291675.34249  -2507734.34446                  23859949.9864
        39.0004         22.5004
 04  9 30 16 45 30.0000000  0  7G 1G11G16G20G23G25G13
  21212106.3464   -1383774.38749  -1053157.21147                  21212105.1944
        51.2504         39.0004
  23750349.9684    -335286.39849   -260153.46947                  23750349.5124
        44.5004         28.2504
  21933702.8984   -3003174.03549  -2283614.64547                  21933701.0194
        49.2504         35.5004
  20239048.1594   -2341046.14149  -1782548.99248                  20239045.7524
        49.2504         42.0004
  21190357.9454   -2827518.17249  -2146089.35947                  21190353.4604
        49.0004         38.2504
  22529348.2654    -428186.51249   -328540.94947                  22529346.7664
        47.5004         34.5004
  23843511.1044   -3378063.27749  -2575049.60946                  23843510.8384
        39.5004         24.0004
 04  9 30 16 45 45.0000000  0  7G 1G11G16G20G23G25G13
  21205523.4514   -1418366.30949  -1080111.96548                  21205522.8454
        50.7504         39.5004
  23748767.3294    -343601.98449   -266633.19547                  23748767.3614
        45.0004         28.5004
  21919533.7004   -3077634.60249  -2341635.84847                  21919532.2244
        50.0004         35.5004
  20228149.1314   -2398321.78549  -1827179.37548                  20228146.6104
        49.2504         42.2504
  21176789.3314   -2898820.09449  -2201649.30547                  21176785.5544
        48.5004         39.0004
  22527398.5244    -438432.91849   -336525.17647                  22527397.6114
        48.0004         35.2504
  23827072.6454   -3464448.56249  -2642362.78946                  23827072.3564
        39.2504         23.0004
 04  9 30 16 46  0.0000000  0  7G 1G11G16G20G23G25G13
  21198946.5764   -1452928.84449  -1107043.82448                  21198945.7044
        51.0004         39.5004
  23747186.7624    -351912.00449   -273108.59047                  23747186.5624
        45.2504         30.2504
  21905385.1824   -3151985.10949  -2399571.28147                  21905383.3494
        49.5004         36.5004
  20217272.9854   -2455475.95749  -1871715.09848                  20217270.7064
        48.7504         42.5004
  21163227.2344   -2970089.92249  -2257184.23047                  21163223.5534
        49.2504         39.2504
  22525453.5764    -448653.57049   -344489.35947                  22525453.2734
        47.5004         35.0004
  23810634.9274   -3550831.62549  -2709674.24246                  23810634.1094
        40.0004         24.7504
 04  9 30 16 46 15.0000000  0  7G 1G11G16G20G23G25G13
  21192375.4004   -1487461.05149  -1133952.05548                  21192374.7284
        51.0004         39.5004
  23745606.4764    -360215.96549   -279579.24647                  23745606.1054
        45.5004         29.2504
  21891257.5284   -3226224.15249  -2457419.88747                  21891256.8664
        48.7504         35.7504
  20206420.1074   -2512507.57849  -1916155.33648                  20206417.8434
        49.5004         42.2504
  21149671.6244   -3041326.67249  -2312693.38748                  21149667.5164
        48.7504         39.5004
  22523514.0894    -458847.61349   -352432.80147                  22523513.4374
        47.2504         34.5004
  23794197.7254   -3637211.63749  -2776983.32446                  23794196.9674
        40.0004         24.2504
 04  9 30 16 46 30.0000000  0  7G 1G11G16G20G23G25G13
  21185809.7624   -1521962.70749  -1160836.47347                  21185809.1334
        51.0004         39.0004
  23744026.8424    -368513.99649   -286045.29747                  23744026.9134
        44.5004         29.0004
  21877152.5144   -3300351.43049  -2515181.37947                  21877150.0984
        50.5004         36.2504
  20195590.6144   -2569416.32849  -1960499.81648                  20195588.4434
        49.5004         42.0004
  21136121.9164   -3112530.06249  -2368176.54748                  21136118.3904
        49.2504         39.5004
  22521578.6074    -469015.21949   -360355.62547                  22521577.2904
        48.0004         34.2504
  23777760.9504   -3723588.52049  -2844289.99246                  23777759.9904
        38.7504         25.5004
 04  9 30 16 46 45.0000000  0  7G 1G11G16G20G23G25G13
  21179250.0734   -1556435.36749  -1187698.30547                  21179249.2924
        51.0004         39.0004
  23742448.2934    -376807.88349   -292508.12947                  23742448.6384
        43.0004         25.7504
  21863067.2004   -3374368.07849  -2572856.67247                  21863065.1824
        48.5004         35.5004
  20184784.4044   -2626203.56249  -2004749.62548                  20184781.8844
        48.2504         42.2504
  21122578.1604   -3183701.66449  -2423634.93747                  21122574.5044
        48.0004         38.7504
  22519648.6084    -479158.05949   -368259.15247                  22519647.2534
        47.5004         34.0004
  23761324.0134   -3809963.68449  -2911595.27346                  23761323.5374
        41.2504         25.2504
 04  9 30 16 47  0.0000000  0  7G 1G11G16G20G23G25G13
  21172695.7424   -1590877.91849  -1214536.66847                  21172694.9214
        50.7504         39.0004
  23740871.2724    -385096.81649   -298967.10546                  23740871.4764
        42.5004         24.2504
  21849003.6084   -3448272.82849  -2630444.76647                  21849001.7294
        49.7504         36.0004
  20174001.5304   -2682868.06649  -2048903.78948                  20173999.6014
        48.0004         42.5004
  21109040.9934   -3254840.33249  -2479067.66447                  21109037.1384
        47.7504         38.2504
  22517723.1874    -489275.55149   -376142.95347                  22517722.2784
        46.7504         33.7504
  23744887.7994   -3896336.14549  -2978898.47747                  23744887.2554
        40.2504         26.5004
 04  9 30 16 47 15.0000000  0  7G 1G11G16G20G23G25G13
  21166147.3484   -1625290.60949  -1241351.76648                  21166146.2954
        51.5004         39.5004
  23739294.3584    -393381.45349   -305422.73046                  23739294.4434
        43.0004         22.5004
  21834961.0104   -3522065.63349  -2687945.64847                  21834959.3224
        49.2504         35.0004
  20163242.1364   -2739409.99249  -2092962.44548                  20163239.7704
        47.2504         42.0004
  21095510.1384   -3325946.18449  -2534474.81647                  21095505.8224
        47.5004         38.5004
  22515803.2824    -499367.97349   -384007.21147                  22515802.0664
        47.0004         35.0004
  23728452.1564   -3982706.04349  -3046199.68046                  23728451.6244
        39.2504         25.5004
 04  9 30 16 47 30.0000000  0  7G 1G11G16G20G23G25G13
  21159604.3604   -1659674.48449  -1268144.41448                  21159602.9844
        51.2504         39.7504
  23737718.8184    -401663.30149   -311876.16846                  23737718.9824
        44.2504         23.0004
  21820940.0584   -3595747.28549  -2745359.89147                  21820938.4454
        50.0004         36.5004
  20152505.9854   -2795830.17249  -2136926.23048                  20152503.3264
        48.7504         42.2504
  21081985.1754   -3397020.23849  -2589857.19547                  21081980.6784
        48.5004         38.7504
  22513887.1394    -509436.68049   -391852.97347                  22513885.6334
        47.7504         34.0004
  23712016.5724   -4069074.35549  -3113499.62946                  23712016.1964
        40.2504         25.2504
 04  9 30 16 47 45.0000000  0  7G 1G11G16G20G23G25G13
  21153066.8184   -1694029.59849  -1294914.64548                  21153065.8874
        51.5004         39.5004
  23736143.8704    -409942.96949   -318327.87946                  23736143.1484
        45.2504         22.2504
  21806940.3254   -3669317.60249  -2802687.40647                  21806937.9754
        48.7504         36.0004
  20141792.4294   -2852128.47749  -2180795.05148                  20141790.3314
        49.0004         42.5004
  21068466.1584   -3468062.58249  -2645214.87147                  21068461.9114
        48.2504         38.2504
  22511975.5794    -519482.02049   -399680.53147                  22511973.8744
        47.5004         34.2504
  23695581.4924   -4155441.18449  -3180798.44546                  23695580.3014
        40.2504         24.7504
 04  9 30 16 48  0.0000000  0  7G 1G11G16G20G23G25G13
  21146534.8264   -1728354.80949  -1321661.58247                  21146533.4874
        51.5004         39.2504
  23734568.5224    -418219.55549   -324777.16846                  23734567.9554
        45.5004         23.0004
  21792961.5024   -3742775.21549  -2859927.10947                  21792960.6064
        49.2504         36.2504
  20131102.4294   -2908303.75849  -2224568.00448                  20131100.3154
        49.0004         42.5004
  21054953.6184   -3539072.03149  -2700546.91847                  21054949.1844
        49.2504         38.5004
  22510068.4274    -529503.07449   -407489.16447                  22510067.6014
        46.5004         34.2504
  23679147.0394   -4241805.55949  -3248095.34846                  23679145.9374
        41.0004         23.0004
 04  9 30 16 48 15.0000000  0  7G 1G11G16G20G23G25G13
  21140008.6024   -1762650.82449  -1348385.75848                  21140007.4234
        51.0004         40.0004
  23732994.1764    -426494.03149   -331224.82846                  23732992.9484
        45.5004         22.7504
  21779004.6714   -3816120.53149  -2917079.27047                  21779002.4434
        50.5004         35.7504
  20120436.4314   -2964356.48449  -2268245.46548                  20120434.0654
        49.5004         42.0004
  21041447.3604   -3610049.22749  -2755853.82047                  21041442.2454
        49.5004         38.7504
  22508166.3104    -539500.77049   -415279.62547                  22508165.3804
        46.5004         33.7504
  23662713.1144   -4328168.18449  -3315390.88346                  23662710.9254
        42.7504         22.5004
 04  9 30 16 48 30.0000000  0  7G 1G11G16G20G23G25G13
  21133487.8804   -1796917.21949  -1375086.85948                  21133487.3364
        51.0004         39.5004
  23731420.0584    -434766.31649   -337670.76246                  23731418.5034
        45.7504         24.0004
  21765069.0744   -3889352.73049  -2974143.33247                  21765067.5064
        49.5004         36.2504
  20109793.0474   -3020286.15649  -2311827.03548                  20109790.8844
        48.5004         42.5004
  21027946.7984   -3680993.75049  -2811135.27747                  21027942.7454
        48.5004         38.2504
  22506268.4804    -549474.84849   -423051.65247                  22506267.3814
        46.2504         35.0004
  23646278.8104   -4414528.48049  -3382684.60946                  23646276.9734
        41.5004         24.0004
 04  9 30 16 48 45.0000000  0  7G 1G11G16G20G23G25G13
  21126973.0764   -1831154.21949  -1401765.05548                  21126972.1004
        51.0004         39.7504
  23729846.6424    -443037.02049   -344115.48046                  23729845.1064
        46.2504         24.2504
  21751154.6514   -3962472.04349  -3031119.38747                  21751152.6224
        50.0004         36.0004
  20099173.1834   -3076092.76649  -2355312.71548                  20099171.0924
        48.5004         42.2504
  21014452.4674   -3751905.74649  -2866391.37947                  21014448.3954
        48.7504         38.7504
  22504374.5114    -559425.90649   -430805.73847                  22504373.6794
        46.7504         35.0004
  23629845.1754   -4500886.81649  -3449976.81246                  23629843.5754
        40.7504         22.0004
 04  9 30 16 49  0.0000000  0  7G 1G11G16G20G23G25G13
  21120463.3914   -1865361.86749  -1428420.37947                  21120462.3044
        51.2504         39.2504
  23728273.2124    -451306.44549   -350559.22347                  23728272.1214
        46.2504         26.5004
  21737262.3944   -4035478.16849  -3088007.27347                  21737260.7744
        50.2504         36.7504
  20088577.2894   -3131776.34449  -2398702.52348                  20088574.9594
        48.5004         42.2504
  21000964.7104   -3822785.21949  -2921622.13747                  21000960.6084
        48.7504         38.2504
  22502485.1504    -569354.22749   -438542.12547                  22502483.9384
        46.5004         34.2504
  23613412.5784   -4587243.05549  -3517267.39546                  23613410.7244
        42.2504         22.5004
 04  9 30 16 49 15.0000000  0  7G 1G11G16G20G23G25G13
  21413752.3114   -1899537.98049  -1455051.13348                  21413751.5224
        51.5004         40.0004
  24026491.9514    -459574.54749   -357001.93747                  24026490.7844
        45.0004         27.0004
  22023184.4384   -4108365.96549  -3144802.95347                  22023182.3524
        50.0004         35.2504
  20377797.5664   -3187333.08249  -2441993.49248                  20377795.2494
        45.7504         42.2504
  21287276.0634   -3893627.59049  -2976823.99247                  21287272.1474
        46.5004         39.0004
  22800392.8554    -579259.45349   -446260.50447                  22800392.2424
        46.0004         35.0004
  23896773.4944   -4673591.68749  -3584552.03946                  23896772.0084
        40.7504         22.5004
 04  9 30 16 49 30.0000000  0  7G 1G11G16G20G23G25G13
  21407253.9524   -1933687.81649  -1481661.40647                  21407252.9334
        51.5004         39.0004
  24024917.5634    -467843.61749   -363445.41847                  24024917.3864
        42.7504         26.5004
  22009335.0644   -4181145.76649  -3201514.47747                  22009333.7614
        50.2504         36.7504
  20367248.1444   -3242770.98449  -2485191.86748                  20367245.8974
        47.5004         42.0004
  21273800.8034   -3964442.92649  -3032004.77047                  21273796.3554
        48.0004         39.0004
  22798511.5304    -589143.88749   -453962.69147                  22798510.8744
        45.5004         34.0004
  23880341.1674   -4759944.93749  -3651840.29346                  23880338.7914
        42.0004         22.7504
 04  9 30 16 49 45.0000000  0  7G 1G11G16G20G23G25G13
  21400761.0814   -1967807.87949  -1508248.48048                  21400760.2624
        51.0004         39.5004
  24023344.2524    -476112.12149   -369888.46546                  24023344.0694
        41.5004         23.5004
  21995507.2144   -4253811.20349  -3258136.87547                  21995505.3984
        49.5004         35.7504
  20356721.9834   -3298085.10549  -2528293.78948                  20356719.8884
        45.7504         42.0004
  21260331.3694   -4035225.25049  -3087159.82447                  21260327.0254
        47.5004         38.5004
  22796635.1624    -599005.87549   -461647.39147                  22796634.0664
        46.5004         33.5004
  23863909.4744   -4846295.88349  -3719126.75046                  23863905.7874
        44.0004         22.0004
 04  9 30 16 50  0.0000000  0  7G 1G11G16G20G23G25G13
  21394273.7184   -2001899.27049  -1534813.20747                  21394272.7874
        51.2504         39.2504
  24021769.7644    -484381.46949   -376332.21146                  24021770.6204
        40.0004         22.2504
  21981701.1084   -4326363.11349  -3314670.82847                  21981699.3824
        50.0004         36.7504
  20346219.2564   -3353276.34849  -2571299.95748                  20346217.2604
        46.5004         42.0004
  21246868.0694   -4105975.57849  -3142289.95347                  21246864.1784
        47.0004         39.0004
  22794762.8684    -608846.73449   -469315.60947                  22794761.5294
        46.0004         34.5004
  23847477.1934   -4932645.63349  -3786412.32046                  23847474.0354
        43.2504         22.5004
 04  9 30 16 50 15.0000000  0  7G 1G11G16G20G23G25G13
  21387791.6294   -2035960.85949  -1561354.71147                  21387791.1114
        50.7504         39.2504
  24020196.6914    -492651.01649   -382776.09046                  24020197.5924
        37.7504         22.0004
  21967916.5574   -4398800.03549  -3371115.18047                  21967914.6764
        49.2504         36.2504
  20335740.4164   -3408343.36749  -2614209.33648                  20335738.4124
        47.0004         42.2504
  21233410.7534   -4176692.79749  -3197394.27748                  21233406.9154
        47.5004         39.7504
  22792894.1334    -618665.57049   -476966.66847                  22792893.1634
        46.5004         35.2504
  23831046.1634   -5018993.00449  -3853696.01246                  23831044.1274
        42.5004         22.5004
 04  9 30 16 50 30.0000000  0  7G 1G11G16G20G23G25G13
  21381315.8624   -2069993.69549  -1587873.82047                  21381314.8934
        51.2504         39.0004
  24018622.3824    -500922.02849   -389221.16046                  24018622.9724
        39.2504         21.2504
  21954154.0944   -4471122.82849  -3427470.59847                  21954153.1764
        49.5004         36.5004
  20325285.4914   -3463287.21549  -2657022.73448                  20325282.9824
        47.2504         42.0004
  21219959.8054   -4247378.00449  -3252473.66048                  21219955.9784
        48.5004         40.0004
  22791029.5864    -628463.69549   -484601.59447                  22791029.1404
        45.7504         34.5004
  23814614.8684   -5105339.15249  -3920978.71946                  23814613.1344
        41.2504         22.2504
 04  9 30 16 50 45.0000000  0  7G 1G11G16G20G23G25G13
  21374845.0474   -2103997.89549  -1614370.59847                  21374844.0484
        51.2504         39.0004
  24017049.4254    -509195.19549   -395667.80146                  24017048.3574
        41.7504         21.2504
  21940413.0634   -4543331.45749  -3483737.03547                  21940411.5394
        49.7504         36.7504
  20314853.4804   -3518107.79349  -2699740.07048                  20314851.3864
        47.2504         42.0004
  21206515.1084   -4318031.19949  -3307528.09847                  21206511.0024
        48.0004         39.2504
  22789168.8534    -638241.41849   -492220.63347                  22789168.1274
        44.5004         33.7504
  23798183.1474   -5191684.34849  -3988260.68746                  23798181.2884
        38.0004         22.2504
 04  9 30 16 51  0.0000000  0  7G 1G11G16G20G23G25G13
  21368379.4264   -2137973.42249  -1640845.04748                  21368378.5554
        51.5004         39.5004
  24015475.0184    -517470.60549   -402116.21546                  24015473.8524
        42.0004         22.7504
  21926694.0544   -4615425.51649  -3539914.23847                  21926692.5174
        49.2504         36.7504
  20304444.6494   -3572804.86749  -2742361.17648                  20304442.7954
        47.5004         42.2504
  21193076.4334   -4388652.14549  -3362557.41047                  21193072.6094
        48.2504         38.5004
  22787312.5314    -647999.05549   -499824.01647                  22787311.3094
        46.7504         34.5004
  23781753.3344   -5278028.10949  -4055541.42646                  23781751.4024
        39.5004         23.0004
 04  9 30 16 51 15.0000000  0  7G 1G11G16G20G23G25G13
  21361919.8614   -2171919.52749  -1667296.56247                  21361919.3224
        51.0004         38.7504
  24013899.5414    -525748.02049   -408566.17246                  24013898.3394
        45.2504         25.5004
  21912997.1144   -4687404.12149  -3596001.44947                  21912995.2514
        50.0004         37.2504
  20294059.4664   -3627377.69549  -2784885.46948                  20294057.8054
        47.2504         42.0004
  21179643.9204   -4459240.27349  -3417561.14547                  21179639.6074
        49.0004         38.7504
  22785459.0994    -657736.12549   -507411.36347                  22785458.3434
        46.0004         33.5004
  23765322.0914   -5364370.00049  -4122820.90246                  23765321.4644
        39.5004         22.0004
 04  9 30 16 51 30.0000000  0  7G 1G11G16G20G23G25G13
  21355465.8534   -2205836.52049  -1693725.38747                  21355464.6024
        50.7504         39.0004
  24012324.5584    -534028.14149   -415018.24647                  24012323.1744
        46.5004         26.5004
  21899322.1584   -4759267.34449  -3651998.75847                  21899319.7864
        50.0004         36.5004
  20283698.8824   -3681826.48849  -2827313.10948                  20283696.5724
        47.5004         42.0004
  21166217.7054   -4529795.88749  -3472539.53947                  21166213.4314
        49.2504         38.7504
  22783610.2144    -667453.21549   -514983.14847                  22783609.1984
        45.2504         33.0004
  23748891.6594   -5450710.30149  -4190099.02346                  23748891.0464
        38.2504         22.5004
 04  9 30 16 51 45.0000000  0  7G 1G11G16G20G23G25G13
  21349017.3434   -2239722.32849  -1720129.92648                  21349016.5554
        51.0004         39.5004
  24010747.9484    -542309.17249   -421471.03147                  24010747.3894
        45.7504         26.0004
  21885668.9494   -4831012.71949  -3707904.25847                  21885667.7814
        50.0004         36.7504
  20273361.2544   -3736149.04749  -2869642.38348                  20273359.2304
        48.7504         42.0004
  21152798.0664   -4600316.77349  -3527490.89147                  21152793.4564
        49.2504         39.0004
  22781765.1634    -677148.46149   -522537.89847                  22781764.4334
        45.7504         34.2504
  23732462.8434   -5537046.89149  -4257374.24646                  23732462.0524
        38.2504         21.7504
 04  9 30 16 52  0.0000000  0  7G 1G11G16G20G23G25G13
  21342574.2754   -2273579.33249  -1746512.01247                  21342573.5834
        50.7504         39.0004
  24009171.7764    -550593.84449   -427926.63346                  24009170.9744
        46.7504         24.5004
  21872038.4784   -4902642.67249  -3763719.79347                  21872036.2304
        49.5004         36.0004
  20263047.5604   -3790347.71149  -2911875.11748                  20263045.6164
        48.2504         41.7504
  21139384.2854   -4670805.32849  -3582417.04347                  21139379.9894
        49.7504         39.0004
  22779924.2194    -686824.49249   -530077.68447                  22779923.4474
        46.2504         34.2504
  23716033.4734   -5623382.19149  -4324648.48846                  23716032.9724
        40.0004         22.5004
 04  9 30 16 52 15.0000000  0  7G 1G11G16G20G23G25G13
  21336137.3544   -2307406.65649  -1772870.97747                  21336136.6764
        51.0004         38.7504
  24007594.7144    -558881.82049   -434384.82846                  24007593.8664
        43.5004         23.2504
  21858430.2884   -4974155.91449  -3819444.39847                  21858428.3254
        50.5004         36.5004
  20252757.6954   -3844421.47749  -2954010.52748                  20252755.7124
        48.2504         42.2504
  21125977.1474   -4741260.70349  -3637317.32847                  21125972.6864
        48.0004         39.0004
  22778086.9614    -696480.54749   -537601.91447                  22778086.0374
        45.2504         34.0004
  23699604.7124   -5709715.32849  -4391921.05146                  23699604.1284
        39.5004         21.7504
 04  9 30 16 52 30.0000000  0  7G 1G11G16G20G23G25G13
  21329706.0834   -2341204.41049  -1799206.89847                  21329704.8084
        51.5004         38.2504
  24006016.7614    -567173.56649   -440845.94146                  24006015.5964
        44.0004         22.2504
  21844843.7054   -5045552.39849  -3875078.00847                  21844841.3254
        49.5004         35.7504
  20242491.4394   -3898370.37149  -2996048.62948                  20242489.4814
        48.7504         42.2504
  21112575.9064   -4811682.99649  -3692191.84047                  21112572.0664
        49.2504         39.0004
  22776252.7564    -706117.08649   -545110.91447                  22776251.6824
        45.5004         33.2504
  23683177.4754   -5796046.60549  -4459192.14546                  23683176.1214
        40.5004         22.2504
 04  9 30 16 52 45.0000000  0  7G 1G11G16G20G23G25G13
  21323280.2354   -2374971.88749  -1825519.22347                  21323279.4864
        51.5004         38.5004
  24004437.9814    -575468.57049   -447309.59846                  24004437.2174
        42.7504         22.5004
  21831279.4674   -5116831.16449  -3930619.93047                  21831278.0464
        49.5004         36.5004
  20232249.1254   -3952193.51649  -3037988.74248                  20232247.3394
        48.5004         41.7504
  21099181.7654   -4882071.30549  -3747039.87147                  21099177.8144
        49.0004         38.7504
  22774422.4304    -715733.84049   -552604.50847                  22774422.0974
        45.0004         33.0004
  23666749.5454   -5882375.21949  -4526461.16046                  23666748.2654
        41.0004         25.2504
 04  9 30 16 53  0.0000000  0  7G 1G11G16G20G23G25G13
  21316860.7614   -2408709.19149  -1851808.05147                  21316859.8124
        51.5004         38.7504
  24002859.5744    -583767.15249   -453776.05146                  24002858.6684
        42.5004         22.7504
  21817738.4834   -5187992.10549  -3986070.00047                  21817736.9514
        49.5004         36.7504
  20222031.2754   -4005890.76649  -3079830.77748                  20222029.0504
        49.0004         42.0004
  21085793.4944   -4952425.75049  -3801861.52347                  21085789.6504
        49.2504         39.0004
  22772596.3324    -725331.05549   -560082.88747                  22772595.5254
        44.5004         32.5004
  23650322.5864   -5968701.18049  -4593728.12946                  23650320.9844
        42.5004         24.0004
 04  9 30 16 53 15.0000000  0  7G 1G11G16G20G23G25G13
  21310446.1824   -2442416.28949  -1878073.33247                  21310445.0424
        51.0004         39.0004
  24001279.5484    -592069.71549   -460245.60546                  24001278.6214
        44.0004         25.0004
  21804219.4374   -5259034.87949  -4041428.00047                  21804217.7304
        50.7504         37.2504
  20211836.5944   -4059462.07049  -3121574.65648                  20211835.4094
        49.0004         42.5004
  21072412.2964   -5022746.25449  -3856656.71547                  21072408.4924
        49.7504         39.2504
  22770773.8274    -734908.79349   -567546.07447                  22770772.4944
        45.5004         32.2504
  23633895.1674   -6055024.49249  -4660993.04746                  23633894.0694
        42.2504         24.7504
 04  9 30 16 53 30.0000000  0  7G 1G11G16G20G23G25G13
  21304037.2944   -2476094.12949  -1904315.81247                  21304036.3864
        50.2504         38.7504
  23999698.8904    -600377.67649   -466719.39547                  23999698.1864
        43.0004         25.7504
  21790722.8054   -5329960.34849  -4096694.59047                  21790720.5564
        49.7504         37.0004
  20201666.5114   -4112908.30949  -3163221.08248                  20201664.6764
        49.2504         42.2504
  21059036.6794   -5093033.71949  -3911426.16448                  21059033.5384
        49.0004         39.5004
  22768955.1774    -744468.21149   -574994.98447                  22768953.3234
        46.0004         33.2504
  23617469.1594   -6141346.15649  -4728256.68747                  23617467.7374
        42.2504         26.5004
 04  9 30 16 53 45.0000000  0  7G 1G11G16G20G23G25G13
  21297634.1774   -2509742.79749  -1930535.57047                  21297633.0954
        51.0004         38.5004
  23998116.3574    -608691.43749   -473197.70347                  23998115.7534
        40.5004         26.0004
  21777247.7894   -5400768.26649  -4151869.61747                  21777246.5724
        48.7504         36.2504
  20191519.8924   -4166229.46149  -3204770.03948                  20191517.5764
        49.7504         42.2504
  21045668.2364   -5163288.22349  -3966169.93447                  21045664.5744
        49.2504         39.0004
  22767139.5304    -754009.79749   -582429.97747                  22767137.7804
        46.0004         33.7504
  23601042.2874   -6227666.22349  -4795519.05546                  23601041.3194
        42.5004         22.7504
 04  9 30 16 54  0.0000000  0  7G 1G11G16G20G23G25G13
  21291237.0404   -2543361.23449  -1956731.76647                  21291236.0844
        51.0004         38.5004
  23996532.7464    -617010.28549   -479679.97746                  23996533.3994
        37.7504         23.0004
  21763796.7244   -5471457.41049  -4206952.04347                  21763795.4414
        50.2504         37.0004
  20181397.1424   -4219424.34849  -3246220.60948                  20181395.2584
        49.0004         42.0004
  21032305.4454   -5233508.74649  -4020887.22348                  21032301.8744
        50.2504         39.5004
  22765327.1974    -763532.57449   -589850.34047                  22765326.6454
        46.2504         33.7504
  23584617.2584   -6313983.63749  -4862779.36346                  23584615.7484
        44.0004         25.5004
 04  9 30 16 54 15.0000000  0  7G 1G11G16G20G23G25G13
  21284845.0844   -2576950.30149  -1982905.07447                  21284843.9544
        50.2504         38.5004
  23994948.5114    -625335.34849   -486167.14846                  23994948.5904
        39.0004         24.2504
  21750367.1364   -5542028.23849  -4261942.30547                  21750364.9874
        49.0004         36.5004
  20171298.1934   -4272493.79349  -3287573.43748                  20171296.5674
        49.7504         42.0004
  21018949.2614   -5303696.03949  -4075578.61748                  21018945.4774
        49.7504         39.5004
  22763518.0154    -773037.73849   -597256.99647                  22763518.1074
        45.2504         33.0004
  23568192.1874   -6400299.32049  -4930038.34447                  23568190.2804
        43.2504         26.2504
 04  9 30 16 54 30.0000000  0  7G 1G11G16G20G23G25G13
  21278459.1834   -2610508.73849  -2009054.51647                  21278458.0154
        51.5004         39.0004
  23993363.7534    -633666.07449   -492658.69946                  23993363.7824
        40.5004         22.5004
  21736960.9864   -5612479.44949  -4316839.35247                  21736959.7224
        49.5004         37.0004
  20161223.7994   -4325436.43049  -3328827.44548                  20161221.7674
        49.5004         41.7504
  21005599.3634   -5373848.88749  -4130243.16447                  21005595.5074
        49.2504         39.0004
  22761712.6504    -782524.39149   -604649.23047                  22761712.7064
        45.0004         32.5004
  23551767.1474   -6486612.10549  -4997295.07047                  23551765.8294
        43.5004         26.7504
 04  9 30 16 54 45.0000000  0  7G 1G11G16G20G23G25G13
  21272078.8744   -2644036.49249  -2035180.04747                  21272077.7004
        51.0004         38.5004
  23991777.6754    -642002.60249   -499154.75047                  23991777.0284
        40.7504         25.7504
  21723577.2424   -5682810.75849  -4371642.97747                  21723575.4964
        48.0004         36.7504
  20151173.3074   -4378252.08249  -3369982.50448                  20151171.0934
        49.7504         42.2504
  20992256.4584   -5443967.14849  -4184880.77347                  20992252.2904
        49.7504         39.0004
  22759911.1534    -791992.66849   -612027.12147                  22759909.7264
        44.2504         32.0004
  23535342.7384   -6572921.91449  -5064549.45347                  23535341.5774
        44.0004         27.5004
 04  9 30 16 55  0.0000000  0  7G 1G11G16G20G23G25G13
  21265704.7664   -2677534.05149  -2061282.05947                  21265703.6904
        51.2504         38.7504
  23990190.0434    -650345.61749   -505655.85246                  23990189.5784
        42.0004         24.7504
  21710216.5394   -5753022.37149  -4426353.32047                  21710214.4014
        50.0004         36.2504
  20141146.9194   -4430941.09449  -3411038.89548                  20141144.9054
        49.0004         42.0004
  20978919.7844   -5514051.34049  -4239491.82447                  20978915.1224
        48.7504         38.5004
  22758113.2234    -801443.28149   -619391.24647                  22758110.9304
        45.5004         32.0004
  23518918.7604   -6659229.10949  -5131801.79747                  23518918.2624
        43.7504         26.7504
 04  9 30 16 55 15.0000000  0  7G 1G11G16G20G23G25G13
  21259335.9234   -2711002.16449  -2087361.11747                  21259335.0994
        50.7504         38.7504
  23988601.2064    -658696.36349   -512162.96547                  23988601.1514
        43.2504         26.0004
  21696878.2664   -5823114.83249  -4480970.82447                  21696876.9724
        49.5004         37.7504
  20131144.4314   -4483504.21549  -3451997.17648                  20131142.2444
        49.0004         41.7504
  20965589.7944   -5584102.00449  -4294076.76247                  20965585.5004
        48.7504         39.0004
  22756318.1584    -810877.31649   -626742.42647                  22756316.4184
        46.5004         33.0004
  23502495.4494   -6745534.48049  -5199052.71147                  23502494.9264
        43.7504         26.7504
 04  9 30 16 55 30.0000000  0  7G 1G11G16G20G23G25G13
  21252972.6124   -2744440.49249  -2113416.96947                  21252971.7644
        51.2504         38.2504
  23987010.2274    -667054.81649   -518676.10946                  23987010.3184
        43.2504         25.2504
  21683563.0854   -5893087.69549  -4535495.12947                  21683561.0114
        48.7504         37.0004
  20121166.3184   -4535940.92649  -3492856.96148                  20121163.7914
        50.0004         42.0004
  20952266.0794   -5654118.88749  -4348635.37148                  20952261.6564
        49.5004         39.5004
  22754525.4914    -820294.49649   -634080.50047                  22754524.9604
        44.5004         32.5004
  23486072.7894   -6831837.94549  -5266302.15247                  23486072.0664
        44.2504         26.2504
 04  9 30 16 55 45.0000000  0  7G 1G11G16G20G23G25G13
  21246615.6354   -2777847.85949  -2139448.69147                  21246614.4564
        50.7504         38.2504
  23985418.6414    -675420.03549   -525194.52346                  23985418.2864
        43.0004         25.2504
  21670270.8654   -5962939.48849  -4589925.10547                  21670269.1474
        50.0004         37.5004
  20111211.9934   -4588249.98849  -3533617.27048                  20111210.0074
        49.5004         42.5004
  20938949.0394   -5724100.73449  -4403166.67647                  20938944.5704
        50.0004         39.2504
  22752736.7114    -829693.83649   -641404.69947                  22752735.9614
        43.7504         32.5004
  23469649.8984   -6918138.03949  -5333548.96547                  23469649.5424
        44.0004         26.0004
 04  9 30 16 56  0.0000000  0  7G 1G11G16G20G23G25G13
  21240264.3774   -2811223.95749  -2165456.05947                  21240263.4774
        50.7504         39.0004
  23983825.5724    -683792.22349   -531718.35246                  23983824.8904
        40.2504         25.2504
  21657001.3664   -6032669.69549  -4644260.31647                  21656999.9174
        49.5004         36.5004
  20101282.4694   -4640430.96949  -3574277.78148                  20101280.2324
        49.5004         42.5004
  20925638.4254   -5794047.18049  -4457670.39548                  20925634.6634
        50.2504         39.7504
  22750951.6054    -839075.41049   -648715.03547                  22750951.1374
        44.5004         32.5004
  23453229.0624   -7004434.50449  -5400792.93747                  23453227.7314
        44.5004         27.0004
 04  9 30 16 56 15.0000000  0  7G 1G11G16G20G23G25G13
  21233918.8074   -2844568.20349  -2191438.59447                  21233918.4104
        51.0004         38.7504
  23982231.1214    -692171.10549   -538247.40246                  23982231.1904
        42.0004         24.5004
  21643755.7334   -6102277.47749  -4698500.16047                  21643754.3154
        49.5004         37.2504
  20091377.3534   -4692483.24649  -3614838.00448                  20091375.0294
        49.2504         42.5004
  20912335.2474   -5863957.67649  -4512146.10548                  20912330.9144
        50.5004         39.5004
  22749169.8494    -848438.94949   -656011.32047                  22749169.9024
        43.7504         32.7504
  23436807.4074   -7090726.76249  -5468033.67247                  23436806.3744
        45.0004         28.0004
 04  9 30 16 56 30.0000000  0  7G 1G11G16G20G23G25G13
  21227580.0284   -2877880.77349  -2217396.45347                  21227579.1524
        50.7504         38.5004
  23980635.3234    -700557.32049   -544782.15646                  23980635.3824
        44.5004         23.0004
  21630533.1404   -6171762.86749  -4752644.60247                  21630531.3794
        49.5004         36.7504
  20081496.2504   -4744406.87149  -3655297.98848                  20081494.3974
        50.5004         41.7504
  20899038.5064   -5933832.34049  -4566593.89547                  20899034.4234
        49.2504         39.2504
  22747391.5134    -857784.81649   -663293.85247                  22747391.0694
        44.5004         33.5004
  23420387.7174   -7177015.05149  -5535271.28947                  23420386.6774
        45.5004         26.7504
 04  9 30 16 56 45.0000000  0  7G 1G11G16G20G23G25G13
  21221246.7054   -2911162.50049  -2243330.28547                  21221245.9984
        51.0004         38.2504
  23979037.5374    -708951.99649   -551323.49246                  23979037.2304
        44.5004         22.2504
  21617333.1504   -6241126.49649  -4806694.18747                  21617332.1224
        50.0004         36.5004
  20071640.2764   -4796202.68049  -3695658.35948                  20071637.7374
        50.0004         42.0004
  20885748.1584   -6003671.98849  -4621014.39548                  20885744.1484
        49.0004         39.5004
  22745616.7354    -867114.00449   -670563.36347                  22745616.3194
        45.7504         34.2504
  23403968.0874   -7263300.27749  -5602506.50447                  23403967.3394
        45.2504         27.7504
 04  9 30 16 57  0.0000000  0  8G 1G11G16G20G23G25G 4G13
  21514712.2204   -2944410.93449  -2269238.16447                  21514711.3404
        50.7504         38.7504
  24277231.0184    -717354.69149   -557871.05546                  24277230.1864
        43.2504         22.2504
  21903950.6534   -6310363.35549  -4860644.97347                  21903948.5804
        50.0004         37.0004
  20361601.2194   -4847866.83249  -3735916.15248                  20361599.0584
        50.0004         42.2504
  21172258.3284   -6073471.52049  -4675403.62948                  21172254.6294
        49.7504         40.0004
  23043636.6054    -876425.84449   -677819.34847                  23043635.6114
        45.5004         32.7504
  25016720.0904     -37671.10259
        41.7504
  23687342.7524   -7349576.35249  -5669734.60947                  23687342.0094
        45.7504         27.5004
 04  9 30 16 57 15.0000000  0  8G 1G11G16G20G23G25G 4G13
  21508390.8304   -2977630.42249  -2295123.50047                  21508389.9164
        50.7504         38.7504
  24275630.3984    -725766.77749   -564425.95746                  24275629.6934
        42.5004         22.2504
  21890797.7054   -6379482.29749  -4914503.89147                  21890795.8674
        50.0004         37.5004
  20351793.3494   -4899406.13749  -3776076.66048                  20351791.4824
        49.7504         42.7504
  21158981.4694   -6143240.32049  -4729768.92648                  21158977.5214
        50.2504         39.5004
  23041867.5234    -885721.96149   -685063.09047                  23041865.9644
        44.5004         31.0004
  25002950.5304    -110029.02349    -77225.02056                  25002950.1424
        41.7504         22.2504
  23670924.8864   -7435854.81649  -5736964.58247                  23670923.8364
        45.2504         26.5004
 04  9 30 16 57 30.0000000  0  8G 1G11G16G20G23G25G 4G13
  21502074.9294   -3010818.76649  -2320984.55947                  21502074.4534
        51.5004         38.5004
  24274027.7854    -734188.06649   -570988.05146                  24274027.1034
        39.7504         21.2504
  21877668.2054   -6448478.59449  -4968267.22747                  21877666.9584
        50.0004         36.7504
  20342010.4834   -4950817.00849  -3816137.08248                  20342008.5354
        49.7504         42.5004
  21145711.8904   -6212973.77749  -4784106.68447                  21145707.4644
        50.0004         39.2504
  23040101.7784    -895001.90249   -692294.24647                  23040101.0214
        44.7504         32.2504
  24989201.9614    -182276.38749   -133521.67646                  24989202.7574
        40.5004         22.0004
  23654507.1084   -7522129.97749  -5804192.00046                  23654505.2024
        44.2504         24.7504
 04  9 30 16 57 45.0000000  0  8G 1G11G16G20G23G25G 4G13
  21495765.5064   -3043977.54749  -2346822.57847                  21495764.4974
        51.2504         39.0004
  24272423.0264    -742620.52349   -577558.84446                  24272422.6954
        38.2504         21.0004
  21864561.6234   -6517353.62149  -5021936.08647                  21864559.3784
        49.0004         36.5004
  20332251.1704   -5002100.93749  -3856098.59848                  20332249.1784
        51.0004         42.5004
  21132448.6204   -6282673.28949  -4838417.99247                  21132443.9864
        50.0004         39.2504
  23038338.6164    -904267.43449   -699514.16447                  23038338.5314
        44.0004         33.5004
  24975474.7364    -254414.64849   -189733.31646                  24975474.9284
        42.0004         22.2504
  23638089.3574   -7608403.30549  -5871417.95346                  23638086.9834
        43.5004         22.7504
 04  9 30 16 58  0.0000000  0  8G 1G11G16G20G23G25G 4G13
  21489461.1534   -3077106.73449  -2372637.54747                  21489460.5234
        51.0004         38.5004
  24270816.5494    -751064.30949   -584138.48446                  24270815.7564
        39.5004         21.2504
  21851478.3434   -6586107.13749  -5075510.25447                  21851476.8374
        49.0004         37.5004
  20322516.3024   -5053257.89849  -3895961.17248                  20322514.4614
        50.0004         42.0004
  21119191.8114   -6352338.85549  -4892702.84847                  21119187.0664
        50.0004         39.0004
  23036578.1534    -913518.86349   -706723.09047                  23036578.1444
        44.7504         32.7504
  24961768.5224    -326443.75449   -245859.89846                  24961768.5834
        41.5004         22.2504
  23621672.6164   -7694674.77749  -5938642.49246                  23621669.8914
        42.7504         22.2504
 04  9 30 16 58 15.0000000  0  8G 1G11G16G20G23G25G 4G13
  21483162.2714   -3110206.49249  -2398429.57847                  21483161.5664
        51.0004         38.2504
  24269207.5834    -759520.18749   -590727.53546                  24269206.6754
        39.0004         21.7504
  21838418.2674   -6654739.09049  -5128989.68447                  21838416.4524
        49.5004         37.5004
  20312805.9494   -5104287.82049  -3935724.75848                  20312803.7144
        50.0004         42.2504
  21105941.1444   -6421970.64149  -4946961.38747                  21105936.5944
        50.0004         39.0004
  23034820.6704    -922756.57049   -713921.33247                  23034819.9174
        44.0004         32.7504
  24948081.9024    -398363.87149   -301901.54746                  24948081.9994
        41.7504         22.5004
  23605255.8434   -7780944.66449  -6005865.77746                  23605254.0594
        42.7504         21.7504
 04  9 30 16 58 30.0000000  0  8G 1G11G16G20G23G25G 4G13
  21476869.4744   -3143277.13749  -2424198.91847                  21476868.4624
        50.5004         38.2504
  24267596.0204    -767988.82049   -597326.50446                  24267594.7564
        41.7504         22.2504
  21825380.9914   -6723249.62949  -5182374.51247                  21825379.7214
        49.0004         37.5004
  20303119.1234   -5155191.04349  -3975389.61748                  20303117.3804
        50.0004         42.5004
  21092697.0044   -6491568.80149  -5001193.73048                  21092692.7894
        50.2504         40.0004
  23033065.3654    -931981.09849   -721109.29347                  23033064.7734
        45.5004         33.5004
  24934417.4244    -470174.98049   -357858.23446                  24934417.8654
        42.0004         21.7504
  23588839.2784   -7867213.32049  -6073088.08246                  23588838.0814
        43.0004         22.5004
 04  9 30 16 58 45.0000000  0  8G 1G11G16G20G23G25G 4G13
  21470581.9014   -3176318.89149  -2449945.76647                  21470580.8694
        51.0004         39.0004
  24265982.5024    -776470.63349   -603935.73446                  24265981.7694
        42.2504         21.5004
  21812366.8114   -6791638.75849  -5235664.73047                  21812365.2084
        49.0004         37.2504
  20293456.6824   -5205967.75849  -4014955.89848                  20293455.0734
        50.0004         42.5004
  21079459.3704   -6561133.58249  -5055400.05148                  21079455.5324
        49.0004         40.0004
  23031311.9474    -941192.89149   -728287.34447                  23031310.9304
        43.7504         31.7504
  24920772.0374    -541877.35249   -413730.21146                  24920772.6294
        42.0004         22.2504
  23572423.3844   -7953480.95349  -6140309.57446                  23572422.3014
        40.7504         21.7504
 04  9 30 16 59  0.0000000  0  8G 1G11G16G20G23G25G 4G13
  21464300.0194   -3209329.82849  -2475668.59047                  21464298.8724
        51.2504         38.0004
  24264366.2924    -784964.08649   -610554.01246                  24264365.5674
        39.7504         20.5004
  21799376.6284   -6859904.27749  -5288858.63747                  21799374.8154
        50.2504         38.2504
  20283818.9464   -5256615.86749  -4054421.96948                  20283816.7924
        50.0004         42.0004
  21066228.2754   -6630663.01249  -5109578.82848                  21066224.6404
        49.5004         39.7504
  23029561.6344    -950390.21949   -735454.10547                  23029560.4314
        44.0004         31.0004
  24907149.1054    -613468.86749   -469515.79746                  24907149.3804
        42.5004         21.7504
  23556007.2714   -8039745.55549  -6207528.75046                  23556006.5844
        41.2504         22.0004
 04  9 30 16 59 15.0000000  0  8G 1G11G16G20G23G25G 4G13
  21458023.8894   -3242309.78949  -2501367.27047                  21458023.3254
        51.0004         38.7504
  24262747.1084    -793469.34449   -617181.50846                  24262747.0424
        36.5004         20.0004
  21786409.6144   -6928045.85549  -5341955.95347                  21786407.8034
        49.2504         37.7504
  20274205.5774   -5307135.18449  -4093787.68048                  20274203.5694
        50.0004         42.2504
  21053004.1044   -6700156.85249  -5163729.85948                  21053000.3194
        49.5004         39.5004
  23027814.3834    -959573.11749   -742609.64547                  23027813.2714
        44.0004         32.2504
  24893546.5274    -684949.23049   -525214.78546                  24893546.6094
        41.5004         21.0004
  23539591.8884   -8126006.92249  -6274745.35547                  23539591.6814
        42.7504         26.0004
 04  9 30 16 59 30.0000000  0  8G 1G11G16G20G23G25G 4G13
  21451754.1334   -3275259.45349  -2527042.34847                  21451752.8844
        51.0004         38.2504
  24261126.0654    -801987.41449   -623819.03946                  24261126.5904
        36.5004         20.0004
  21773466.1914   -6996064.08649  -5394957.16447                  21773464.8534
        50.2504         38.2504
  20264616.0854   -5357526.24249  -4133053.44548                  20264614.4084
        50.2504         42.0004
  21039786.2384   -6769615.70749  -5217853.64547                  21039782.6464
        50.0004         39.2504
  23026070.0754    -968742.49249   -749754.64547                  23026069.0274
        46.0004         32.0004
  24879965.0794    -756318.88349   -580827.47746                  24879965.4784
        40.7504         20.5004
  23523177.6914   -8212265.74649  -6341960.00046                  23523176.8064
        42.5004         22.7504
 04  9 30 16 59 45.0000000  0  8G 1G11G16G20G23G25G 4G13
  21445489.7874   -3308178.10549  -2552693.26247                  21445489.0224
        50.7504         39.0004
  24259503.4914    -810518.11749   -630466.42646                  24259503.4684
        39.2504         22.7504
  21760546.3364   -7063958.02049  -5447861.52347                  21760544.3074
        50.5004         37.7504
  20255051.6864   -5407788.34049  -4172218.73048                  20255049.8264
        50.0004         42.7504
  21026575.5574   -6839038.96549  -5271949.68447                  21026571.6874
        49.2504         39.2504
  23024327.8444    -977898.05949   -756888.86747                  23024326.5344
        46.7504         33.2504
  24866406.0114    -827577.28549   -636353.50046                  24866405.3314
        39.7504         21.5004
  23506764.1434   -8298521.45749  -6409172.21947                  23506763.7154
        42.5004         26.0004
 04  9 30 17  0  0.0000000  0  8G 1G11G16G20G23G25G 4G13
  21439231.3284   -3341065.84049  -2578320.08247                  21439230.5254
        50.7504         38.5004
  24257877.1604    -819061.82049   -637123.92647                  24257877.0934
        41.7504         27.2504
  21747650.2914   -7131727.66049  -5500669.02047                  21747648.6144
        50.5004         38.0004
  20245511.9174   -5457921.50849  -4211283.54348                  20245509.2994
        50.0004         42.7504
  21013371.5914   -6908426.57449  -5326017.95348                  21013367.7244
        49.2504         39.5004
  23022588.2214    -987040.09449   -764012.55147                  23022587.3434
        46.5004         32.5004
  24852866.6234    -898724.28149   -691792.73846                  24852866.5554
        39.0004         20.0004
  23490350.2594   -8384774.08249  -6476382.03946                  23490350.3044
        42.5004         24.5004
 04  9 30 17  0 15.0000000  0  8G 1G11G16G20G23G25G 4G13
  21432979.3044   -3373922.85249  -2603922.96547                  21432978.3474
        51.5004         38.5004
  24256249.1504    -827619.17649   -643792.06247                  24256249.3164
        44.7504         29.0004
  21734777.6144   -7199372.84849  -5553379.53147                  21734776.6314
        50.5004         38.0004
  20235996.2514   -5507925.87949  -4250248.00048                  20235994.2024
        50.5004         42.5004
  21000174.4794   -6977778.78149  -5380058.63348                  21000170.5124
        49.5004         39.5004
  23020850.5974    -996168.87949   -771125.91847                  23020850.4034
        46.2504         33.0004
  24839348.7904    -969759.99649   -747145.23446                  24839348.9804
        39.2504         19.5004
  23473938.3554   -8471023.88349  -6543589.64146                  23473936.9234
        43.5004         25.0004
 04  9 30 17  0 30.0000000  0  8G 1G11G16G20G23G25G 4G13
  21426732.6124   -3406748.84449  -2629501.66847                  21426731.8434
        51.0004         38.0004
  24254618.3074    -836190.27049   -650470.88347                  24254618.4754
        46.0004         32.0004
  21721928.9504   -7266893.19949  -5605992.78947                  21721927.0214
        50.2504         38.5004
  20226505.2584   -5557801.19549  -4289111.89548                  20226502.7354
        50.2504         42.2504
  20986984.1594   -7047095.27349  -5434071.49248                  20986979.3584
        50.0004         39.7504
  23019115.8364   -1005284.49649   -778229.02747                  23019115.5984
        46.0004         32.7504
  24825852.4684   -1040684.00049   -802410.66846                  24825852.9324
        39.2504         20.0004
  23457525.7744   -8557270.51649  -6610794.77746                  23457524.6644
        44.0004         25.2504
 04  9 30 17  0 45.0000000  0  8G 1G11G16G20G23G25G 4G13
  21420491.5174   -3439544.45749  -2655056.71147                  21420490.7794
        50.7504         38.5004
  24252984.3944    -844775.89549   -657161.05147                  24252984.7314
        46.7504         32.5004
  21709103.8514   -7334289.27049  -5658509.17647                  21709102.8694
        50.5004         38.0004
  20217038.5514   -5607547.94149  -4327875.60248                  20217036.5564
        50.2504         42.7504
  20973800.1584   -7116376.57449  -5488056.92247                  20973795.1334
        49.2504         39.0004
  23017383.3694   -1014387.68749   -785322.46147                  23017383.1724
        46.5004         32.0004
  24812377.1384   -1111496.81249   -857589.49646                  24812377.7364
        39.7504         22.0004
  23441114.4104   -8643514.68449  -6677998.02047                  23441112.9684
        45.5004         26.2504
 04  9 30 17  1  0.0000000  0  8G 1G11G16G20G23G25G 4G13
  21414256.5924   -3472308.33249  -2680587.02047                  21414256.1184
        50.2504         38.5004
  24251348.2304    -853375.07049   -663861.74647                  24251348.3104
        46.5004         32.5004
  21696302.8274   -7401559.38749  -5710927.44547                  21696301.0114
        50.5004         37.5004
  20207597.0624   -5657164.74249  -4366538.05548                  20207594.8784
        50.2504         42.0004
  20960623.8024   -7185621.30949  -5542013.86747                  20960618.6144
        49.2504         39.0004
  23015654.2594   -1023477.59849   -792405.53147                  23015652.9544
        44.2504         31.5004
  24798924.2184   -1182197.22749   -912680.70746                  24798924.2034
        39.2504         22.2504
  23424703.2134   -8729754.92649  -6745198.20347                  23424701.2304
        44.5004         27.0004
 04  9 30 17  1 15.0000000  0  8G 1G11G16G20G23G25G 4G13
  21408027.7384   -3505040.60549  -2706092.71147                  21408027.4594
        50.0004         38.2504
  24249709.4234    -861988.44149   -670573.50847                  24249709.4784
        46.5004         32.2504
  21683525.8054   -7468703.58649  -5763247.59047                  21683523.4244
        51.0004         37.5004
  20198180.2564   -5706651.64149  -4405099.27348                  20198177.7244
        50.2504         42.0004
  20947453.5464   -7254829.63349  -5595942.43047                  20947448.9824
        49.2504         39.0004
  23013926.8454   -1032554.44149   -799478.41047                  23013925.6574
        45.7504         32.0004
  24785491.0594   -1252785.11349   -967684.22346                  24785491.7494
        41.0004         22.0004
  23408293.3204   -8815991.56249  -6812395.59447                  23408291.3394
        45.0004         26.2504
 04  9 30 17  1 30.0000000  0  8G 1G11G16G20G23G25G 4G13
  21401805.3834   -3537741.81649  -2731574.18447                  21401804.7444
        50.0004         38.5004
  24248067.3844    -870616.74649   -677296.91847                  24248067.4244
        44.7504         29.5004
  21670772.6444   -7535722.25449  -5815469.90247                  21670771.1614
        50.0004         37.5004
  20188787.8284   -5756009.08249  -4443559.62948                  20188785.6314
        50.7504         42.0004
  20934290.4454   -7324002.03549  -5649843.00847                  20934285.8314
        49.0004         39.2504
  23012202.3424   -1041619.07849   -806541.78547                  23012200.8844
        46.5004         32.5004
  24772080.0754   -1323260.82449  -1022600.35246                  24772080.6454
        41.5004         23.0004
  23391883.4344   -8902225.07849  -6879590.53547                  23391882.2444
        45.5004         26.2504
 04  9 30 17  1 45.0000000  0  8G 1G11G16G20G23G25G 4G13
  21395588.8194   -3570410.53149  -2757030.34047                  21395587.7014
        50.7504         38.0004
  24246422.8574    -879258.94949   -684031.13747                  24246423.1294
        41.0004         26.0004
  21658043.5984   -7602613.64149  -5867593.04347                  21658041.7234
        50.2504         37.5004
  20179419.9454   -5805235.60949  -4481917.97348                  20179417.9044
        49.5004         42.2504
  20921134.1334   -7393136.96149  -5703714.37948                  20921130.4014
        50.2504         39.7504
  23010479.6664   -1050670.27349   -813594.68047                  23010479.0414
        46.2504         32.2504
  24758690.6604   -1393622.85549  -1077427.88746                  24758691.1234
        42.5004         22.7504
  23375474.8314   -8988453.87949  -6946781.78547                  23375473.2744
        45.7504         26.0004
 04  9 30 17  2  0.0000000  0  8G 1G11G16G20G23G25G 4G13
  21389378.3634   -3603046.23449  -2782460.78547                  21389377.5174
        49.5004         38.5004
  24244775.8174    -887914.84448   -690776.03146                  24244775.6814
        34.2504         20.0004
  21645338.7244   -7669377.19949  -5919616.59447                  21645337.0594
        50.2504         37.2504
  20170077.8924   -5854330.68049  -4520173.87548                  20170075.3964
        50.0004         42.0004
  20907985.4704   -7462233.95349  -5757556.19148                  20907981.8794
        50.0004         39.5004
  23008759.7664   -1059707.67649   -820636.84047                  23008759.4334
        45.5004         32.2504
  24745323.4294   -1463870.64849  -1132166.43046                  24745323.4094
        42.2504         22.5004
  23359066.7524   -9074677.70349  -7013969.16447                  23359065.5874
        45.0004         26.5004
 04  9 30 17  2 15.0000000  0  7G 1G16G20G23G25G 4G13
  21383173.7404   -3635651.89149  -2807867.80547                  21383172.8384
        49.5004         38.0004
  21632657.6564   -7736015.66449  -5971542.64147                  21632656.0754
        50.7504         37.7504
  20160759.4414   -5903297.21549  -4558329.62948                  20160757.3924
        49.5004         42.5004
  20894843.5414   -7531295.89149  -5811370.69948                  20894840.1974
        50.2504         39.7504
  23007042.1194   -1068734.46949   -827670.75047                  23007041.9794
        45.0004         31.7504
  24731976.5974   -1534006.94949  -1186818.09446                  24731976.4664
        41.0004         22.7504
  23342658.7414   -9160899.45349  -7081154.91846                  23342658.2494
        43.5004         25.0004
 04  9 30 17  2 30.0000000  0  7G 1G16G20G23G25G 4G13
  21376975.0994   -3668226.18449  -2833250.38747                  21376974.4744
        50.0004         38.0004
  21620001.0574   -7802527.57849  -6023370.10247                  21619998.7804
        50.7504         37.5004
  20151466.2274   -5952133.82449  -4596384.13348                  20151464.1234
        50.2504         42.5004
  20881708.3264   -7600321.42249  -5865156.81248                  20881704.7644
        49.7504         39.7504
  23005326.7094   -1077749.63349   -834695.59047                  23005326.3314
        45.0004         32.0004
  24718651.1844   -1604030.63349  -1241381.99246                  24718651.5774
        41.0004         22.7504
  23326252.4904   -9247117.75049  -7148337.99646                  23326250.7104
        43.7504         25.5004
 04  9 30 17  2 45.0000000  0  8G 1G11G16G20G23G25G 4G13
  21370782.4244   -3700768.20749  -2858607.81647                  21370782.0054
        50.2504         38.0004
  24239815.8944      -8814.25859
        39.5004
  21607368.6924   -7868911.87549  -6075098.10547                  21607366.6224
        51.0004         37.7504
  20142197.4804   -6000839.57849  -4634336.68748                  20142195.5014
        49.5004         42.2504
  20868580.3034   -7669309.59449  -5918913.83648                  20868576.4804
        50.2504         39.5004
  23003613.4624   -1086752.48049   -841710.81647                  23003613.0654
        45.2504         32.2504
  24705347.5254   -1673940.51649  -1295857.21546                  24705347.2554
        40.2504         21.7504
  23309845.7654   -9333331.78149  -7215517.75447                  23309844.6354
        43.5004         25.7504
 04  9 30 17  3  0.0000000  0  8G 1G11G16G20G23G25G 4G13
  21364596.4654   -3733277.39149  -2883939.68447                  21364595.8664
        50.0004         38.7504
  24238156.0134     -17534.35249
        43.0004
  21594760.4914   -7935167.80149  -6126726.08647                  21594758.6744
        50.5004         37.7504
  20132954.6454   -6049413.88749  -4672186.80148                  20132952.2294
        49.0004         42.5004
  20855459.7464   -7738259.81649  -5972641.27748                  20855455.7264
        49.5004         39.5004
  23001902.4674   -1095742.79349   -848716.27747                  23001901.6184
        44.2504         31.7504
  24692066.5864   -1743735.98449  -1350243.30946                  24692066.0574
        39.0004         20.0004
  23293440.0254   -9419541.00849  -7282693.74247                  23293439.9384
        42.5004         25.7504
 04  9 30 17  3 15.0000000  0  8G 1G11G16G20G23G25G 4G13
  21358416.3484   -3765754.05149  -2909246.18047                  21358415.6694
        48.7504         38.5004
  24236493.7294     -26270.57049
        44.0004
  21582176.7154   -8001295.47349  -6178254.13347                  21582174.6744
        51.0004         37.7504
  20123735.9424   -6097856.89549  -4709934.60948                  20123733.9004
        47.5004         42.0004
  20842346.2704   -7807172.29749  -6026339.32447                  20842341.8764
        49.0004         39.0004
  23000194.6304   -1104721.09449   -855712.38347                  23000193.5624
        45.5004         31.2504
  24678807.0624   -1813417.22749  -1404540.38746                  24678806.2764
        37.0004         21.0004
  23277036.5214   -9505745.78149  -7349866.25047                  23277036.1434
        43.7504         26.2504
 04  9 30 17  3 30.0000000  0  8G 1G11G16G20G23G25G 4G13
  21352242.0594   -3798198.91049  -2934527.91047                  21352241.3514
        50.0004         38.5004
  24234828.0384     -35023.85249   -719862.83257                  24234828.3364
        45.0004         27.7504
  21569617.2514   -8067295.50449  -6229682.71947                  21569615.2034
        50.0004         37.7504
  20114542.6484   -6146169.42649  -4747580.74248                  20114540.3354
        49.2504         42.0004
  20829239.6164   -7876047.90649  -6080008.62947                  20829235.0544
        49.0004         39.0004
  22998487.9414   -1113688.34049   -862699.85247                  22998487.0874
        45.2504         32.5004
  24665568.4274   -1882984.93448  -1458748.98046                  24665567.8304
        34.7504         20.5004
  23260633.3894   -9591946.78149  -7417035.84047                  23260632.6414
        44.7504         26.5004
 04  9 30 17  3 45.0000000  0  8G 1G11G16G20G23G25G 4G13
  21346074.3124   -3830612.43749  -2959785.22747                  21346073.3564
        49.0004         38.0004
  24233159.1494     -43795.08649   -726697.60547                  24233159.0054
        46.0004         29.0004
  21557082.1824   -8133168.32449  -6281012.18747                  21557080.3244
        50.5004         37.2504
  20105373.7104   -6194351.88749  -4785125.53148                  20105371.6544
        48.0004         42.5004
  20816139.9794   -7944887.04349  -6133649.52048                  20816135.2224
        49.5004         39.5004
  22996783.0444   -1122645.17249   -869679.23047                  22996782.2634
        44.5004         30.7504
  24652351.3784   -1952439.52749  -1512869.42246                  24652350.7814
        37.2504         21.0004
  23244230.0694   -9678144.60549  -7484202.95747                  23244229.6634
        44.0004         26.2504
 04  9 30 17  4  0.0000000  0  8G 1G11G16G20G23G25G 4G13
  21339912.1724   -3862993.74249  -2985017.42647                  21339911.1324
        48.7504         38.0004
  24231486.7434     -52583.67249   -733545.90647                  24231486.8284
        44.5004         29.5004
  21544571.1454   -8198912.74649  -6332241.57047                  21544569.7424
        51.0004         37.2504
  20096229.9374   -6242403.24649  -4822568.15648                  20096227.7994
        48.5004         42.5004
  20803047.3244   -8013688.55949  -6187261.10247                  20803042.3224
        49.2504         39.0004
  22995080.9154   -1131590.82049   -876649.91447                  22995080.1084
        44.7504         30.7504
  24639156.4024   -2021779.87149  -1566900.85546                  24639155.9784
        40.0004         22.2504
  23227828.4164   -9764337.90249  -7551366.54347                  23227827.3404
        44.0004         27.5004
 04  9 30 17  4 15.0000000  0  8G 1G11G16G20G23G25G 4G13
  21333756.5154   -3895342.71549  -3010224.43447                  21333755.1124
        48.7504         38.5004
  24229810.5204     -61389.91849   -740407.98047                  24229811.0074
        43.7504         28.0004
  21532084.8824   -8264528.49249  -6383370.72347                  21532083.8534
        49.5004         37.5004
  20087110.8854   -6290323.45349  -4859908.58248                  20087108.8324
        48.7504         42.2504
  20789962.1254   -8082452.33249  -6240843.26647                  20789957.2744
        49.5004         39.2504
  22993381.1854   -1140525.52749   -883612.05147                  22993379.8144
        45.0004         31.5004
  24625983.0744   -2091006.00849  -1620843.27746                  24625983.2124
        41.2504         22.5004
  23211427.1344   -9850526.80149  -7618526.70347                  23211425.9844
        44.5004         26.2504
 04  9 30 17  4 30.0000000  0  8G 1G11G16G20G23G25G 4G13
  21327606.7154   -3927659.82449  -3035406.60947                  21327605.9734
        49.0004         38.7504
  24228131.5634     -70214.50449   -747284.33247                  24228131.5244
        41.0004         27.0004
  21519623.4484   -8330015.83249  -6434399.80547                  21519621.3554
        50.7504         37.5004
  20078016.7324   -6338112.80549  -4897147.04348                  20078014.7294
        49.0004         42.0004
  20776883.6864   -8151178.87949  -6294396.41447                  20776879.4184
        49.2504         39.0004
  22991682.2324   -1149449.88349   -890566.11347                  22991682.1464
        44.2504         31.2504
  24612831.8274   -2160118.22749  -1674696.96146                  24612831.4094
        42.7504         23.0004
  23195026.8624   -9936711.90249  -7685683.89546                  23195025.7884
        45.7504         24.7504
 04  9 30 17  4 45.0000000  0  8G 1G11G16G20G23G25G 4G13
  21621255.7954   -3959941.86749  -3060561.46547                  21621254.9934
        48.7504         38.2504
  24526241.5394     -79056.27349   -754174.10546                  24526241.7004
        40.5004         24.0004
  21806979.3454   -8395369.23049  -6485324.51647                  21806978.3134
        50.7504         38.0004
  20368741.1134   -6385767.22349  -4934280.36348                  20368738.8934
        48.7504         42.2504
  21063606.0004   -8219862.51249  -6347916.12948                  21063602.0854
        50.5004         40.0004
  23289779.3004   -1158362.56249   -897511.10547                  23289779.0204
        45.5004         30.2504
  24899495.2744   -2229110.70749  -1728457.31246                  24899495.3424
        43.5004         24.7504
  23478420.5394  -10022886.41049  -7752832.84847                  23478419.8814
        45.0004         26.7504
 04  9 30 17  5  0.0000000  0  8G 1G11G16G20G23G25G 4G13
  21615118.6174   -3992194.16049  -3085693.14547                  21615117.9374
        49.7504         38.0004
  24524554.7574     -87917.78949   -761079.25046                  24524555.0464
        38.5004         22.5004
  21794566.7524   -8460598.20749  -6536152.27347                  21794565.0674
        51.0004         38.0004
  20359697.0304   -6433293.97349  -4971314.19948                  20359694.9904
        49.5004         41.7504
  21050542.4164   -8288513.41449  -6401410.33648                  21050538.6084
        50.2504         39.7504
  23288084.9994   -1167266.03549   -904448.91047                  23288084.6344
        46.0004         31.5004
  24886387.0764   -2297993.58649  -1782132.29346                  24886387.6314
        43.5004         25.2504
  23462022.1344  -10109062.72749  -7819983.22747                  23462020.2864
        44.7504         25.7504
 04  9 30 17  5 15.0000000  0  8G 1G11G16G20G23G25G 4G13
  21608987.3494   -4024414.92249  -3110800.24247                  21608986.5364
        49.5004         38.2504
  24522864.6224     -96799.09049   -767999.85946                  24522865.2644
        36.2504         20.0004
  21782178.4674   -8525698.75049  -6586879.96547                  21782177.1214
        50.0004         38.0004
  20350677.7424   -6480690.16449  -5008246.30948                  20350675.7334
        49.2504         42.0004
  21037485.6724   -8357127.30149  -6454875.70748                  21037481.8624
        50.0004         40.0004
  23286392.6054   -1176160.40649   -911379.61347                  23286391.6494
        45.7504         32.0004
  24873300.9034   -2366762.71149  -1835718.62946                  24873301.4074
        43.0004         25.2504
  23445624.0944  -10195235.58649  -7887130.89147                  23445622.3044
        44.7504         26.0004
 04  9 30 17  5 30.0000000  0  8G 1G11G16G20G23G25G 4G13
  21602861.8274   -4056603.73849  -3135882.45347                  21602861.1724
        50.7504         38.0004
  24521170.2374    -105700.09849   -774935.80946                  24521171.4874
        36.5004         19.5004
  21769814.6724   -8590670.26649  -6637507.11747                  21769812.9934
        50.7504         37.2504
  20341683.6784   -6527955.31649  -5045076.30148                  20341681.6384
        50.5004         42.0004
  21024436.1774   -8425703.72749  -6508311.88348                  21024432.0874
        50.0004         40.0004
  23284701.6734   -1185045.30549   -918302.93047                  23284700.4534
        45.2504         31.2504
  24860236.7084   -2435417.60949  -1889215.97747                  24860236.8334
        43.7504         25.7504
  23429226.3464  -10281404.47749  -7954275.48447                  23429224.2374
        45.2504         26.0004
 04  9 30 17  5 45.0000000  0  8G 1G11G16G20G23G25G 4G13
  21596742.8024   -4088759.62549  -3160939.00847                  21596742.2204
        49.5004         37.7504
  24519473.1714    -114620.33249   -781886.72746                  24519474.0094
        36.5004         20.0004
  21757476.0894   -8655511.60949  -6688032.82047                  21757473.7244
        50.5004         38.0004
  20332714.3274   -6575088.44149  -5081803.42648                  20332712.8524
        49.5004         42.0004
  21011393.5734   -8494241.70349  -6561718.09448                  21011389.5374
        50.2504         39.7504
  23283012.4424   -1193920.06649   -925218.35947                  23283011.6494
        44.2504         31.2504
  24847193.9484   -2503957.05149  -1942623.33246                  24847193.6794
        42.7504         23.7504
  23412829.6614  -10367568.52049  -8021416.27046                  23412828.5194
        44.0004         23.7504
 04  9 30 17  6  0.0000000  0  8G 1G11G16G20G23G25G 4G13
  21590629.9224   -4120882.75449  -3185970.03547                  21590629.5834
        49.7504         38.2504
  24517772.3964    -123560.27049   -788852.95346                  24517772.6794
        40.0004         20.5004
  21745161.5494   -8720222.80949  -6738457.11747                  21745159.9814
        50.5004         37.7504
  20323770.7574   -6622089.73849  -5118427.81648                  20323768.2894
        50.0004         42.0004
  20998358.6034   -8562741.34449  -6615094.44548                  20998354.0954
        50.5004         39.5004
  23281325.9204   -1202785.19949   -932126.26647                  23281325.2744
        45.2504         31.5004
  24834172.7934   -2572381.16049  -1995940.84046                  24834173.0074
        41.5004         23.0004
  23396434.0984  -10453727.88749  -8088553.40646                  23396433.1234
        43.7504         25.0004
 04  9 30 17  6 15.0000000  0  8G 1G11G16G20G23G25G 4G13
  21584523.2694   -4152974.24649  -3210976.39547                  21584522.5914
        50.2504         38.2504
  24516066.6804    -132521.28149   -795835.59846                  24516067.6084
        40.2504         21.0004
  21732872.0614   -8784804.84849  -6788780.78947                  21732869.9994
        50.2504         37.0004
  20314851.1184   -6668960.30949  -5154950.34048                  20314848.9744
        49.0004         42.0004
  20985330.9064   -8631203.74649  -6668441.77347                  20985326.0214
        49.5004         39.0004
  23279640.2744   -1211641.88749   -939027.62547                  23279640.1214
        45.0004         32.5004
  24821173.8354   -2640691.00449  -2049169.30146                  24821173.7624
        42.2504         21.7504
  23380039.1844  -10539883.66849  -8155687.79746                  23380037.0774
        44.7504         23.2504
 04  9 30 17  6 30.0000000  0  8G 1G11G16G20G23G25G 4G13
  21578422.4334   -4185033.27749  -3235957.48047                  21578421.6714
        50.2504         37.5004
  24514358.2894    -141502.98849   -802834.36746                  24514358.0294
        41.5004         19.2504
  21720607.0914   -8849256.69549  -6839003.00847                  21720605.9924
        50.5004         37.0004
  20305957.2444   -6715699.20749  -5191370.27348                  20305955.2794
        49.7504         42.2504
  20972310.1664   -8699627.89549  -6721759.29347                  20972305.2854
        50.2504         39.2504
  23277956.9634   -1220489.57449   -945921.95347                  23277956.5324
        45.5004         31.5004
  24808197.2634   -2708885.75449  -2102308.07446                  24808196.5524
        42.5004         21.7504
  23363645.1994  -10626035.06649  -8222818.74247                  23363643.4584
        45.0004         25.7504
 04  9 30 17  6 45.0000000  0  8G 1G11G16G20G23G25G 4G13
  21572328.2394   -4217059.56249  -3260913.03547                  21572327.1254
        49.5004         38.0004
  24512645.5334    -150505.46149   -809849.28146                  24512644.8574
        41.2504         18.2504
  21708367.9444   -8913577.99649  -6889123.49247                  21708366.1464
        50.7504         37.5004
  20297088.2614   -6762306.07849  -5227687.33248                  20297086.4684
        49.0004         42.5004
  20959296.5224   -8768013.55549  -6775046.82047                  20959291.8804
        49.2504         39.2504
  23276274.5504   -1229328.16449   -952809.20747                  23276274.5234
        43.5004         30.5004
  24795241.8594   -2776964.98449  -2155356.83646                  24795241.6084
        42.2504         20.5004
  23347252.0924  -10712181.71549  -8289946.00446                  23347250.2234
        45.5004         24.0004
 04  9 30 17  7  0.0000000  0  8G 1G11G16G20G23G25G 4G13
  21566240.3144   -4249053.73049  -3285843.57047                  21566239.1664
        49.2504         37.7504
  24510928.2954    -159529.66049   -816881.14546                  24510927.6614
        42.0004         20.5004
  21696152.0724   -8977769.18449  -6939142.59847                  21696150.6284
        49.7504         37.2504
  20288243.9574   -6808781.71149  -5263902.11348                  20288242.2134
        48.2504         42.2504
  20946290.5034   -8836361.36749  -6828304.85548                  20946285.9634
        50.0004         39.5004
  23274594.8804   -1238158.61749   -959690.11347                  23274593.9094
        44.5004         31.5004
  24782308.9544   -2844929.28549  -2208316.00046                  24782308.8134
        43.2504         21.0004
  23330859.7434  -10798324.29749  -8357070.07046                  23330857.8834
        45.2504         25.5004
 04  9 30 17  7 15.0000000  0  8G 1G11G16G20G23G25G 4G13
  21560157.9214   -4281014.46149  -3310748.05147                  21560157.2474
        48.7504         37.7504
  24509207.1044    -168574.62149   -823929.18746                  24509207.2464
        43.0004         21.0004
  21683961.6594   -9041828.91449  -6989059.27047                  21683960.3524
        51.0004         37.5004
  20279425.2844   -6855124.73849  -5300013.57048                  20279423.6504
        48.2504         42.5004
  20933291.8294   -8904669.92249  -6881532.30548                  20933287.3234
        50.5004         40.0004
  23272916.1684   -1246979.92649   -966563.87547                  23272915.5444
        45.0004         31.0004
  24769397.3314   -2912777.36749  -2261184.63746                  24769397.2404
        42.7504         21.2504
  23314468.4194  -10884461.53549  -8424190.00446                  23314466.4064
        45.2504         25.5004
 04  9 30 17  7 30.0000000  0  8G 1G11G16G20G23G25G 4G13
  21554082.5144   -4312941.80549  -3335626.52047                  21554081.4854
        49.5004         38.2504
  24507481.8604    -177640.61349   -830993.66846                  24507482.2544
        41.0004         21.5004
  21671796.8714   -9105757.03149  -7038873.37547                  21671794.9044
        51.0004         37.2504
  20270631.8844   -6901335.09849  -5336021.65248                  20270629.8124
        48.5004         42.0004
  20920300.4964   -8972939.20349  -6934729.14548                  20920296.6164
        49.7504         39.7504
  23271239.6444   -1255792.22749   -973430.62547                  23271238.9174
        45.2504         31.5004
  24756508.8004   -2980509.18449  -2313962.67246                  24756508.2584
        40.7504         21.5004
  23298078.0634  -10970593.43749  -8491305.78547                  23298076.5974
        45.2504         27.7504
 04  9 30 17  7 45.0000000  0  8G 1G11G16G20G23G25G 4G13
  21548013.2724   -4344836.42249  -3360479.47347                  21548012.4844
        49.0004         38.2504
  24505752.3994    -186728.79349   -838075.41446                  24505752.5184
        41.5004         22.5004
  21659656.7434   -9169554.00449  -7088585.29747                  21659655.5354
        50.2504         36.7504
  20261863.2564   -6947413.50049  -5371926.91448                  20261861.2944
        48.7504         42.2504
  20907316.5954   -9041169.98049  -6987895.99248                  20907312.4754
        49.5004         40.2504
  23269563.2894   -1264596.34449   -980291.01647                  23269563.7564
        44.5004         30.5004
  24743641.6394   -3048125.30949  -2366650.52746                  24743641.6384
        38.2504         22.7504
  23281688.3964  -11056720.75049  -8558417.96547                  23281687.2264
        45.5004         26.0004
 04  9 30 17  8  0.0000000  0  8G 1G11G16G20G23G25G 4G13
  21541950.4404   -4376697.51649  -3385306.31647                  21541949.4554
        48.5004         38.2504
  24504018.6654    -195838.68049   -845174.10246                  24504019.3534
        39.7504         22.2504
  21647541.3884   -9233218.94549  -7138194.35247                  21647540.2314
        51.0004         37.5004
  20253120.2354   -6993359.11749  -5407728.69548                  20253118.4334
        47.0004         42.0004
  20894340.3614   -9109361.27049  -7041032.05948                  20894336.3644
        48.5004         40.0004
  23267890.1204   -1273391.78149   -987144.64847                  23267889.6194
        43.5004         30.2504
  24730797.2804   -3115624.75449  -2419247.53146                  24730797.0864
        40.5004         21.7504
  23265300.2634  -11142842.62949  -8625525.87947                  23265299.5134
        45.2504         28.2504
 04  9 30 17  8 15.0000000  0  8G 1G11G16G20G23G25G 4G13
  21535893.7484   -4408525.62949  -3410107.46947                  21535892.7814
        50.0004         38.0004
  24502280.7834    -204971.30149   -852290.49246                  24502281.5604
        39.0004         23.2504
  21635451.6204   -9296752.33249  -7187700.87547                  21635450.3544
        50.7504         37.7504
  20244402.2944   -7039172.53549  -5443427.46948                  20244400.3424
        49.5004         42.2504
  20881371.1564   -9177513.68049  -7094137.83248                  20881367.2844
        49.7504         40.5004
  23266218.1754   -1282179.32849   -993992.10247                  23266217.3694
        43.7504         30.5004
  24717974.6114   -3183008.19949  -2471754.11346                  24717974.3204
        44.0004         22.5004
  23248912.4824  -11228959.71949  -8692630.08647                  23248911.3494
        46.0004         28.0004
 04  9 30 17  8 30.0000000  0  8G 1G11G16G20G23G25G 4G13
  21529843.2364   -4440320.64549  -3434882.81247                  21529842.0454
        50.0004         38.0004
  24500538.6644    -214126.75449   -859424.68046                  24500539.5814
        40.7504         22.2504
  21623386.8604   -9360153.79349  -7237104.61747                  21623384.9064
        49.5004         37.7504
  20235709.5754   -7084853.48049  -5479023.02748                  20235707.7344
        48.7504         42.0004
  20868409.7924   -9245626.87949  -7147213.04748                  20868406.1194
        50.5004         40.2504
  23264547.2944   -1290959.25049  -1000833.60947                  23264546.6214
        45.7504         30.0004
  24705174.0054   -3250275.45749  -2524170.17646                  24705174.5094
        44.5004         22.5004
  23232526.1394  -11315071.82849  -8759730.41847                  23232524.3824
        45.0004         27.2504
 04  9 30 17  8 45.0000000  0  8G 1G11G16G20G23G25G 4G13
  21523799.0344   -4472082.32449  -3459632.18747                  21523798.1964
        50.2504         37.5004
  24498793.0204    -223305.09049   -866576.69546                  24498792.8124
        41.0004         22.2504
  21611346.8104   -9423423.15249  -7286405.41847                  21611345.8274
        50.2504         38.0004
  20227041.8844   -7130401.85949  -5514515.27348                  20227040.1644
        50.0004         42.5004
  20855455.3284   -9313700.63349  -7200257.53948                  20855451.5934
        50.5004         39.5004
  23262877.6064   -1299731.32449  -1007669.03547                  23262877.5104
        44.0004         29.2504
  24692395.8454   -3317426.09049  -2576495.34046                  24692395.5204
        44.0004         22.2504
  23216140.1014  -11401178.65249  -8826826.63347                  23216138.1534
        45.0004         27.7504
 04  9 30 17  9  0.0000000  0  8G 1G11G16G20G23G25G 4G13
  21517761.3864   -4503810.26649  -3484355.27047                  21517760.7674
        49.7504         37.5004
  24497041.5254    -232506.32049   -873746.54346                  24497041.9844
        42.2504         22.5004
  21599332.4984   -9486559.82049  -7335602.81647                  21599331.1584
        51.2504         38.2504
  20218399.6774   -7175817.19949  -5549903.85948                  20218398.0484
        50.0004         42.2504
  20842509.3624   -9381734.61749  -7253271.03948                  20842505.0224
        50.2504         39.7504
  23261210.1414   -1308495.48849  -1014498.28547                  23261209.8364
        45.0004         29.2504
  24679639.2614   -3384459.92649  -2628729.50846                  24679639.2174
        43.7504         22.5004
  23199755.4424  -11487279.89849  -8893918.49247                  23199754.3414
        44.5004         27.2504
 04  9 30 17  9 15.0000000  0  8G 1G11G16G20G23G25G 4G13
  21511730.3084   -4535505.05549  -3509052.52347                  21511729.4954
        50.5004         38.2504
  24495286.0224    -241731.41449   -880934.98046                  24495286.7124
        42.0004         22.0004
  21587342.8614   -9549564.18749  -7384697.13347                  21587341.7584
        50.5004         37.5004
  20209782.4034   -7221100.08249  -5585189.23048                  20209780.6614
        50.0004         42.0004
  20829570.2554   -9449729.39149  -7306253.98048                  20829565.9504
        50.2504         40.0004
  23259544.0134   -1317252.50449  -1021321.95747                  23259542.5924
        46.5004         29.7504
  24666905.5634   -3451377.19149  -2680872.84446                  24666905.5414
        43.2504         22.5004
  23183371.9024  -11573376.01649  -8961006.35247                  23183371.0484
        44.2504         27.2504
 04  9 30 17  9 30.0000000  0  8G 1G11G16G20G23G25G 4G13
  21505705.0134   -4567167.18749  -3533724.32447                  21505704.4604
        50.2504         38.2504
  24493525.7294    -250981.19149   -888142.66046                  24493527.0844
        42.5004         22.0004
  21575378.8884   -9612436.61349  -7433688.63347                  21575377.4184
        50.0004         37.5004
  20201190.7814   -7266250.97749  -5620371.75448                  20201188.7784
        50.5004         42.2504
  20816638.5594   -9517685.32849  -7359206.65648                  20816634.1094
        50.0004         39.7504
  23257878.1934   -1326003.16449  -1028140.65647                  23257877.2694
        46.0004         29.7504
  24654193.8804   -3518178.64849  -2732925.94546                  24654193.8984
        43.2504         23.0004
  23166989.1674  -11659467.53549  -9028090.63347                  23166988.2294
        44.2504         26.0004
 04  9 30 17  9 45.0000000  0  8G 1G11G16G20G23G25G 4G13
  21499686.2924   -4598796.05149  -3558370.21547                  21499685.7734
        49.5004         38.0004
  24491761.4404    -260255.54749   -895369.47746                  24491761.5664
        43.2504         21.0004
  21563439.6704   -9675176.41849  -7482576.79347                  21563438.2364
        50.2504         38.0004
  20192623.9674   -7311269.27749  -5655450.94948                  20192622.0684
        50.0004         42.5004
  20803714.4614   -9585601.87949  -7412128.64848                  20803710.2774
        49.7504         39.5004
  23256214.5944   -1334746.96949  -1034954.02747                  23256213.6124
        44.7504         29.5004
  24641503.9164   -3584863.36349  -2784888.06646                  24641503.9794
        43.0004         22.5004
  23150607.3174  -11745554.07849  -9095171.03547                  23150606.3894
        44.0004         28.0004
 04  9 30 17 10  0.0000000  0  8G 1G11G16G20G23G25G 4G13
  21493673.6364   -4630391.37549  -3582989.94947                  21493673.4844
        49.5004         37.7504
  24489991.5414    -269554.43049   -902615.40246                  24489991.6644
        43.5004         20.5004
  21551526.1434   -9737783.26649  -7531361.35247                  21551524.4294
        49.7504         37.5004
  20184082.5284   -7356154.66449  -5690426.58648                  20184080.6334
        50.0004         43.0004
  20790797.9424   -9653478.72749  -7465019.69948                  20790794.0884
        50.0004         39.7504
  23254551.9224   -1343483.81249  -1041761.98847                  23254551.3154
        45.0004         30.5004
  24628836.9724   -3651431.04349  -2836758.99646                  24628836.7464
        42.5004         21.7504
  23134226.6694  -11831635.22749  -9162247.24247                  23134225.5274
        44.7504         26.0004
 04  9 30 17 10 15.0000000  0  8G 1G11G16G20G23G25G 4G13
  21487667.9344   -4661953.19949  -3607583.59047                  21487667.4864
        48.0004         38.0004
  24488217.5314    -278878.02049   -909880.59846                  24488217.2674
        43.2504         20.0004
  21539638.0114   -9800257.05549  -7580042.23447                  21539636.4544
        48.7504         38.0004
  20175566.6694   -7400907.19149  -5725298.68748                  20175564.2524
        50.5004         42.0004
  20777889.0204   -9721315.72749  -7517879.69948                  20777884.9514
        50.2504         39.5004
  23252891.0094   -1352214.24649  -1048564.94947                  23252890.4494
        45.7504         31.2504
  24616191.6214   -3717881.90649  -2888538.92246                  24616191.5924
        42.5004         22.0004
  23117847.0324  -11917710.98449  -9229319.24647                  23117845.7704
        44.5004         27.7504
 04  9 30 17 10 30.0000000  0  8G 1G11G16G20G23G25G 4G13
  21481668.7984   -4693480.34049  -3632150.20747                  21481668.2204
        49.5004         37.5004
  24486438.8894    -288225.67649   -917164.49646                  24486438.8084
        41.2504         19.2504
  21527775.1144   -9862596.38749  -7628618.32847                  21527773.0104
        50.2504         38.2504
  20167075.6164   -7445525.75449  -5760066.41448                  20167073.7624
        50.0004         42.2504
  20764988.0474   -9789111.62549  -7570707.68048                  20764983.9594
        51.0004         40.0004
  23251231.0694   -1360937.10249  -1055362.00447                  23251230.8454
        45.7504         31.0004
  24603568.8614   -3784214.50849  -2940226.68746                  24603568.4034
        43.2504         22.7504
  23101468.2144  -12003780.32049  -9296386.23447                  23101467.6524
        45.0004         27.7504
 04  9 30 17 10 45.0000000  0  8G 1G11G16G20G23G25G 4G13
  21475675.0734   -4724973.56249  -3656690.39147                  21475675.2344
        47.5004         37.0004
  24484654.8864    -297598.57049   -924468.11346                  24484655.3254
        41.0004         17.0004
  21515937.7984   -9924801.89849  -7677090.16447                  21515936.2414
        48.2504         38.5004
  20158610.6014   -7490011.05549  -5794730.28948                  20158608.5134
        50.0004         42.5004
  20752094.4654   -9856867.21149  -7623504.23048                  20752090.5654
        50.2504         39.5004
  23249572.2314   -1369653.38749  -1062153.93447                  23249571.5994
        45.2504         29.5004
  24590968.4574   -3850429.53549  -2991822.81646                  24590968.9194
        42.5004         21.7504
  23085091.5134  -12089843.88349  -9363448.72747                  23085090.9994
        45.5004         28.5004
 04  9 30 17 11  0.0000000  0  8G 1G11G16G20G23G25G 4G13
  21469688.8084   -4756433.25449  -3681204.44947                  21469688.5604
        47.2504         37.5004
  24482866.6094    -306997.36449   -931791.84046                  24482866.4644
        38.0004         17.5004
  21504125.8134   -9986873.89149  -7725457.95747                  21504124.2194
        48.0004         37.5004
  20150170.3964   -7534363.59849  -5829290.71948                  20150168.5534
        50.0004         42.0004
  20739208.5634   -9924582.83249  -7676269.65248                  20739204.8624
        50.0004         40.0004
  23247914.8484   -1378363.71149  -1068941.22747                  23247913.7244
        44.0004         29.2504
  24578390.8024   -3916527.54349  -3043327.77346                  24578390.7274
        43.0004         21.2504
  23068715.2084  -12175902.09849  -9430507.06647                  23068714.2504
        45.2504         27.0004
 04  9 30 17 11 15.0000000  0  8G 1G11G16G20G23G25G 4G13
  21463709.1504   -4787858.67249  -3705691.80147                  21463708.3814
        47.7504         37.5004
  24481073.3994    -316421.60249   -939135.53946                  24481072.6364
        36.0004         17.5004
  21492339.4294  -10048811.62149  -7773721.10947                  21492338.5764
        48.2504         38.0004
  20141756.0614   -7578582.42249  -5863746.95748                  20141754.2284
        50.2504         42.5004
  20726330.3324   -9992257.65249  -7729003.27348                  20726326.6554
        50.5004         40.2504
  23246258.4874   -1387067.47349  -1075723.41447                  23246258.3834
        45.0004         30.7504
  24565834.5444   -3982507.64849  -3094740.83646                  24565834.8204
        43.5004         22.2504
  23052339.9344  -12261954.05549  -9497560.51647                  23052339.0244
        45.5004         28.5004
 04  9 30 17 11 30.0000000  0  8G 1G11G16G20G23G25G 4G13
  21457735.3684   -4819249.87949  -3730152.49247                  21457734.9514
        48.7504         38.0004
  24479274.3374    -325871.77749   -946499.35946                  24479275.0644
        37.0004         17.7504
  21480578.9624  -10110614.96549  -7821879.56647                  21480577.0104
        49.5004         38.0004
  20133366.6324   -7622667.72749  -5898099.15248                  20133364.8864
        50.0004         42.5004
  20713460.1214  -10059891.73449  -7781705.14147                  20713456.1334
        50.0004         39.2504
  23244603.5174   -1395765.10549  -1082500.82447                  23244603.4654
        46.0004         30.5004
  24553301.3744   -4048369.80949  -3146061.99246                  24553301.8264
        43.0004         21.0004
  23035965.8444  -12347999.96949  -9564609.27747                  23035965.0324
        45.7504         28.0004
 04  9 30 17 11 45.0000000  0  8G 1G11G16G20G23G25G 4G13
  21451768.3874   -4850606.14849  -3754585.96547                  21451768.0464
        48.2504         38.0004
  24477471.5754    -335347.34049   -953882.96146                  24477472.4434
        37.2504         17.0004
  21468843.6914  -10172283.11749  -7869932.68047                  21468842.3944
        48.7504         37.5004
  20125003.2124   -7666618.82449  -5932346.77048                  20125001.1054
        50.0004         42.0004
  20700597.8074  -10127484.37149  -7834374.73448                  20700593.7804
        50.5004         40.0004
  23242949.6764   -1404456.11749  -1089273.05147                  23242949.1744
        45.7504         30.2504
  24540791.2734   -4114113.32849  -3197290.72346                  24540790.9094
        43.2504         21.5004
  23019593.6724  -12434039.03549  -9631652.68447                  23019592.5494
        46.0004         27.5004
 04  9 30 17 12  0.0000000  0  8G 1G11G16G20G23G25G 4G13
  21445808.2244   -4881927.71549  -3778992.39547                  21445807.3924
        49.0004         38.0004
  24475664.7274    -344849.16049   -961287.06246                  24475664.3284
        36.5004         17.7504
  21457134.4254  -10233816.24649  -7917880.56647                  21457133.0044
        50.0004         38.2504
  20116665.2244   -7710435.84049  -5966489.89848                  20116663.1564
        50.5004         42.0004
  20687743.2164  -10195035.64849  -7887012.08648                  20687738.9024
        51.0004         39.7504
  23241296.3884   -1413140.96149  -1096040.49247                  23241295.9494
        44.5004         28.7504
  24528302.8364   -4179738.30549  -3248427.06246                  24528302.8084
        42.5004         21.2504
  23003222.1674  -12520071.61749  -9698691.03947                  23003220.9644
        46.2504         27.5004
 04  9 30 17 12 15.0000000  0  8G 1G11G16G20G23G25G 4G13
  21439854.3184   -4913214.50849  -3803371.72747                  21439854.0944
        50.0004         38.0004
  24473850.7574    -354377.41449   -968711.76646                  24473850.7104
        38.5004         18.5004
  21445450.7004  -10295214.16049  -7965723.09047                  21445449.0084
        50.2504         37.7504
  20108352.3074   -7754118.85249  -6000528.62148                  20108350.4324
        50.0004         42.0004
  20674896.3294  -10262545.55149  -7939617.21147                  20674891.8754
        51.0004         39.2504
  23239645.3544   -1421819.81649  -1102803.25847                  23239644.8924
        46.0004         29.0004
  24515837.6024   -4245244.80149  -3299471.07046                  24515838.0124
        43.0004         21.2504
  22986851.4094  -12606097.62949  -9765724.28547                  22986850.8224
        45.0004         27.5004
 04  9 30 17 12 30.0000000  0  8G 1G11G16G20G23G25G 4G13
  21433907.3894   -4944467.38749  -3827724.64147                  21433906.5364
        50.0004         37.5004
  24472032.1624    -363933.15249   -976157.83646                  24472031.7844
        38.2504         20.5004
  21433792.6404  -10356477.41049  -8013460.69547                  21433791.7574
        50.5004         37.7504
  20100065.5334   -7797668.60549  -6034463.50848                  20100063.3214
        50.5004         42.5004
  20662057.3774  -10330014.70349  -7992190.58648                  20662053.1864
        51.2504         39.7504
  23237994.5644   -1430493.75849  -1109562.19147                  23237994.8634
        45.0004         29.7504
  24503394.8824   -4310633.63349  -3350423.40246                  24503394.8644
        43.2504         20.5004
  22970482.4314  -12692117.84449  -9832753.01647                  22970481.0154
        45.5004         26.7504
 04  9 30 17 12 45.0000000  0  8G 1G11G16G20G23G25G 4G13
  21727759.4744   -4975683.02749  -3852048.52747                  21727759.1844
        50.0004         37.2504
  24770001.7354    -373515.02749   -983624.30946                  24770001.5624
        40.5004         22.0004
  21721953.7484  -10417600.78549  -8061089.30147                  21721951.8744
        50.2504         37.5004
  20391596.8234   -7841081.12149  -6068291.44548                  20391594.7374
        50.2504         42.0004
  20949020.0264  -10397437.56649  -8044727.87947                  20949015.7494
        50.7504         39.2504
  23536137.6384   -1439161.21549  -1116316.09847                  23536138.2754
        45.2504         29.0004
  24790767.6354   -4375898.97349  -3401279.52746                  24790766.7754
        41.0004         19.5004
  23253908.3454  -12778125.35949  -9899771.84047                  23253906.6254
        46.0004         28.7504
 04  9 30 17 13  0.0000000  0  8G 1G11G16G20G23G25G 4G13
  21721826.1524   -5006865.55149  -3876346.61347                  21721825.5144
        49.2504         38.2504
  24768173.2074    -383124.41049   -991112.19146                  24768173.1114
        43.2504         22.5004
  21710347.1834  -10478592.23449  -8108615.09047                  21710345.7464
        50.0004         38.0004
  20383360.5614   -7884362.03149  -6102016.84048                  20383358.5914
        50.2504         42.5004
  20936196.6864  -10464822.97749  -8097235.99648                  20936192.4604
        50.2504         40.0004
  23534489.0444   -1447823.37949  -1123065.88747                  23534490.0524
        44.5004         29.2504
  24778369.0064   -4441049.58249  -3452046.23046                  24778368.7494
        41.7504         18.5004
  23237541.6104  -12864131.53549  -9966789.61347                  23237540.7194
        46.0004         29.0004
 04  9 30 17 13 15.0000000  0  8G 1G11G16G20G23G25G 4G13
  21715898.4744   -5038013.32049  -3900617.60947                  21715898.4094
        48.7504         37.7504
  24766339.1154    -392761.68449   -998621.82046                  24766339.5764
        43.2504         22.7504
  21698767.0934  -10539448.09049  -8156035.23447                  21698765.3214
        49.2504         38.2504
  20375149.6854   -7927508.93749  -6135637.80948                  20375147.8784
        50.5004         42.2504
  20923381.5044  -10532166.75049  -8149711.66448                  20923377.4154
        50.5004         39.5004
  23532842.4154   -1456480.35549  -1129811.63347                  23532842.6424
        46.0004         30.2504
  24765994.7464   -4506081.58649  -3502720.53946                  24765994.0964
        40.0004         20.0004
  23221176.7584  -12950131.07849 -10033802.21147                  23221175.6584
        45.7504         27.7504
 04  9 30 17 13 30.0000000  0  8G 1G11G16G20G23G25G 4G13
  21709978.1284   -5069126.90649  -3924861.98047                  21709977.6124
        47.2504         37.7504
  24764499.9694    -402427.71549  -1006153.83646                  24764500.1984
        43.5004         25.2504
  21687212.2754  -10600168.81249  -8203350.08247                  21687210.3304
        49.2504         38.0004
  20366964.8824   -7970522.48849  -6169154.86348                  20366962.4414
        50.0004         41.2504
  20910574.4824  -10599469.55549  -8202155.40248                  20910570.2304
        50.5004         40.0004
  23531196.3414   -1465133.08649  -1136554.03947                  23531196.1304
        46.5004         31.5004
  24753641.9274   -4570995.44549  -3553302.78946                  24753641.1164
        39.0004         18.2504
  23204812.5114  -13036124.63749 -10100810.16447                  23204810.9344
        45.7504         27.0004
 04  9 30 17 13 45.0000000  0  8G 1G11G16G20G23G25G 4G13
  21704063.9194   -5100205.54749  -3949079.10947                  21704063.2654
        45.5004         37.5004
  24762655.3284    -412122.01249  -1013707.89846                  24762655.4934
        44.5004         25.0004
  21675683.3254  -10660753.56649  -8250558.98047                  21675681.3134
        45.7504         38.0004
  20358804.9974   -8013401.92249  -6202567.41848                  20358803.0484
        50.0004         41.7504
  20897774.9844  -10666730.43749  -8254566.48448                  20897771.3704
        50.7504         40.0004
  23529549.8294   -1473780.95349  -1143292.64847                  23529550.2614
        47.2504         29.5004
  24741311.0744   -4635790.34849  -3603792.28146                  24741311.0674
        37.7504         17.7504
  23188449.6954  -13122111.53149 -10167812.95347                  23188447.7964
        47.0004         28.0004
 04  9 30 17 14  0.0000000  0  8G 1G11G16G20G23G25G 4G13
  21698156.3924   -5131248.75849  -3973268.64847                  21698155.9424
        48.2504         37.5004
  24760805.2744    -421844.50449  -1021283.91846                  24760805.5524
        44.0004         25.0004
  21664180.2454  -10721201.67249  -8297661.41047                  21664178.6004
        48.7504         38.0004
  20350670.8474   -8056146.81649  -6235875.13348                  20350669.0534
        50.0004         41.7504
  20884984.0454  -10733948.84849  -8306944.46148                  20884979.8964
        51.0004         40.0004
  23527904.9974   -1482423.71549  -1150027.28947                  23527904.5044
        44.5004         28.0004
  24729004.5964   -4700465.94149  -3654188.85946                  24729004.1694
        37.0004         17.5004
  23172088.9124  -13208091.12949 -10234810.02747                  23172087.5614
        46.2504         28.0004
 04  9 30 17 14 15.0000000  0  8G 1G11G16G20G23G25G 4G13
  21692255.7424   -5162257.44949  -3997431.28147                  21692255.2024
        47.5004         37.0004
  24758949.1034    -431596.67649  -1028883.05947                  24758949.6664
        44.0004         26.5004
  21652703.3854  -10781514.09049  -8344658.07847                  21652701.6664
        49.2504         38.2504
  20342562.4764   -8098758.07449  -6269078.72348                  20342560.3184
        50.2504         42.2504
  20872200.7134  -10801125.79749  -8359290.14148                  20872196.4724
        50.7504         40.2504
  23526261.3224   -1491062.44149  -1156758.78547                  23526259.9744
        44.5004         27.2504
  24716719.0414   -4765023.05549  -3704493.08646                  24716719.7464
        36.5004         18.2504
  23155728.1854  -13294064.31249 -10301802.09447                  23155726.9254
        45.5004         27.2504
 04  9 30 17 14 30.0000000  0  8G 1G11G16G20G23G25G 4G13
  21686361.7274   -5193230.85949  -4021566.41847                  21686361.0584
        48.5004         37.2504
  24757088.3184    -441377.55549  -1036504.59847                  24757088.8594
        44.5004         25.7504
  21641252.4014  -10841689.89149  -8391548.31647                  21641250.6784
        50.0004         39.0004
  20334479.4944   -8141234.86349  -6302177.53148                  20334477.1424
        50.2504         41.7504
  20859425.2334  -10868260.27349  -8411602.72748                  20859420.9564
        51.0004         40.0004
  23524619.3804   -1499696.57049  -1163486.70747                  23524617.8724
        46.7504         29.5004
  24704457.0274   -4829460.86349  -3754704.33246                  24704457.3194
        37.7504         19.0004
  23139369.3244  -13380030.25049 -10368788.52047                  23139367.6514
        45.0004         27.5004
 04  9 30 17 14 45.0000000  0  8G 1G11G16G20G23G25G 4G13
  21680474.3134   -5224169.52749  -4045674.48847                  21680473.5084
        49.5004         37.5004
  24755221.1304    -451188.24249  -1044149.34046                  24755221.6114
        45.0004         25.5004
  21629827.2704  -10901729.44549  -8438332.38347                  21629825.7414
        50.7504         38.0004
  20326421.7224   -8183577.82449  -6335172.05148                  20326419.6074
        49.5004         42.0004
  20846657.9654  -10935353.00449  -8463882.76648                  20846653.5654
        50.5004         40.0004
  23522976.2324   -1508326.89849  -1170211.66447                  23522976.1574
        46.5004         31.2504
  24692217.9824   -4893779.87949  -3804823.07846                  24692217.7414
        39.0004         20.0004
  23123011.8124  -13465989.58649 -10435769.81647                  23123009.4554
        46.7504         27.5004
 04  9 30 17 15  0.0000000  0  8G 1G11G16G20G23G25G 4G13
  21674593.4604   -5255073.43449  -4069755.46547                  21674592.9214
        49.5004         37.5004
  24753348.8434    -461029.08249  -1051817.57446                  24753349.1614
        44.2504         25.2504
  21618427.8704  -10961632.71549  -8485010.23847                  21618426.3404
        50.2504         38.0004
  20318389.7814   -8225786.92249  -6368062.26648                  20318387.7074
        50.0004         42.5004
  20833898.7364  -11002403.88349  -8516130.20748                  20833894.2474
        50.5004         39.5004
  23521334.7884   -1516953.73449  -1176933.91047                  23521335.0964
        47.2504         30.7504
  24680000.4614   -4957980.04349  -3854849.18746                  24680001.3844
        38.5004         19.0004
  23106656.0794  -13551942.28949 -10502745.96547                  23106653.7904
        46.2504         28.2504
 04  9 30 17 15 15.0000000  0  8G 1G11G16G20G23G25G 4G13
  21668719.4824   -5285941.60549  -4093808.60547                  21668718.9304
        49.7504         37.2504
  24751470.4924    -470899.59449  -1059508.94546                  24751470.7124
        44.7504         25.5004
  21607054.9144  -11021398.80949  -8531581.21947                  21607053.0654
        51.2504         38.2504
  20310383.1744   -8267861.37149  -6400847.55548                  20310381.0654
        50.0004         42.0004
  20821147.6794  -11069411.83249  -8568344.19947                  20821142.9124
        50.2504         39.2504
  23519694.1544   -1525576.31249  -1183652.84447                  23519694.2664
        46.2504         30.2504
  24667806.6154   -5022060.47349  -3904781.95746                  24667807.1294
        38.5004         20.0004
  23090300.9534  -13637887.51649 -10569716.26647                  23090299.8374
        45.7504         28.7504
 04  9 30 17 15 30.0000000  0  8G 1G11G16G20G23G25G 4G13
  21662852.5304   -5316774.00849  -4117833.86747                  21662851.5094
        51.0004         37.2504
  24749586.2304    -480800.05149  -1067223.64546                  24749586.7374
        43.7504         23.2504
  21595708.0234  -11081027.41449  -8578045.06247                  21595706.2594
        51.0004         38.7504
  20302402.2384   -8309800.93749  -6433527.75048                  20302400.3174
        49.0004         42.0004
  20808404.2524  -11136376.69549  -8620524.60948                  20808400.0404
        50.5004         39.7504
  23518054.3894   -1534194.59449  -1190368.42247                  23518054.1414
        47.0004         30.5004
  24655635.3404   -5086021.11349  -3954621.39846                  24655635.4794
        39.5004         22.0004
  23073947.4854  -13723825.16449 -10636680.64147                  23073946.2834
        44.5004         29.2504
 04  9 30 17 15 45.0000000  0  8G 1G11G16G20G23G25G 4G13
  21656991.5714   -5347570.92649  -4141831.47747                  21656991.2484
        49.5004         37.2504
  24747696.9454    -490730.85249  -1074961.97346                  24747696.9264
        42.5004         23.0004
  21584387.2894  -11140518.72749  -8624401.93047                  21584385.3294
        50.5004         38.2504
  20294447.2064   -8351606.05149  -6466103.17248                  20294445.3734
        50.0004         42.5004
  20795669.5574  -11203298.68049  -8672671.60248                  20795665.2164
        51.0004         40.0004
  23516414.4324   -1542808.97749  -1197080.93747                  23516414.3314
        46.2504         29.0004
  24643487.7004   -5149861.94949  -4004367.50046                  24643487.3024
        41.0004         23.5004
  23057595.4024  -13809755.39849 -10703639.27747                  23057593.3724
        44.7504         27.7504
 04  9 30 17 16  0.0000000  0  7G 1G16G20G23G25G 4G13
  21651138.0784   -5378332.06249  -4165801.21547                  21651137.6474
        49.5004         37.2504
  21573092.1684  -11199872.42249  -8670651.54747                  21573090.8654
        51.0004         38.0004
  20286517.3174   -8393276.52049  -6498573.67248                  20286515.3174
        50.0004         42.2504
  20782942.9404  -11270177.58649  -8724785.03948                  20782938.6144
        51.0004         40.0004
  23514775.4304   -1551419.66449  -1203790.60247                  23514774.6194
        44.2504         26.0004
  24631361.1844   -5213583.12149  -4054020.38346                  24631361.4424
        41.0004         23.2504
  23041244.7344  -13895678.06649 -10770591.98847                  23041243.3104
        44.2504         27.2504
 04  9 30 17 16 15.0000000  0  7G 1G16G20G23G25G 4G13
  21645291.6334   -5409056.53949  -4189742.37947                  21645291.0234
        50.0004         37.2504
  21561824.1374  -11259087.53149  -8716793.18747                  21561822.5254
        50.7504         38.0004
  20278613.7264   -8434811.41449  -6530938.53548                  20278611.4624
        50.2504         43.0004
  20770225.0284  -11337012.37949  -8776864.09448                  20770221.0874
        50.7504         40.0004
  23513138.4714   -1560025.90649  -1210496.81247                  23513136.6884
        44.5004         27.5004
  24619259.0274   -5277183.50849  -4103579.12146                  24619258.4864
        41.0004         22.7504
  23024895.1784  -13981592.26649 -10837538.09047                  23024895.0434
        43.0004         26.5004
 04  9 30 17 16 30.0000000  0  7G 1G16G20G23G25G 4G13
  21639451.6124   -5439745.55149  -4213655.91047                  21639450.8874
        50.2504         36.5004
  21550581.9974  -11318165.26249  -8762827.78147                  21550580.1784
        51.0004         38.5004
  20270735.4994   -8476212.06249  -6563198.78948                  20270733.2704
        50.2504         42.5004
  20757514.6324  -11403804.32849  -8828909.77348                  20757510.9424
        51.2504         40.5004
  23511502.4204   -1568629.32849  -1217200.80147                  23511500.3434
        46.7504         29.5004
  24607178.5954   -5340664.33649  -4153044.70746                  24607178.2974
        40.0004         22.5004
  23008547.7904  -14067499.18449 -10904478.50847                  23008547.8694
        44.0004         27.7504
 04  9 30 17 16 45.0000000  0  7G 1G16G20G23G25G 4G13
  21633618.4494   -5470397.81249  -4237540.80147                  21633618.1184
        49.7504         36.5004
  21539366.0694  -11377104.15649  -8808754.17247                  21539364.3884
        50.5004         37.7504
  20262882.9444   -8517477.08649  -6595353.35948                  20262880.9144
        49.5004         42.5004
  20744813.1924  -11470552.09449  -8880921.01248                  20744808.9724
        50.5004         40.5004
  23509865.8144   -1577228.77749  -1223901.68047                  23509865.0094
        47.2504         31.0004
  24595121.7514   -5404024.23049  -4202416.03146                  24595121.4724
        40.0004         24.0004
  22992202.4324  -14153397.47349 -10971412.23847                  22992201.1144
        42.5004         27.5004
 04  9 30 17 17  0.0000000  0  7G 1G16G20G23G25G 4G13
  21627792.6644   -5501012.58249  -4261396.48047                  21627792.2964
        50.0004         36.5004
  21528176.9604  -11435903.45349  -8854571.81247                  21528175.7044
        51.0004         38.0004
  20255056.1594   -8558605.85549  -6627401.76248                  20255054.1634
        50.0004         42.0004
  20732119.7894  -11537254.83649  -8932897.18048                  20732115.6164
        50.7504         40.2504
  23508230.0084   -1585823.69149  -1230599.04347                  23508229.4634
        47.0004         31.2504
  24583087.7284   -5467262.45349  -4251692.56246                  24583088.0994
        40.5004         22.5004
  22975857.7604  -14239286.37549 -11038338.65646                  22975856.8074
        42.2504         24.7504
 04  9 30 17 17 15.0000000  0  7G 1G16G20G23G25G 4G13
  21621974.3634   -5531589.21949  -4285222.44547                  21621973.4724
        49.7504         37.5004
  21517014.4844  -11494562.48449  -8900280.14147                  21517013.2464
        50.5004         38.0004
  20247255.6474   -8599597.71949  -6659343.48848                  20247253.8574
        49.0004         42.7504
  20719435.4914  -11603911.89549  -8984837.73848                  20719431.2784
        50.7504         40.0004
  23506594.7744   -1594413.56249  -1237292.48847                  23506595.0474
        45.5004         29.5004
  24571077.5664   -5530378.39849  -4300873.82046                  24571077.6184
        41.2504         22.7504
  22959515.5894  -14325165.30949 -11105257.25847                  22959514.4254
        43.2504         28.5004
 04  9 30 17 17 30.0000000  0  7G 1G16G20G23G25G 4G13
  21616163.1974   -5562127.92249  -4309018.85247                  21616162.3654
        49.5004         37.2504
  21505878.8554  -11553081.29749  -8945879.21147                  21505877.0294
        50.5004         38.2504
  20239481.3064   -8640453.05149  -6691178.82448                  20239479.4304
        49.5004         42.0004
  20706759.7604  -11670523.44149  -9036742.84848                  20706755.2004
        51.2504         40.0004
  23504960.5464   -1602998.84449  -1243982.35547                  23504960.8554
        45.2504         29.0004
  24559089.9494   -5593372.43449  -4349960.07846                  24559090.5244
        42.0004         24.0004
  22943175.2274  -14411034.34849 -11172168.18047                  22943174.5464
        43.0004         29.0004
 04  9 30 17 17 45.0000000  0  7G 1G16G20G23G25G 4G13
  21610359.3424   -5592628.13749  -4332785.26247                  21610358.3744
        49.0004         37.7504
  21494769.9504  -11611459.35249  -8991368.59447                  21494768.1944
        49.7504         38.0004
  20231732.9154   -8681171.23849  -6722907.28948                  20231731.1224
        48.7504         42.2504
  20694092.6034  -11737088.89549  -9088612.02748                  20694088.3374
        51.2504         40.5004
  23503328.0874   -1611579.12949  -1250668.34847                  23503328.1954
        44.0004         29.0004
  24547125.5794   -5656243.91049  -4398950.84046                  24547126.4254
        42.5004         22.2504
  22926837.1734  -14496892.96949 -11239070.98447                  22926836.1934
        42.7504         28.5004
 04  9 30 17 18  0.0000000  0  7G 1G16G20G23G25G 4G13
  21604562.2754   -5623091.57049  -4356523.02047                  21604561.6274
        49.5004         37.5004
  21483687.1304  -11669698.15649  -9036749.47347                  21483686.0564
        50.5004         38.5004
  20224010.1234   -8721754.06649  -6754530.27748                  20224008.4794
        49.0004         42.0004
  20681434.1134  -11803609.84849  -9140446.54348                  20681429.6104
        50.7504         40.2504
  23501696.6814   -1620156.43049  -1257352.00847                  23501696.1574
        45.0004         28.5004
  24535184.6664   -5718994.34849  -4447847.28546                  24535184.9674
        42.0004         22.5004
  22910500.6994  -14582743.07449 -11305967.16447                  22910499.2304
        44.0004         29.2504
 04  9 30 17 18 15.0000000  0  8G 1G27G16G20G23G25G 4G13
  21598772.3664   -5653517.55549  -4380231.60247                  21598771.4364
        49.2504         38.0004
  24637214.2784     -96015.62958    -63577.30956                  24637215.8474
        35.5004         19.2504
  21472631.4684  -11727797.14549  -9082021.41047                  21472629.8674
        50.2504         37.7504
  20216313.6364   -8762200.85949  -6786047.27348                  20216311.5684
        49.5004         42.0004
  20668784.3474  -11870085.49649  -9192245.74248                  20668780.3914
        50.7504         40.0004
  23500065.1234   -1628730.25849  -1264032.94947                  23500064.7944
        45.7504         29.5004
  24523266.6864   -5781623.12949  -4496648.96146                  24523266.3444
        42.5004         22.5004
  22894165.7814  -14668583.90649 -11372856.12147                  22894164.5654
        45.0004         29.0004
 04  9 30 17 18 30.0000000  0  8G 1G27G16G20G23G25G 4G13
  21592989.4694   -5683905.25849  -4403910.34047                  21592989.1294
        49.7504         37.7504
  24619897.7664    -187013.00848   -134484.36746                  24619898.4124
        35.7504         17.7504
  21461602.4864  -11785755.32849  -9127183.62547                  21461600.5864
        49.7504         38.2504
  20208642.9014   -8802510.92649  -6817457.72348                  20208641.0294
        50.2504         41.7504
  20656143.1384  -11936515.02749  -9244009.01648                  20656138.9654
        51.5004         40.7504
  23498434.2474   -1637299.99249  -1270710.69547                  23498432.9534
        45.7504         29.0004
  24511371.6564   -5844129.64149  -4545355.29746                  24511372.3254
        41.2504         21.2504
  22877832.6234  -14754414.63349 -11439737.18447                  22877832.3224
        46.2504         30.0004
 04  9 30 17 18 45.0000000  0  8G 1G27G16G20G23G25G 4G13
  21587214.0494   -5714256.43449  -4427560.62947                  21587213.4904
        50.0004         38.0004
  24602588.0404    -277976.74259   -205365.07056                  24602588.7944
        36.7504         18.5004
  21450599.9424  -11843574.35549  -9172237.40647                  21450598.4524
        50.5004         38.2504
  20200997.7794   -8842685.98849  -6848762.97348                  20200995.7074
        50.0004         41.7504
  20643510.6274  -12002900.19549  -9295737.71148                  20643506.2574
        50.7504         40.7504
  23496804.0274   -1645867.47349  -1277386.66847                  23496802.3404
        46.0004         29.0004
  24499500.8774   -5906515.50849  -4593967.65646                  24499500.8154
        42.2504         21.2504
  22861501.6334  -14840236.87549 -11506611.63347                  22861500.5784
        45.0004         30.5004
 04  9 30 17 19  0.0000000  0  8G 1G27G16G20G23G25G 4G13
  21581445.1944   -5744572.75849  -4451183.75047                  21581444.7024
        50.2504         37.0004
  24585284.8444    -368908.44149   -276220.96946                  24585283.7514
        36.7504         17.7504
  21439623.5624  -11901255.97749  -9217184.10947                  21439622.0784
        50.5004         37.7504
  20193378.0574   -8882727.77049  -6879964.37148                  20193376.2414
        50.5004         41.7504
  20630886.0644  -12069242.62949  -9347433.10948                  20630882.0554
        51.0004         40.7504
  23495173.0964   -1654434.77049  -1284062.49247                  23495172.2884
        45.7504         28.2504
  24487651.3114   -5968782.26249  -4642487.20346                  24487652.2684
        41.2504         21.2504
  22845171.3354  -14926052.35949 -11573480.84447                  22845170.0694
        46.2504         31.0004
 04  9 30 17 19 15.0000000  0  8G 1G27G16G20G23G25G 4G13
  21575682.8054   -5774853.93049  -4474779.47747                  21575682.0824
        50.2504         36.7504
  24567986.7314    -459807.84449   -347051.62546                  24567986.6844
        37.0004         18.2504
  21428673.1954  -11958799.84849  -9262023.48847                  21428671.6464
        51.2504         38.0004
  20185783.8454   -8922636.08649  -6911061.76248                  20185782.0184
        50.5004         42.2504
  20618269.6234  -12135541.91449  -9399094.89148                  20618265.4144
        50.5004         40.2504
  23493542.8664   -1663001.70749  -1290738.08647                  23493542.5484
        44.5004         28.0004
  24475825.4344   -6030929.85949  -4690913.90646                  24475825.8134
        42.0004         21.2504
  22828842.2954  -15011860.78149 -11640344.52747                  22828841.1544
        46.5004         30.5004
 04  9 30 17 19 30.0000000  0  8G 1G27G16G20G23G25G 4G13
  21569927.0904   -5805099.73849  -4498347.65647                  21569926.4754
        50.2504         37.2504
  24550695.5624    -550674.53949   -417856.83646                  24550695.7654
        37.7504         18.2504
  21417749.1264  -12016205.53149  -9306755.18447                  21417747.5404
        50.7504         37.5004
  20178214.9264   -8962410.76249  -6942055.02748                  20178212.8664
        50.0004         42.2504
  20605661.5654  -12201797.78549  -9450722.84048                  20605657.6584
        50.5004         40.5004
  23491912.6594   -1671568.23849  -1297413.35947                  23491913.1654
        43.7504         28.7504
  24464022.3954   -6092957.96149  -4739247.45746                  24464022.1114
        43.0004         21.7504
  22812515.0664  -15097661.89149 -11707202.53147                  22812513.9264
        46.5004         30.0004
 04  9 30 17 19 45.0000000  0  8G 1G27G16G20G23G25G 4G13
  21564178.3064   -5835309.60949  -4521887.84047                  21564177.8544
        50.0004         37.2504
  24533410.5344    -641508.09849   -488636.19946                  24533410.7074
        38.2504         19.0004
  21406851.7034  -12073472.49649  -9351378.78547                  21406849.8714
        51.0004         38.2504
  20170671.3614   -9002051.28149  -6972943.75448                  20170669.6704
        49.7504         42.0004
  20593061.8374  -12268009.67649  -9502316.51648                  20593057.7054
        50.7504         40.2504
  23490282.8064   -1680134.15649  -1304088.15247                  23490282.9344
        44.7504         30.0004
  24452241.2244   -6154866.06649  -4787487.53946                  24452241.4264
        42.5004         21.7504
  22796188.8854  -15183455.21949 -11774054.45747                  22796188.2824
        47.2504         30.5004
 04  9 30 17 20  0.0000000  0  8G 1G27G16G20G23G25G 4G13
  21558436.4254   -5865484.15649  -4545400.49247                  21558435.8304
        50.5004         37.0004
  24516131.2544    -732309.03549   -559390.12946                  24516132.3004
        38.2504         21.2504
  21395980.8624  -12130601.30949  -9395894.73847                  21395978.9054
        51.2504         38.2504
  20163153.8384   -9041558.34049  -7003728.48048                  20163151.8404
        49.7504         42.2504
  20580470.1194  -12334178.17649  -9553876.37948                  20580466.0684
        50.2504         40.0004
  23488653.1204   -1688700.24249  -1310763.06647                  23488652.6754
        44.7504         30.0004
  24440482.7914   -6216654.80149  -4835634.60546                  24440482.8814
        42.0004         21.0004
  22779864.5344  -15269241.33649 -11840900.77347                  22779862.9584
        46.0004         29.7504
 04  9 30 17 20 15.0000000  0  8G 1G27G16G20G23G25G 4G13
  21852494.0734   -5895620.58249  -4568883.44547                  21852493.7194
        49.7504         37.5004
  24798652.4304    -823070.51649   -630113.31246                  24798653.5624
        39.5004         22.2504
  21684929.0284  -12187587.23849  -9440299.35247                  21684927.2054
        50.0004         37.7504
  20455453.9704   -9080928.59849  -7034406.61348                  20455452.2854
        49.7504         42.0004
  20867680.5664  -12400297.94149  -9605398.27748                  20867676.0264
        50.0004         40.0004
  23786816.1684   -1697265.31249  -1317437.17247                  23786815.6564
        44.7504         29.5004
  24728541.1404   -6278319.19549  -4883684.82846                  24728541.2084
        42.2504         21.0004
  23063334.9104  -15355013.68749 -11907736.36347                  23063333.2544
        46.0004         29.5004
 04  9 30 17 20 30.0000000  0  8G 1G27G16G20G23G25G 4G13
  21846765.9624   -5925722.61749  -4592339.59447                  21846765.4584
        50.2504         37.0004
  24781386.4404    -913804.20349   -700814.85546                  24781387.3484
        39.0004         22.2504
  21674110.4164  -12244437.63349  -9484598.35947                  21674108.7614
        50.2504         37.5004
  20447987.1804   -9120167.03549  -7064982.03148                  20447985.3664
        49.5004         42.0004
  20855106.1084  -12466377.42249  -9656888.78148                  20855101.2884
        50.5004         40.0004
  23785185.5944   -1705830.38349  -1324111.26247                  23785185.6214
        43.7504         29.0004
  24716828.9244   -6339867.32049  -4931644.40246                  24716829.5284
        41.5004         19.2504
  23047013.0924  -15440783.35249 -11974569.85547                  23047011.8014
        45.5004         27.7504
 04  9 30 17 20 45.0000000  0  8G 1G27G16G20G23G25G 4G13
  21841044.8094   -5955787.44549  -4615766.74647                  21841044.6004
        49.7504         37.5004
  24764127.1804   -1004503.41849   -771489.52746                  24764127.5594
        38.7504         23.5004
  21663318.8384  -12301147.91849  -9528788.18047                  21663317.4504
        50.2504         38.0004
  20440546.1084   -9159270.28549  -7095452.10948                  20440544.0504
        49.5004         41.7504
  20842540.3404  -12532411.49249  -9708343.90648                  20842535.8394
        51.0004         40.0004
  23783555.9804   -1714394.48449  -1330784.63347                  23783555.8604
        44.5004         28.5004
  24705139.5514   -6401294.35549  -4979509.63746                  24705139.9604
        41.0004         17.5004
  23030693.3844  -15526543.86749 -12041396.22346                  23030691.4064
        44.2504         25.5004
 04  9 30 17 21  0.0000000  0  8G 1G27G16G20G23G25G 4G13
  21835330.9804   -5985814.60949  -4639164.55547                  21835330.4514
        50.2504         36.7504
  24746874.9524   -1095167.51249   -842136.83246                  24746874.5374
        39.0004         21.5004
  21652554.3524  -12357717.55549  -9572868.41047                  21652552.4104
        50.7504         37.5004
  20433130.8964   -9198237.91449  -7125816.50448                  20433128.9514
        50.0004         42.0004
  20829983.1844  -12598399.53949  -9759763.15648                  20829978.7254
        50.7504         40.5004
  23781927.0074   -1722957.16849  -1337456.90247                  23781926.8254
        44.7504         29.5004
  24693473.9824   -6462599.54349  -5027279.89546                  24693473.6624
        40.7504         19.0004
  23014374.8704  -15612294.75049 -12108215.07847                  23014374.4004
        44.0004         26.0004
 04  9 30 17 21 15.0000000  0  8G 1G27G16G20G23G25G 4G13
  21829623.6384   -6015805.44549  -4662534.04747                  21829623.0334
        50.0004         36.7504
  24729628.7544   -1185797.85249   -912757.85546                  24729628.6504
        38.7504         22.2504
  21641815.9404  -12414147.80149  -9616840.02347                  21641814.0934
        50.5004         38.2504
  20425741.2044   -9237071.31249  -7156076.30148                  20425739.1064
        50.0004         42.0004
  20817434.4174  -12664342.87949  -9811147.57848                  20817430.4304
        50.5004         40.5004
  23780297.1754   -1731519.94549  -1344129.23447                  23780297.3784
        43.0004         29.2504
  24681831.0354   -6523784.30549  -5074956.35546                  24681830.5824
        41.7504         19.2504
  22998059.0354  -15698037.35549 -12175027.45347                  22998057.5744
        42.5004         26.2504
 04  9 30 17 21 30.0000000  0  8G 1G27G16G20G23G25G 4G13
  21823923.6454   -6045760.57849  -4685875.73047                  21823922.7444
        50.0004         37.5004
  24712387.8714   -1276395.00849   -983353.00046                  24712388.2514
        39.7504         21.7504
  21631103.4004  -12470439.19149  -9660703.43747                  21631102.2304
        49.5004         38.7504
  20418376.7904   -9275771.24249  -7186232.10248                  20418374.8794
        50.5004         42.5004
  20804894.4444  -12730242.15649  -9862497.66448                  20804890.4604
        51.0004         41.0004
  23778667.2174   -1740083.89549  -1350802.46947                  23778666.9244
        41.7504         29.0004
  24670210.4794   -6584849.52349  -5122539.64146                  24670210.2554
        40.5004         18.2504
  22981744.1694  -15783772.27749 -12241833.88347                  22981741.8864
        42.2504         26.5004
 04  9 30 17 21 45.0000000  0  8G 1G27G16G20G23G25G 4G13
  21818230.4874   -6075678.32449  -4709188.28547                  21818229.5394
        50.2504         37.2504
  24695153.8764   -1366957.41049  -1053921.08246                  24695154.6414
        39.0004         20.5004
  21620418.7224  -12526590.06249  -9704457.36747                  21620416.6384
        50.2504         38.5004
  20411038.2374   -9314336.16849  -7216282.69948                  20411036.2644
        49.7504         42.0004
  20792362.7744  -12796095.59049  -9913812.02048                  20792359.0364
        50.7504         40.7504
  23777037.8994   -1748647.52349  -1357475.46147                  23777037.1284
        42.0004         28.2504
  24658613.6064   -6645793.53949  -5170028.49646                  24658612.8274
        39.5004         18.2504
  22965431.2244  -15869498.01649 -12308633.15647                  22965428.8754
        44.2504         26.0004
 04  9 30 17 22  0.0000000  0  8G 1G27G16G20G23G25G 4G13
  21812544.1614   -6105559.35949  -4732472.21947                  21812543.7624
        49.7504         37.2504
  24677927.3064   -1457485.47749  -1124462.37146                  24677927.4814
        39.7504         20.0004
  21609760.3094  -12582601.02749  -9748102.26647                  21609758.4394
        50.5004         37.5004
  20403724.9504   -9352766.70349  -7246228.58248                  20403723.4044
        49.5004         41.5004
  20779839.9354  -12861903.73449  -9965091.09048                  20779836.2074
        51.0004         41.0004
  23775408.2584   -1757211.57849  -1364148.78147                  23775407.7394
        43.2504         28.5004
  24647038.4064   -6706616.67649  -5217423.18446                  24647037.9914
        39.5004         17.7504
  22949119.3564  -15955214.99649 -12375425.59047                  22949117.8434
        44.5004         26.2504
 04  9 30 17 22 15.0000000  0  8G 1G27G16G20G23G25G 4G13
  21806864.8214   -6135403.84449  -4755727.68047                  21806864.8414
        49.7504         37.5004
  24660707.1874   -1547979.50449  -1194977.19546                  24660706.4574
        40.5004         20.0004
  21599128.4754  -12638472.24649  -9791638.28147                  21599126.2724
        50.2504         37.5004
  20396437.5374   -9391063.08649  -7276069.93448                  20396435.4174
        49.2504         42.0004
  20767325.5794  -12927666.64549 -10016334.91848                  20767322.0694
        50.7504         41.0004
  23773778.6474   -1765776.37549  -1370822.66447                  23773778.4474
        42.7504         29.0004
  24635487.3534   -6767319.52049  -5264724.07046                  24635487.0094
        38.5004         17.0004
  22932810.8714  -16040923.30949 -12442211.27047                  22932808.8004
        46.2504         28.5004
 04  9 30 17 22 30.0000000  0  8G 1G27G16G20G23G25G 4G13
  21801192.5604   -6165210.57449  -4778953.73447                  21801192.8864
        49.7504         36.7504
  24643492.9054   -1638438.11749  -1265464.43046                  24643492.7794
        41.0004         20.5004
  21588523.0154  -12694202.47749  -9835064.43747                  21588521.4494
        50.2504         38.0004
  20389175.6834   -9429224.23449  -7305805.89848                  20389173.8354
        49.5004         42.0004
  20754820.2184  -12993383.23849 -10067542.65248                  20754816.3144
        51.0004         40.5004
  23772149.3944   -1774341.00449  -1377496.45347                  23772149.6654
        42.5004         29.2504
  24623959.1764   -6827900.67649  -5311930.16446                  24623958.6174
        39.5004         18.5004
  22916502.5854  -16126621.87949 -12508989.37547                  22916500.8384
        46.0004         30.7504
 04  9 30 17 22 45.0000000  0  8G 1G27G16G20G23G25G 4G13
  21795528.0564   -6194980.88349  -4802151.39147                  21795527.5894
        49.7504         37.2504
  24626286.0534   -1728862.77349  -1335925.21546                  24626285.9574
        41.0004         20.5004
  21577944.5774  -12749792.99649  -9878381.73447                  21577943.2904
        50.0004         37.7504
  20381939.2324   -9467251.61349  -7335437.63348                  20381937.6344
        49.7504         41.5004
  20742323.3014  -13059054.85949 -10118715.35248                  20742318.9424
        51.2504         40.5004
  23770519.2414   -1782906.93449  -1384171.24647                  23770519.8104
        43.5004         29.0004
  24612454.5704   -6888361.57049  -5359042.59846                  24612452.9464
        40.0004         18.2504
  22900196.3234  -16212312.06249 -12575760.92647                  22900195.7434
        46.7504         31.2504
 04  9 30 17 23  0.0000000  0  8G 1G27G16G20G23G25G 4G13
  21789869.8334   -6224714.07449  -4825320.13347                  21789869.2664
        50.5004         36.5004
  24609085.8694   -1819252.77049  -1406358.98046                  24609085.2454
        40.0004         21.0004
  21567392.8944  -12805243.16449  -9921589.65247                  21567391.4524
        50.0004         38.2504
  20374728.3794   -9505144.56249  -7364964.60548                  20374726.4414
        50.0004         42.2504
  20729835.3764  -13124680.57449 -10169852.27748                  20729830.4964
        51.0004         40.7504
  23768888.7324   -1791473.75049  -1390846.72747                  23768889.0244
        44.5004         27.7504
  24600972.2764   -6948701.67249  -5406060.86346                  24600971.4484
        39.5004         19.5004
  22883891.7584  -16297993.07849 -12642525.34847                  22883891.1524
        46.7504         31.2504
 04  9 30 17 23 15.0000000  0  8G 1G27G16G20G23G25G 4G13
  21784218.4524   -6254410.84449  -4848460.48047                  21784218.2544
        49.7504         37.2504
  24591890.7724   -1909608.79349  -1476766.24646                  24591891.3254
        39.5004         21.0004
  21556867.3884  -12860553.60949  -9964688.70347                  21556866.0274
        50.0004         38.5004
  20367542.9544   -9542903.84449  -7394387.44148                  20367541.3614
        49.7504         41.5004
  20717355.6454  -13190260.99249 -10220953.90248                  20717351.2304
        50.0004         40.5004
  23767258.0864   -1800042.32849  -1397523.57047                  23767257.9704
        43.2504         27.2504
  24589512.8524   -7008921.57849  -5452985.46946                  24589512.3604
        40.0004         18.2504
  22867589.1274  -16383665.68449 -12709283.20347                  22867587.8414
        45.5004         31.0004
 04  9 30 17 23 30.0000000  0  8G 1G27G16G20G23G25G 4G13
  21778574.8154   -6284070.75449  -4871572.12147                  21778574.2644
        50.2504         37.5004
  24574703.3374   -1999930.32049  -1547146.61746                  24574703.9954
        37.7504         20.0004
  21546369.0294  -12915723.77349 -10007678.44947                  21546367.2594
        50.0004         38.0004
  20360383.2664   -9580529.11749  -7423705.84048                  20360381.4784
        49.7504         42.0004
  20704884.7324  -13255795.73049 -10272019.93048                  20704880.8914
        50.5004         41.0004
  23765627.0404   -1808612.45349  -1404201.59047                  23765626.1894
        43.2504         26.0004
  24578075.4984   -7069020.82449  -5499816.06646                  24578075.5584
        38.5004         17.0004
  22851287.2794  -16469329.31649 -12776034.06647                  22851286.4304
        45.5004         30.5004
 04  9 30 17 23 45.0000000  0  8G 1G27G16G20G23G25G 4G13
  21772937.2064   -6313694.09849  -4894655.26647                  21772937.5904
        50.0004         37.5004
  24557522.0284   -2090217.44549  -1617500.16446                  24557522.7154
        37.0004         20.5004
  21535897.0494  -12970753.97349 -10050559.12547                  21535895.5114
        49.5004         37.7504
  20353248.8554   -9618020.58249  -7452919.97748                  20353246.9004
        50.2504         41.7504
  20692422.6254  -13321284.95349 -10323050.48848                  20692418.6544
        50.7504         40.2504
  23763996.3544   -1817184.28149  -1410880.97747                  23763995.5204
        44.0004         27.2504
  24566661.7684   -7128999.78549  -5546552.92246                  24566661.1814
        39.0004         17.5004
  22834987.5684  -16554984.26249 -12842778.16047                  22834986.9294
        42.7504         30.2504
 04  9 30 17 24  0.0000000  0  8G 1G27G16G20G23G25G 4G13
  21767307.1954   -6343280.68049  -4917709.76647                  21767307.3274
        49.5004         37.2504
  24540347.2184   -2180470.18449  -1687826.92646                  24540347.9054
        37.5004         21.2504
  21525451.8864  -13025643.89849 -10093330.50047                  21525450.5434
        50.7504         38.0004
  20346140.0204   -9655378.29349  -7482029.89548                  20346138.3714
        50.0004         42.0004
  20679969.2434  -13386728.40649 -10374045.37948                  20679965.2244
        51.0004         40.2504
  23762365.0974   -1825758.12949  -1417561.92647                  23762365.0724
        45.2504         28.5004
  24555271.7254   -7188858.26249  -5593195.90246                  24555270.8134
        40.7504         17.7504
  22818689.2714  -16640630.41449 -12909515.38747                  22818688.0034
        44.5004         29.0004
 04  9 30 17 24 15.0000000  0  8G 1G27G16G20G23G25G 4G13
  21761684.4484   -6372830.55149  -4940735.66047                  21761683.6484
        49.2504         37.0004
  24523179.9274   -2270688.45349  -1758126.87146                  24523180.6074
        39.0004         21.2504
  21515033.3074  -13080393.68749 -10135992.68047                  21515031.8544
        50.0004         37.7504
  20339056.3804   -9692602.36349  -7511035.67248                  20339054.5834
        50.2504         42.0004
  20667524.2894  -13452126.12149 -10425004.63748                  20667520.5304
        51.0004         40.2504
  23760732.6924   -1834334.28949  -1424244.68047                  23760733.0244
        45.0004         30.5004
  24543903.3114   -7248596.44949  -5639745.13346                  24543903.0464
        39.0004         19.0004
  22802392.6594  -16726267.67249 -12976245.68747                  22802392.4064
        44.0004         29.0004
 04  9 30 17 24 30.0000000  0  8G 1G27G16G20G23G25G 4G13
  21756068.3734   -6402342.79749  -4963732.23447                  21756067.7714
        49.5004         36.5004
  24506018.4214   -2360871.30549  -1828399.21946                  24506018.9064
        41.0004         20.0004
  21504641.7734  -13135002.41049 -10178544.93047                  21504639.8744
        50.2504         38.2504
  20331998.5624   -9729691.92249  -7539936.63348                  20331996.9514
        50.5004         42.0004
  20655088.2784  -13517477.16449 -10475927.53148                  20655084.7184
        51.5004         40.0004
  23759100.7994   -1842912.00849  -1430928.64547                  23759101.0604
        45.5004         29.7504
  24532558.9104   -7308213.35949  -5686199.87546                  24532558.9794
        38.5004         19.2504
  22786098.9814  -16811895.10949 -13042968.34847                  22786098.2564
        45.2504         31.0004
 04  9 30 17 24 45.0000000  0  8G 1G27G16G20G23G25G 4G13
  21750459.1734   -6431817.78149  -4986699.77347                  21750458.7834
        49.0004         37.0004
  24488863.7754   -2451019.08649  -1898644.23046                  24488864.7054
        39.5004         20.0004
  21494276.8954  -13189470.37149 -10220987.50447                  21494274.8604
        50.2504         38.0004
  20324966.3224   -9766647.49649  -7568733.19948                  20324964.2354
        50.2504         41.7504
  20642661.3564  -13582781.82049 -10526814.27748                  20642657.4804
        51.0004         40.5004
  23757467.6354   -1851491.86749  -1437614.28547                  23757468.6774
        44.0004         29.5004
  24521237.5024   -7367709.53949  -5732560.53946                  24521236.4264
        40.7504         19.2504
  22769806.9174  -16897513.28949 -13109683.79347                  22769805.6634
        46.0004         30.0004
 04  9 30 17 25  0.0000000  0  8G 1G27G16G20G23G25G 4G13
  21744857.6684   -6461255.46949  -5009638.25047                  21744857.1924
        49.2504         37.0004
  24471715.5494   -2541131.86349  -1968862.02046                  24471716.1864
        39.0004         18.2504
  21483938.7724  -13243797.57049 -10263320.38347                  21483936.8124
        50.2504         38.0004
  20317959.5454   -9803469.10949  -7597425.37148                  20317957.5934
        50.7504         42.0004
  20630243.3954  -13648040.02349 -10577664.82848                  20630238.8704
        51.5004         40.5004
  23755834.1894   -1860074.04349  -1444301.71947                  23755834.7924
        42.2504         27.7504
  24509938.7014   -7427084.85249  -5778827.03946                  24509937.2284
        39.5004         18.5004
  22753516.0994  -16983122.14849 -13176391.99247                  22753513.7524
        46.2504         30.2504
 04  9 30 17 25 15.0000000  0  8G 1G27G16G20G23G25G 4G13
  21739263.1374   -6490655.97349  -5032547.74647                  21739262.6124
        49.7504         37.0004
  24454574.8404   -2631209.67249  -2039052.48446                  24454574.4674
        40.0004         19.0004
  21473627.5274  -13297984.00449 -10305543.57847                  21473625.8014
        50.2504         38.0004
  20310977.7784   -9840156.94549  -7626013.29748                  20310976.0364
        50.2504         42.7504
  20617833.7604  -13713251.75449 -10628479.16448                  20617829.4964
        51.0004         40.5004
  23754200.6754   -1868658.84049  -1450991.21547                  23754201.1534
        43.0004         28.2504
  24498663.1844   -7486339.52749  -5824999.53546                  24498661.9194
        40.2504         17.5004
  22737226.9134  -17068721.45349 -13243092.75047                  22737225.5014
        47.0004         29.5004
 04  9 30 17 25 30.0000000  0  8G 1G27G16G20G23G25G 4G13
  21733675.3444   -6520019.76649  -5055428.64847                  21733675.2264
        49.5004         37.2504
  24437440.4884   -2721253.00849  -2109216.09846                  24437439.8914
        40.5004         19.0004
  21463342.6834  -13352030.18749 -10347657.49247                  21463340.8514
        50.0004         38.5004
  20304021.7004   -9876711.56649  -7654497.42648                  20304019.8644
        50.5004         42.5004
  20605432.9854  -13778417.50849 -10679257.67248                  20605428.8044
        50.7504         40.5004
  23752566.2774   -1877247.03549  -1457683.34447                  23752567.0134
        40.0004         26.7504
  24487410.2824   -7545473.98849  -5871078.35546                  24487409.0224
        40.5004         17.5004
  22720939.4894  -17154311.90249 -13309786.60247                  22720937.6874
        47.0004         28.5004
 04  9 30 17 25 45.0000000  0  8G 1G27G16G20G23G25G 4G13
  21728094.6374   -6549345.83249  -5078280.13747                  21728094.2124
        50.0004         36.7504
  24420312.1854   -2811260.66449  -2179351.91446                  24420312.3604
        40.2504         22.0004
  21453085.0684  -13405935.15649 -10389661.36347                  21453083.0284
        50.0004         38.5004
  20297091.4564   -9913132.11349  -7682877.08648                  20297089.4324
        50.5004         42.2504
  20593041.4794  -13843536.27749 -10729999.56648                  20593036.7734
        50.2504         40.7504
  23750931.9314   -1885837.64549  -1464377.35547                  23750932.4674
        43.0004         27.7504
  24476180.3284   -7604487.51249  -5917062.93046                  24476178.1884
        40.5004         19.0004
  22704654.4574  -17239892.52049 -13376472.81247                  22704652.6064
        47.0004         29.5004
 04  9 30 17 26  0.0000000  0  8G 1G27G16G20G23G25G 4G13
  21722521.3944   -6578633.84849  -5101101.98847                  21722521.5144
        49.7504         36.5004
  24403191.4214   -2901232.42649  -2249459.82446                  24403191.7124
        41.5004         22.5004
  21442854.0454  -13459698.49249 -10431554.87147                  21442852.4834
        50.2504         37.7504
  20290186.2904   -9949418.34049  -7711152.07848                  20290184.0734
        50.5004         41.7504
  20580659.3394  -13908607.53149 -10780704.44148                  20580654.6464
        51.0004         41.0004
  23749296.7914   -1894430.52349  -1471073.15247                  23749297.2514
        43.0004         28.7504
  24464973.5304   -7663379.55549  -5962952.84846                  24464972.0944
        41.7504         18.2504
  22688371.0984  -17325462.82849 -13443150.95747                  22688369.4314
        46.5004         29.5004
 04  9 30 17 26 15.0000000  0  8G 1G27G16G20G23G25G 4G13
  21716955.5254   -6607884.40649  -5123894.65647                  21716954.7344
        49.0004         37.2504
  24386076.0144   -2991168.99249  -2319540.20746                  24386077.8724
        39.2504         22.5004
  21432649.9704  -13513320.90249 -10473338.56647                  21432648.3404
        50.0004         38.0004
  20283306.6224   -9985570.94949  -7739322.94948                  20283304.5774
        49.7504         42.5004
  20568285.3324  -13973631.85549 -10831372.74648                  20568281.3444
        50.7504         41.2504
  23747661.1764   -1903026.57849  -1477771.39547                  23747660.5944
        43.5004         27.2504
  24453789.4034   -7722150.80149  -6008748.65246                  24453788.1364
        40.5004         19.2504
  22672088.8624  -17411023.55949 -13509821.65247                  22672087.7534
        45.5004         29.2504
 04  9 30 17 26 30.0000000  0  8G 1G27G16G20G23G25G 4G13
  21711396.4164   -6637097.80549  -5146658.35547                  21711395.5864
        50.0004         37.7504
  24368968.2324   -3081070.53149  -2389593.34046                  24368969.9314
        38.0004         21.7504
  21422472.7104  -13566802.62149 -10515012.63347                  21422471.4334
        49.5004         38.0004
  20276452.3584  -10021590.39549  -7767390.05548                  20276450.6934
        50.7504         42.0004
  20555920.5444  -14038609.54349 -10882004.70748                  20555916.3344
        50.5004         41.5004
  23746024.7814   -1911626.19549  -1484472.42247                  23746024.2644
        43.5004         27.0004
  24442628.4124   -7780801.71549  -6054450.65646                  24442627.6374
        41.2504         18.5004
  22655808.9244  -17496575.02349 -13576485.10247                  22655808.3614
        46.2504         29.5004
 04  9 30 17 26 45.0000000  0  8G 1G27G16G20G23G25G 4G13
  21705844.0224   -6666273.51649  -5169392.68747                  21705843.9084
        49.2504         37.0004
  24351868.2494   -3170936.49649  -2459618.69946                  24351868.4654
        38.0004         21.2504
  21412322.5674  -13620143.12149 -10556576.65247                  21412320.4724
        49.5004         38.0004
  20269623.6254  -10057476.11349  -7795352.96548                  20269621.7114
        49.5004         42.5004
  20543564.5094  -14103539.96949 -10932599.84848                  20543560.0894
        50.0004         41.0004
  23744387.6564   -1920229.23049  -1491176.10947                  23744387.4224
        43.7504         27.5004
  24431490.8324   -7839331.86349  -6100058.55546                  24431489.6224
        41.7504         19.0004
  22639530.8364  -17582116.57849 -13643140.84447                  22639529.9374
        46.5004         29.0004
 04  9 30 17 27  0.0000000  0  8G 1G27G16G20G23G25G 4G13
  21700299.5244   -6695410.79749  -5192097.08247                  21700299.1824
        50.0004         37.0004
  24334773.9714   -3260766.10549  -2529615.77046                  24334774.8194
        39.5004         21.7504
  21402199.0194  -13673341.56649 -10598029.98847                  21402197.1474
        50.2504         38.0004
  20262820.1854  -10093227.56249  -7823211.24648                  20262818.1584
        49.2504         42.0004
  20531217.7564  -14168422.40249 -10983157.57848                  20531213.9304
        49.7504         41.2504
  23742750.5264   -1928835.13349  -1497882.02747                  23742750.5404
        42.7504         26.2504
  24420375.7234   -7897740.31249  -6145571.60946                  24420375.4474
        41.5004         19.5004
  22623254.7494  -17667647.39849 -13709788.22347                  22623253.7944
        45.7504         29.2504
 04  9 30 17 27 15.0000000  0  8G 1G27G16G20G23G25G 4G13
  21694762.1724   -6724509.96949  -5214771.78147                  21694761.8274
        50.0004         37.5004
  24317687.0084   -3350559.66049  -2599584.76246                  24317686.9744
        41.0004         24.0004
  21392102.7144  -13726398.28149 -10639372.87547                  21392101.0134
        50.0004         37.5004
  20256042.6614  -10128845.03149  -7850965.13348                  20256040.4094
        49.0004         42.5004
  20518879.9174  -14233257.00049 -11033678.03548                  20518876.1984
        49.2504         41.2504
  23741111.4734   -1937444.29349  -1504590.49247                  23741111.9334
        42.5004         27.0004
  24409283.5544   -7956027.57049  -6190990.25846                  24409283.9714
        41.5004         19.0004
  22606980.8294  -17753167.77049 -13776427.46147                  22606979.7114
        45.5004         28.0004
 04  9 30 17 27 30.0000000  0  8G 1G27G16G20G23G25G 4G13
  21689231.9784   -6753571.14549  -5237416.86747                  21689231.9074
        49.5004         37.2504
  24300606.6164   -3440317.19549  -2669525.68046                  24300607.5924
        40.7504         23.0004
  21382033.0544  -13779313.39149 -10680605.42647                  21382031.5814
        50.7504         38.0004
  20249290.1094  -10164328.80949  -7878614.82848                  20249288.2204
        48.7504         42.5004
  20506551.2704  -14298043.77749 -11084161.23848                  20506547.4714
        48.7504         41.0004
  23739472.3354   -1946056.95349  -1511301.67647                  23739473.2244
        42.2504         26.0004
  24398215.2674   -8014193.75449  -6236314.62546                  24398214.6034
        41.7504         17.7504
  22590709.0084  -17838677.83249 -13843058.66447                  22590707.3484
        46.0004         28.5004
 04  9 30 17 27 45.0000000  0  8G 1G27G16G20G23G25G 4G13
  21683708.8984   -6782594.96949  -5260032.85947                  21683708.5974
        49.5004         36.7504
  24283532.3644   -3530039.40249  -2739439.07446                  24283533.8684
        40.7504         23.0004
  21371990.5574  -13832087.55549 -10721728.14147                  21371989.2214
        50.5004         38.0004
  20242563.3374  -10199679.59849  -7906160.90648                  20242561.1424
        47.2504         42.5004
  20494232.0854  -14362783.41849 -11134607.70348                  20494227.7344
        47.0004         41.0004
  23737832.8014   -1954673.90249  -1518016.25047                  23737833.7204
        41.7504         26.7504
  24387169.9364   -8072239.69949  -6281545.30146                  24387168.8484
        42.5004         17.5004
  22574438.5184  -17924178.14149 -13909682.26647                  22574436.9894
        46.0004         28.2504
 04  9 30 17 28  0.0000000  0  8G 1G27G16G20G23G25G 4G13
  21977985.9784   -6811579.42249  -5282618.16047                  21977985.7284
        50.0004         37.0004
  24566259.4494   -3619720.32849  -2809320.28146                  24566260.8154
        39.7504         22.5004
  21661768.1424  -13884717.19149 -10762738.24247                  21661766.7514
        50.5004         38.2504
  20535654.6404  -10234895.12949  -7933601.59048                  20535652.1674
        48.5004         42.2504
  20781714.9964  -14427471.45749 -11185013.96548                  20781710.0894
        48.5004         40.5004
  24035984.4794   -1963294.80949  -1524733.88747                  24035985.8634
        41.2504         26.0004
  24675940.6554   -8130161.48849  -6326679.14146                  24675939.5764
        42.7504         19.5004
  22857964.0374  -18009662.93449 -13976293.79747                  22857962.1744
        47.0004         28.7504
 04  9 30 17 28 15.0000000  0  8G 1G27G16G20G23G25G 4G13
  21972477.2104   -6840527.64549  -5305175.23447                  21972477.0854
        49.7504         37.0004
  24549199.7754   -3709370.96149  -2879177.90246                  24549200.4864
        40.7504         22.2504
  21651779.5954  -13937208.76249 -10803640.76247                  21651777.8414
        50.5004         38.2504
  20528978.2084  -10269979.46549  -7960940.04748                  20528976.1194
        50.0004         42.5004
  20769413.5404  -14492115.64149 -11235386.05948                  20769408.9914
        49.7504         40.5004
  24034343.6154   -1971920.33649  -1531455.11747                  24034343.8044
        43.5004         26.0004
  24664940.7714   -8187966.09449  -6371721.70346                  24664939.9674
        42.2504         19.5004
  22841697.3624  -18095142.85549 -14042901.50847                  22841696.1494
        47.2504         29.2504
 04  9 30 17 28 30.0000000  0  8G 1G27G16G20G23G25G 4G13
  21966975.9424   -6869437.48049  -5327702.39547                  21966975.5574
        49.7504         36.5004
  24532147.6154   -3798985.25049  -2949007.22746                  24532147.5594
        41.0004         22.7504
  21641817.5374  -13989558.24649 -10844432.56247                  21641816.1234
        49.5004         38.5004
  20522327.1844  -10304930.22749  -7988174.41048                  20522325.2034
        48.2504         42.0004
  20757121.6254  -14556711.43749 -11285720.44548                  20757116.7634
        48.2504         40.5004
  24032701.7464   -1980549.81249  -1538179.37546                  24032701.0034
        43.2504         25.5004
  24653964.2184   -8245649.48049  -6416669.82046                  24653963.3074
        42.0004         18.2504
  22825433.3424  -18180612.06649 -14109500.87947                  22825431.8524
        47.0004         30.5004
 04  9 30 17 28 45.0000000  0  8G 1G27G16G20G23G25G 4G13
  21961482.0784   -6898307.65249  -5350198.64847                  21961481.7264
        49.7504         37.0004
  24515101.0284   -3888561.86349  -3018807.18446                  24515101.3284
        40.2504         24.5004
  21631883.0974  -14041764.62549 -10885112.85547                  21631881.6344
        50.0004         38.5004
  20515702.1484  -10339746.27049  -8015303.80548                  20515700.0214
        49.5004         42.5004
  20744838.7464  -14621257.57049 -11336016.12948                  20744834.5134
        50.0004         40.2504
  24031058.9124   -1989182.23449  -1544905.97347                  24031058.4434
        44.5004         25.7504
  24643010.3744   -8303210.45749  -6461522.49646                  24643009.8924
        42.7504         18.2504
  22809171.4944  -18266069.39549 -14176091.01247                  22809169.2064
        47.2504         30.0004
 04  9 30 17 29  0.0000000  0  8G 1G27G16G20G23G25G 4G13
  21955995.9744   -6927138.41849  -5372664.20747                  21955995.3564
        50.2504         36.2504
  24498061.6464   -3978101.02049  -3088577.93746                  24498062.7174
        41.2504         23.0004
  21621975.8224  -14093828.05149 -10925681.75847                  21621974.0954
        50.2504         38.5004
  20509102.2564  -10374427.82049  -8042328.39848                  20509100.1114
        50.0004         42.5004
  20732565.2074  -14685754.16849 -11386273.20748                  20732561.1824
        50.0004         40.5004
  24029415.3874   -1997817.99249  -1551635.16047                  24029415.0824
        44.2504         27.2504
  24632079.5274   -8360649.34449  -6506280.07446                  24632079.8274
        41.5004         18.2504
  22792911.5644  -18351514.77749 -14242671.82047                  22792910.3274
        46.7504         29.7504
 04  9 30 17 29 15.0000000  0  8G 1G27G16G20G23G25G 4G13
  21950516.7104   -6955930.20749  -5395099.38747                  21950516.4504
        49.5004         35.5004
  24481030.6104   -4067603.17649  -3158319.84846                  24481031.1954
        40.0004         24.5004
  21612095.4144  -14145748.92249 -10966139.57447                  21612093.8034
        50.2504         39.0004
  20502528.0464  -10408975.44549  -8069248.63748                  20502526.1134
        51.0004         42.7504
  20720301.0984  -14750201.60549 -11436491.98448                  20720297.0934
        50.5004         40.7504
  24027771.8054   -2006457.72349  -1558367.45347                  24027771.3404
        44.0004         26.0004
  24621172.3714   -8417966.71549  -6550943.00846                  24621172.4194
        40.5004         18.2504
  22776654.4584  -18436948.77749 -14309243.73847                  22776652.7864
        47.5004         31.0004
 04  9 30 17 29 30.0000000  0  8G 1G27G16G20G23G25G 4G13
  21945045.0314   -6984683.46549  -5417504.53947                  21945044.9854
        49.2504         36.0004
  24464005.6124   -4157068.79749  -3228033.28146                  24464006.7254
        41.2504         25.2504
  21602242.1644  -14197527.80149 -11006486.74647                  21602240.9364
        50.0004         38.7504
  20495978.9654  -10443389.67649  -8096064.91848                  20495977.2794
        51.7504         42.7504
  20708046.7834  -14814600.30949 -11486672.79348                  20708042.6264
        51.0004         40.5004
  24026126.9064   -2015102.01649  -1565103.29747                  24026126.5824
        44.0004         26.2504
  24610288.4464   -8475163.10949  -6595511.61746                  24610288.0634
        41.0004         17.7504
  22760398.4244  -18522371.82449 -14375807.14847                  22760396.4134
        47.7504         30.7504
 04  9 30 17 29 45.0000000  0  8G 1G27G16G20G23G25G 4G13
  21939581.4064   -7013397.81649  -5439879.36747                  21939580.6274
        49.5004         36.2504
  24446988.3084   -4246497.49249  -3297717.98446                  24446988.9534
        41.7504         25.5004
  21592416.3984  -14249164.29349 -11046722.96147                  21592414.7444
        50.0004         38.5004
  20489455.8874  -10477670.43749  -8122777.21548                  20489453.6464
        50.5004         42.5004
  20695801.1704  -14878949.82449 -11536815.26648                  20695797.4064
        50.7504         40.5004
  24024481.2874   -2023750.71549  -1571842.55947                  24024480.1764
        44.7504         27.5004
  24599427.7064   -8532238.03549  -6639985.57846                  24599426.3894
        42.2504         20.0004
  22744145.1774  -18607783.37149 -14442361.59047                  22744144.0234
        47.2504         31.7504
 04  9 30 17 30  0.0000000  0  8G 1G27G16G20G23G25G 4G13
  21934124.2544   -7042072.62149  -5462223.39547                  21934124.1044
        49.7504         36.5004
  24429977.3594   -4335888.45349  -3367373.27046                  24429978.4804
        42.0004         25.2504
  21582617.6474  -14300657.68749 -11086847.68447                  21582615.9714
        50.0004         38.5004
  20482958.1844  -10511817.02049  -8149384.95348                  20482956.0564
        50.2504         42.5004
  20683565.3454  -14943249.50049 -11586918.91048                  20683561.1044
        50.0004         41.0004
  24022834.4524   -2032403.43049  -1578584.96947                  24022834.0984
        44.5004         27.0004
  24588589.7944   -8589191.00049  -6684364.51646                  24588589.7524
        42.5004         19.5004
  22727894.7194  -18693182.89149 -14508906.66447                  22727893.7424
        47.7504         32.0004
 04  9 30 17 30 15.0000000  0  8G 1G27G16G20G23G25G 4G13
  21928675.4534   -7070707.73449  -5484536.49647                  21928675.0214
        49.5004         36.5004
  24412974.0634   -4425241.80149  -3436999.23846                  24412974.4894
        40.5004         24.7504
  21572845.9734  -14352007.96549 -11126860.88347                  21572844.0614
        50.7504         38.0004
  20476485.5254  -10545829.50849  -8175888.19948                  20476483.8144
        48.5004         42.0004
  20671339.1604  -15007499.06649 -11636983.49648                  20671334.8894
        49.2504         41.2504
  24021187.0944   -2041060.12549  -1585330.44547                  24021186.6214
        44.5004         26.5004
  24577775.3094   -8646022.00849  -6728648.46546                  24577775.0864
        41.2504         20.0004
  22711646.3374  -18778570.23849 -14575442.25847                  22711644.7954
        48.5004         31.5004
 04  9 30 17 30 30.0000000  0  8G 1G27G16G20G23G25G 4G13
  21923234.0524   -7099303.32449  -5506818.79347                  21923233.3934
        49.2504         35.7504
  24395978.4874   -4514557.50049  -3506595.82846                  24395978.2334
        41.0004         24.5004
  21563101.1704  -14403215.29349 -11166762.69947                  21563099.5094
        50.7504         38.2504
  20470038.6964  -10579708.15249  -8202287.14848                  20470036.7304
        48.5004         42.0004
  20659122.5284  -15071698.66049 -11687009.15248                  20659118.0424
        48.7504         41.0004
  24019538.5824   -2049721.23449  -1592079.39546                  24019539.2004
        43.5004         25.2504
  24566983.1774   -8702731.24249  -6772837.46146                  24566983.6304
        41.5004         19.2504
  22695399.4004  -18863945.59849 -14641968.50447                  22695397.7444
        48.7504         30.5004
 04  9 30 17 30 45.0000000  0  8G 1G27G16G20G23G25G 4G13
  21917800.0594   -7127858.13749  -5529069.30547                  21917799.5084
        50.0004         36.0004
  24378989.4094   -4603834.36749  -3576162.19546                  24378989.5674
        41.2504         24.2504
  21553384.3624  -14454278.46949 -11206552.18047                  21553382.7934
        50.0004         37.5004
  20463617.4824  -10613451.85949  -8228580.95348                  20463615.4684
        46.0004         42.0004
  20646915.2804  -15135847.00849 -11736994.87948                  20646911.0184
        47.0004         41.2504
  24017890.2834   -2058385.66049  -1598830.94147                  24017890.8244
        44.0004         26.7504
  24556215.7884   -8759317.54349  -6816930.70746                  24556215.8094
        41.7504         20.0004
  22679155.0544  -18949307.59449 -14708484.35247                  22679154.0034
        47.0004         30.2504
 04  9 30 17 31  0.0000000  0  8G 1G27G16G20G23G25G 4G13
  21912374.0974   -7156373.23049  -5551288.87547                  21912373.3934
        49.7504         36.2504
  24362007.7984   -4693073.33249  -3645699.02046                  24362007.7254
        41.0004         25.5004
  21543694.4234  -14505198.47349 -11246230.10547                  21543692.9884
        49.7504         38.2504
  20457221.5654  -10647061.73849  -8254770.48048                  20457220.2584
        47.7504         42.2504
  20634717.7804  -15199945.00449 -11786941.37548                  20634713.6594
        48.2504         41.0004
  24016240.3254   -2067054.56249  -1605585.97747                  24016241.1544
        45.2504         27.5004
  24545470.9994   -8815781.98449  -6860928.98846                  24545471.4304
        42.0004         20.5004
  22662913.6124  -19034657.19949 -14774990.51647                  22662912.9574
        46.5004         30.5004
 04  9 30 17 31 15.0000000  0  8G 1G27G16G20G23G25G 4G13
  21906954.7474   -7184849.55149  -5573478.23447                  21906954.8684
        49.5004         36.0004
  24345032.7274   -4782275.48849  -3715207.17646                  24345033.3234
        40.2504         22.7504
  21534031.8334  -14555976.39549 -11285797.30547                  21534030.0524
        50.0004         38.0004
  20450851.4354  -10680538.93749  -8280856.62148                  20450849.4954
        48.0004         42.5004
  20622529.9074  -15263993.60549 -11836849.37148                  20622525.4724
        48.5004         41.0004
  24014589.5344   -2075729.13749  -1612345.41447                  24014590.4344
        45.2504         27.5004
  24534748.5014   -8872125.64549  -6904833.18746                  24534748.6134
        41.0004         21.0004
  22646674.0284  -19119995.41849 -14841487.78947                  22646673.4604
        46.0004         29.0004
 04  9 30 17 31 30.0000000  0  8G 1G27G16G20G23G25G 4G13
  21901544.0534   -7213285.46949  -5595636.11747                  21901543.7694
        49.2504         36.0004
  24328065.0794   -4871439.12549  -3784685.27746                  24328066.0964
        41.0004         22.2504
  21524396.7174  -14606610.53149 -11325252.47347                  21524394.8854
        50.0004         38.5004
  20444506.0994  -10713881.89549  -8306838.14548                  20444504.1854
        49.0004         42.0004
  20610351.4334  -15327991.12149 -11886717.56648                  20610347.1414
        49.0004         40.5004
  24012938.6864   -2084407.89149  -1619108.10947                  24012938.4424
        45.5004         27.5004
  24524050.5194   -8928347.03149  -6948642.06646                  24524050.6114
        41.5004         21.0004
  22630437.1444  -19205320.59849 -14907974.92247                  22630436.9614
        46.0004         30.0004
 04  9 30 17 31 45.0000000  0  8G 1G27G16G20G23G25G 4G13
  21896140.2984   -7241681.41849  -5617762.84847                  21896139.9714
        50.0004         35.7504
  24311105.7444   -4960564.71149  -3854133.74646                  24311106.0844
        41.2504         23.0004
  21514788.2494  -14657101.43049 -11364596.01647                  21514786.5714
        50.5004         38.5004
  20438186.6394  -10747091.20749  -8332715.54748                  20438185.1534
        49.0004         42.0004
  20598182.8344  -15391937.85949 -11936546.18448                  20598178.8824
        49.0004         41.2504
  24011286.5154   -2093091.63749  -1625874.68047                  24011284.9614
        44.5004         25.7504
  24513374.9594   -8984446.50449  -6992355.94946                  24513375.0774
        41.0004         22.2504
  22614203.2654  -19290633.14549 -14974452.19547                  22614202.2654
        46.7504         30.7504
 04  9 30 17 32  0.0000000  0  8G 1G27G16G20G23G25G 4G13
  21890744.7004   -7270036.97349  -5639858.11347                  21890744.0384
        49.5004         36.0004
  24294152.7154   -5049651.78149  -3923552.23846                  24294153.2164
        41.7504         22.7504
  21505207.7484  -14707448.66049 -11403827.62147                  21505205.7704
        49.5004         38.0004
  20431892.5304  -10780166.55949  -8358488.55548                  20431891.0384
        49.5004         41.7504
  20586023.8764  -15455833.46149 -11986334.96548                  20586019.6134
        50.0004         41.2504
  24009632.0864   -2101780.00449  -1632644.86747                  24009631.7554
        44.0004         25.7504
  24502722.9914   -9040423.84849  -7035974.62946                  24502723.3814
        40.0004         21.7504
  22597971.2934  -19375932.58249 -15040919.30147                  22597969.7464
        47.2504         30.7504
 04  9 30 17 32 15.0000000  0  8G 1G27G16G20G23G25G 4G13
  21885356.2164   -7298353.17249  -5661922.69147                  21885355.8114
        49.2504         36.2504
  24277206.3694   -5138701.46149  -3992941.59846                  24277207.5454
        40.5004         23.0004
  21495654.1024  -14757653.28149 -11442948.09047                  21495651.9384
        49.7504         38.0004
  20425624.2494  -10813109.14149  -8384158.11748                  20425622.4094
        50.2504         42.2504
  20573874.6094  -15519678.87549 -12036084.64548                  20573870.4014
        50.0004         41.2504
  24007977.8344   -2110474.35249  -1639419.71546                  24007978.2344
        43.7504         25.2504
  24492094.1434   -9096280.11749  -7079499.02046                  24492094.4174
        40.7504         22.0004
  22581741.3634  -19461219.94949 -15107376.97347                  22581740.0534
        47.2504         31.0004
 04  9 30 17 32 30.0000000  0  8G 1G27G16G20G23G25G 4G13
  21879975.2594   -7326629.52049  -5683956.22747                  21879974.9144
        50.0004         35.5004
  24260269.1994   -5227713.17649  -4062301.34446                  24260269.3774
        41.0004         23.2504
  21486127.2714  -14807714.87949 -11481957.12147                  21486125.8514
        50.7504         37.7504
  20419380.5814  -10845918.61349  -8409723.94148                  20419378.8644
        49.2504         42.0004
  20561734.7924  -15583473.38749 -12085794.65648                  20561730.3494
        50.0004         41.0004
  24006322.4514   -2119174.18449  -1646198.86347                  24006322.9144
        43.5004         26.5004
  24481487.9084   -9152014.96549  -7122928.76246                  24481488.1894
        40.5004         22.5004
  22565514.5464  -19546494.76649 -15173824.85947                  22565512.9954
        47.2504         31.0004
 04  9 30 17 32 45.0000000  0  8G 1G27G16G20G23G25G 4G13
  21874602.3634   -7354865.20749  -5705958.06647                  21874601.7054
        49.2504         35.7504
  24243338.2534   -5316686.05549  -4131630.84846                  24243338.9264
        41.2504         22.5004
  21476628.2554  -14857632.65249 -11520854.07447                  21476626.9214
        49.5004         37.0004
  20413162.4954  -10878594.31249  -8435185.53548                  20413160.5144
        50.2504         42.5004
  20549604.8424  -15647216.34049 -12135464.49248                  20549600.3004
        50.2504         41.0004
  24004666.2614   -2127878.93749  -1652981.81647                  24004666.4224
        44.0004         25.7504
  24470904.7684   -9207627.67649  -7166263.37146                  24470905.5614
        41.0004         21.5004
  22549289.7634  -19631756.14849 -15240262.30147                  22549287.9994
        47.5004         31.5004
 04  9 30 17 33  0.0000000  0  8G 1G27G16G20G23G25G 4G13
  21869236.8824   -7383061.58649  -5727929.29347                  21869236.4154
        49.2504         36.0004
  24226414.0164   -5405621.54749  -4200931.19946                  24226414.5214
        40.0004         23.0004
  21467156.8324  -14907407.91049 -11559639.98447                  21467154.8454
        49.5004         37.5004
  20406969.7154  -10911137.72349  -8460544.04348                  20406967.8544
        50.5004         42.0004
  20537484.6134  -15710908.83649 -12185095.01648                  20537479.8424
        50.2504         40.7504
  24003008.3984   -2136590.19949  -1659769.85247                  24003008.2204
        44.0004         26.7504
  24460345.2464   -9263119.58249  -7209503.83246                  24460345.8054
        40.0004         20.5004
  22533067.3964  -19717005.38749 -15306690.26647                  22533065.9424
        47.2504         30.5004
 04  9 30 17 33 15.0000000  0  8G 1G27G16G20G23G25G 4G13
  21863878.5874   -7411217.90249  -5749869.28947                  21863878.2234
        49.5004         36.2504
  24209496.4814   -5494518.94949  -4270201.82446                  24209497.3454
        38.0004         21.7504
  21457711.7384  -14957040.02049 -11598314.34447                  21457709.8034
        48.0004         37.5004
  20400802.3964  -10943548.11749  -8485798.90248                  20400800.3024
        50.5004         41.5004
  20525374.0414  -15774550.20749 -12234685.69948                  20525369.9204
        48.7504         41.0004
  24001350.2134   -2145307.35949  -1666562.48047                  24001349.7214
        44.5004         27.0004
  24449808.5844   -9318490.17249  -7252649.73046                  24449809.1884
        41.0004         21.5004
  22516847.5444  -19802241.78949 -15373108.23047                  22516845.6674
        47.0004         29.5004
 04  9 30 17 33 30.0000000  0  8G 1G27G16G20G23G25G 4G13
  21858528.3654   -7439334.49649  -5771778.34847                  21858527.9054
        49.2504         36.5004
  24192587.0714   -5583378.48849  -4339442.98446                  24192587.5764
        37.2504         21.0004
  21448293.9704  -15006529.37549 -11636877.47347                  21448292.5314
        49.5004         38.0004
  20394659.9344  -10975826.05549  -8510950.55948                  20394658.2804
        51.2504         41.7504
  20513273.0354  -15838140.60949 -12284236.66048                  20513269.1544
        50.0004         41.2504
  23999690.0114   -2154030.94549  -1673360.10247                  23999689.3164
        44.0004         26.5004
  24439295.3844   -9373739.75049  -7295701.39146                  24439295.1884
        40.5004         22.0004
  22500629.1564  -19887465.63349 -15439516.42247                  22500627.1794
        46.5004         29.0004
 04  9 30 17 33 45.0000000  0  8G 1G27G16G20G23G25G 4G13
  21853185.6734   -7467410.84049  -5793656.03947                  21853185.3744
        49.2504         36.2504
  24175684.8734   -5672199.71549  -4408654.28146                  24175685.4664
        37.2504         20.5004
  21438903.8764  -15055875.48449 -11675328.97747                  21438902.7874
        48.5004         37.2504
  20388542.8174  -11007971.18749  -8535998.71148                  20388541.2494
        50.2504         42.0004
  20501182.3814  -15901679.47749 -12333747.46948                  20501178.1684
        50.2504         40.7504
  23998027.7904   -2162760.66849  -1680162.51247                  23998027.6324
        43.5004         26.2504
  24428804.9154   -9428867.99649  -7338658.43746                  24428804.5624
        42.0004         21.5004
  22484414.4164  -19972676.38349 -15505914.37547                  22484412.7164
        47.0004         29.5004
 04  9 30 17 34  0.0000000  0  8G 1G27G16G20G23G25G 4G13
  21847850.4564   -7495446.57849  -5815502.08247                  21847850.2474
        50.0004         36.0004
  24158790.2954   -5760982.15249  -4477835.33246                  24158791.6424
        38.0004         21.5004
  21429541.1334  -15105078.02349 -11713668.60947                  21429539.5394
        48.0004         37.7504
  20382450.9864  -11039983.28949  -8560943.21148                  20382449.3914
        51.0004         42.7504
  20489101.0084  -15965166.48049 -12383217.85948                  20489097.1524
        49.0004         41.2504
  23996366.0904   -2171496.29749  -1686969.53546                  23996366.2894
        43.0004         25.5004
  24418337.3344   -9483874.53149  -7381520.64546                  24418337.6824
        42.5004         22.2504
  22468202.3224  -20057873.53549 -15572301.75847                  22468200.0464
        47.0004         29.5004
 04  9 30 17 34 15.0000000  0  8G 1G27G16G20G23G25G 4G13
  21842522.9984   -7523442.96149  -5837317.46147                  21842522.6634
        49.5004         35.2504
  24141903.5664   -5849727.01249  -4546987.13346                  24141903.6234
        40.2504         22.2504
  21420205.2404  -15154138.26249 -11751897.35547                  21420203.4754
        49.5004         38.2504
  20376384.3714  -11071863.66849  -8585785.07848                  20376383.0004
        51.2504         41.7504
  20477029.6754  -16028602.70749 -12432648.69148                  20477025.5174
        49.7504         41.2504
  23994702.1444   -2180239.21949  -1693782.23047                  23994702.6624
        43.5004         26.2504
  24407893.2834   -9538760.50849  -7424288.97346                  24407892.9074
        42.5004         22.2504
  22451992.3114  -20143058.44149 -15638679.60947                  22451989.6894
        47.5004         31.0004
 04  9 30 17 34 30.0000000  0  8G 1G27G16G20G23G25G 4G13
  21837203.0234   -7551399.67649  -5859101.92647                  21837203.0474
        50.0004         35.7504
  24125022.8924   -5938434.14849  -4616109.55546                  24125022.9974
        41.5004         23.0004
  21410896.7464  -15203055.94549 -11790015.02047                  21410894.8484
        49.0004         37.2504
  20370343.1524  -11103612.19949  -8610524.20348                  20370341.3734
        51.0004         41.7504
  20464967.8574  -16091987.87149 -12482039.72748                  20464963.6284
        49.7504         41.5004
  23993036.6164   -2188989.45749  -1700600.64847                  23993037.8034
        43.2504         26.5004
  24397471.5054   -9593526.12949  -7466963.49246                  24397471.3034
        41.7504         21.7504
  22435784.7594  -20228230.73049 -15705047.61347                  22435782.7584
        47.7504         31.0004
 04  9 30 17 34 45.0000000  0  8G 1G27G16G20G23G25G 4G13
  21831890.7754   -7579316.16449  -5880855.05147                  21831890.4974
        49.7504         36.0004
  24108150.1044   -6027102.96149  -4685202.14546                  24108150.2054
        39.7504         21.7504
  21401614.8514  -15251830.59849 -11828021.23447                  21401613.6084
        48.7504         37.7504
  20364327.0454  -11135228.51649  -8635160.30948                  20364325.1904
        51.0004         41.7504
  20452916.1044  -16155321.32449 -12531390.46548                  20452911.9034
        50.0004         41.2504
  23991371.3174   -2197746.57449  -1707424.44947                  23991371.7074
        43.5004         26.0004
  24387073.1974   -9648170.73849  -7509543.73846                  24387072.2344
        41.5004         21.7504
  22419578.8354  -20313389.71549 -15771405.26247                  22419577.0614
        47.0004         31.0004
 04  9 30 17 35  0.0000000  0  8G 1G27G16G20G23G25G 4G13
  21826586.4464   -7607191.55549  -5902576.15247                  21826585.8034
        49.7504         36.0004
  24091284.4064   -6115732.53949  -4754264.15646                  24091283.9094
        41.2504         23.0004
  21392360.9124  -15300461.35249 -11865915.32047                  21392359.3814
        48.2504         37.5004
  20358335.6764  -11166711.80949  -8659692.75448                  20358333.8844
        50.0004         42.0004
  20440873.9794  -16218601.99649 -12580700.08648                  20440869.2524
        48.5004         41.0004
  23989703.6094   -2206509.77049  -1714252.94147                  23989704.0784
        43.2504         28.0004
  24376697.3684   -9702693.60549  -7552029.07046                  24376697.8014
        42.5004         22.7504
  22403376.6484  -20398534.59449 -15837751.91047                  22403374.8564
        48.0004         31.0004
 04  9 30 17 35 15.0000000  0  8G 1G27G16G20G23G25G 4G13
  21821289.4454   -7635027.32849  -5924266.38347                  21821289.5664
        49.0004         35.0004
  24074425.7954   -6204324.37949  -4823296.73846                  24074425.5314
        40.7504         22.5004
  21383134.0164  -15348949.72749 -11903698.46147                  21383132.0704
        49.0004         38.0004
  20352369.5184  -11198063.79749  -8684122.88748                  20352367.9954
        50.7504         41.7504
  20428841.7444  -16281831.43449 -12629969.77748                  20428837.4754
        49.0004         41.0004
  23988035.1604   -2215280.75849  -1721087.52046                  23988034.5234
        43.2504         25.0004
  24366344.7734   -9757096.16449  -7594420.67646                  24366345.3144
        41.0004         22.5004
  22387176.1814  -20483666.74649 -15904088.63347                  22387174.7064
        47.5004         29.7504
 04  9 30 17 35 30.0000000  0  8G 1G27G16G20G23G25G 4G13
  21815999.9914   -7662822.55949  -5945925.02047                  21815999.8904
        49.5004         35.0004
  24057574.4504   -6292877.37149  -4892299.03546                  24057574.8584
        39.5004         22.5004
  21373934.0554  -15397294.91849 -11941370.03147                  21373932.1874
        50.2504         38.2504
  20346428.7124  -11229283.57049  -8708449.99248                  20346426.9044
        50.0004         41.5004
  20416819.7034  -16345008.51249 -12679198.67248                  20416815.4254
        50.0004         41.0004
  23986363.3504   -2224058.70749  -1727927.50846                  23986363.5414
        41.0004         23.0004
  24356015.3694   -9811377.66049  -7636717.97346                  24356015.8824
        41.7504         22.0004
  22370978.6434  -20568785.25849 -15970414.73847                  22370977.0394
        47.5004         29.7504
 04  9 30 17 35 45.0000000  0  8G 1G27G16G20G23G25G 4G13
  22110510.8404   -7690576.39549  -5967551.39847                  22110510.4684
        49.0004         35.5004
  24340523.8484   -6381387.06649  -4961267.57046                  24340524.5994
        41.0004         23.7504
  21664554.4154  -15445494.75049 -11978928.33247                  21664552.1204
        49.7504         38.0004
  20640305.3834  -11260370.38749  -8732673.48848                  20640303.6034
        50.2504         42.0004
  20704600.4714  -16408130.09049 -12728384.31248                  20704596.2704
        50.5004         41.0004
  24284484.5314   -2232844.40249  -1734773.57046                  24284484.4224
        41.0004         22.2504
  24645502.1234   -9865535.70749  -7678919.05946                  24645502.0884
        41.7504         21.0004
  22654577.2664  -20653885.41449 -16036726.53547                  22654574.6624
        47.2504         30.0004
 04  9 30 17 36  0.0000000  0  8G 1G27G16G20G23G25G 4G13
  22105237.4244   -7718291.34449  -5989147.47747                  22105237.0824
        48.7504         35.7504
  24323687.4924   -6469863.62949  -5030210.32046                  24323688.0154
        40.2504         22.2504
  21655409.1114  -15493554.48449 -12016377.47347                  21655407.3154
        49.5004         38.0004
  20634414.7164  -11291327.25449  -8756795.73448                  20634412.7244
        50.5004         41.5004
  20692597.9324  -16471203.33249 -12777532.29348                  20692593.4244
        51.0004         41.0004
  24282811.9204   -2241638.00449  -1741625.75847                  24282811.3024
        43.0004         26.5004
  24635219.0634   -9919576.34449  -7721028.65646                  24635218.3884
        42.5004         20.0004
  22638385.2444  -20738977.29349 -16103031.88347                  22638382.5774
        48.0004         30.5004
 04  9 30 17 36 15.0000000  0  8G 1G27G16G20G23G25G 4G13
  22099971.1444   -7745965.61749  -6010711.86347                  22099970.5674
        49.2504         36.0004
  24306858.0804   -6558301.50049  -5099122.91846                  24306859.0544
        41.0004         24.2504
  21646290.7374  -15541471.01649 -12053715.02747                  21646289.0144
        50.0004         37.7504
  20628548.5564  -11322152.41049  -8780815.34048                  20628546.9934
        50.5004         41.2504
  20680605.3284  -16534224.09049 -12826639.37948                  20680601.1174
        50.7504         41.0004
  24281137.4484   -2250439.04349  -1748483.69647                  24281136.8224
        43.7504         25.7504
  24624958.0044   -9973496.08249  -7763044.03146                  24624957.7314
        43.5004         21.0004
  22622195.1234  -20824055.24649 -16169326.38747                  22622192.8264
        48.0004         30.7504
 04  9 30 17 36 30.0000000  0  8G 1G27G16G20G23G25G 4G13
  22094712.4454   -7773599.22749  -6032244.55947                  22094712.0104
        49.2504         35.5004
  24290036.8274   -6646700.54749  -5168005.27746                  24290036.7244
        41.7504         25.0004
  21637199.8074  -15589244.39849 -12090941.02747                  21637197.8064
        49.0004         37.5004
  20622707.8094  -11352845.98049  -8804732.42648                  20622706.2264
        50.2504         41.7504
  20668623.0484  -16597192.11749 -12875705.37148                  20668619.0124
        50.0004         40.5004
  24279460.7454   -2259247.64849  -1755347.60546                  24279460.4834
        43.7504         24.5004
  24614720.3854  -10027295.14149  -7804965.38746                  24614720.6054
        43.2504         23.0004
  22606007.9914  -20909119.37549 -16235610.11747                  22606006.4884
        47.5004         31.7504
 04  9 30 17 36 45.0000000  0  8G 1G27G16G20G23G25G 4G13
  22089461.6894   -7801192.06249  -6053745.48847                  22089461.3124
        49.0004         35.5004
  24273222.4174   -6735060.72349  -5236857.36746                  24273222.5094
        42.2504         25.0004
  21628136.0434  -15636874.60949 -12128055.46947                  21628134.0304
        49.5004         37.5004
  20616891.8444  -11383408.06249  -8828547.04348                  20616890.6184
        50.2504         41.7504
  20656650.8084  -16660107.38749 -12924730.26248                  20656646.3014
        50.0004         41.2504
  24277783.2234   -2268063.93049  -1762217.48846                  24277782.8764
        43.0004         24.5004
  24604506.0094  -10080973.38749  -7846792.59846                  24604506.0494
        43.5004         22.2504
  22589823.0724  -20994169.54749 -16301882.96947                  22589822.5754
        47.7504         31.5004
 04  9 30 17 37  0.0000000  0  8G 1G27G16G20G23G25G 4G13
  22084218.9634   -7828743.54349  -6075214.18747                  22084218.6214
        48.5004         35.5004
  24256415.7024   -6823381.43449  -5305678.68446                  24256415.3914
        41.2504         25.2504
  21619099.8954  -15684361.13349 -12165057.95347                  21619097.7134
        49.2504         37.5004
  20611101.3144  -11413838.01249  -8852258.69948                  20611099.8264
        50.2504         41.5004
  20644688.6264  -16722969.09449 -12973713.40248                  20644684.3444
        50.0004         40.5004
  24276103.3724   -2276887.45749  -1769093.00846                  24276104.3934
        42.5004         25.2504
  24594314.0034  -10134530.50449  -7888525.43446                  24594314.6674
        43.0004         22.5004
  22573641.5834  -21079204.91849 -16368144.27747                  22573640.3904
        47.5004         31.2504
 04  9 30 17 37 15.0000000  0  8G 1G27G16G20G23G25G 4G13
  22078983.6674   -7856254.32449  -6096651.17247                  22078983.4044
        49.5004         35.5004
  24239615.6084   -6911663.48849  -5374469.87547                  24239615.9114
        42.5004         26.5004
  21610090.2634  -15731704.72349 -12201949.04747                  21610088.5144
        47.7504         37.7504
  20605335.8884  -11444136.91049  -8875868.24648                  20605334.3334
        51.0004         41.7504
  20632736.4284  -16785777.96149 -13022655.37148                  20632732.3094
        49.0004         41.2504
  24274423.4084   -2285719.27349  -1775974.98046                  24274423.5804
        42.7504         25.0004
  24584145.2364  -10187967.19149  -7930164.42246                  24584146.0404
        43.2504         23.0004
  22557462.8624  -21164226.36349 -16434394.73047                  22557461.3824
        46.7504         32.0004
 04  9 30 17 37 30.0000000  0  8G 1G27G16G20G23G25G 4G13
  22073756.8654   -7883723.66049  -6118055.87147                  22073755.8984
        48.5004         35.5004
  24222823.6624   -6999905.91049  -5443230.20346                  24222824.5194
        43.2504         24.7504
  21601108.5354  -15778904.66849 -12238728.22347                  21601107.0544
        49.2504         38.2504
  20599595.2514  -11474303.96149  -8899375.05148                  20599593.7414
        51.0004         42.0004
  20620794.5804  -16848533.14849 -13071555.50448                  20620790.3754
        49.5004         41.2504
  24272741.1394   -2294558.64849  -1782862.85946                  24272741.2094
        42.0004         22.2504
  24573999.9524  -10241282.72349  -7971709.00446                  24573999.9184
        43.2504         22.5004
  22541286.3884  -21249232.90649 -16500633.57047                  22541285.1334
        47.2504         31.0004
 04  9 30 17 37 45.0000000  0  8G 1G27G16G20G23G25G 4G13
  22068537.1614   -7911152.59049  -6139429.07047                  22068536.5514
        49.7504         35.5004
  24206039.0444   -7088109.83249  -5511960.51247                  24206039.7774
        43.7504         27.5004
  21592153.9664  -15825962.05949 -12275396.31247                  21592152.0074
        47.7504         38.2504
  20593879.7484  -11504340.37549  -8922780.05548                  20593878.0224
        51.0004         42.0004
  20608862.5734  -16911235.55549 -13120414.52748                  20608858.3854
        49.0004         41.2504
  24271057.5374   -2303406.74649  -1789757.50446                  24271057.8244
        42.5004         24.5004
  24563876.5584  -10294478.41049  -8013160.19946                  24563877.7774
        42.5004         23.5004
  22525112.7174  -21334225.64149 -16566861.66447                  22525111.0934
        47.0004         31.0004
 04  9 30 17 38  0.0000000  0  8G 1G27G16G20G23G25G 4G13
  22063325.4054   -7938540.86349  -6160770.61347                  22063324.6854
        48.5004         35.5004
  24189262.1044   -7176275.12549  -5580660.71547                  24189262.7104
        44.0004         29.0004
  21583226.1884  -15872876.77349 -12311953.21947                  21583224.6404
        48.5004         38.2504
  20588188.9334  -11534246.21949  -8946083.32448                  20588187.1014
        50.7504         42.2504
  20596940.6694  -16973884.89149 -13169232.18448                  20596936.6254
        49.2504         41.5004
  24269371.8424   -2312263.60949  -1796658.98846                  24269371.3974
        43.0004         22.5004
  24553777.5244  -10347553.95349  -8054517.75846                  24553777.7854
        43.2504         24.2504
  22508941.7484  -21419204.41049 -16633078.86347                  22508940.8304
        47.2504         32.2504
 04  9 30 17 38 15.0000000  0  8G 1G27G16G20G23G25G 4G13
  22058121.0304   -7965888.19949  -6182080.24647                  22058120.9464
        49.0004         35.5004
  24172492.0724   -7264401.29349  -5649330.44547                  24172492.6124
        44.0004         28.2504
  21574326.2564  -15919648.55949 -12348398.75447                  21574324.2274
        48.0004         37.7504
  20582522.7854  -11564021.22749  -8969284.63748                  20582521.2744
        50.5004         42.0004
  20585029.1934  -17036480.82449 -13218008.23448                  20585025.2074
        48.7504         41.2504
  24267685.1044   -2321129.14149  -1803567.22346                  24267684.9574
        42.5004         24.7504
  24543699.6764  -10400509.20749  -8095781.60246                  24543700.9364
        43.7504         22.2504
  22492773.7184  -21504168.73049 -16699284.81647                  22492772.2374
        47.7504         32.7504
 04  9 30 17 38 30.0000000  0  8G 1G27G16G20G23G25G 4G13
  22052924.5414   -7993194.51249  -6203357.89847                  22052925.0014
        49.2504         35.7504
  24155729.5614   -7352488.47349  -5717969.79347                  24155729.7504
        43.5004         27.5004
  21565452.7714  -15966277.35549 -12384732.87547                  21565450.6764
        48.5004         38.2504
  20576881.5104  -11593665.53149  -8992384.10248                  20576879.7874
        51.5004         41.7504
  20573127.5684  -17099023.24649 -13266742.59448                  20573123.7044
        49.0004         40.5004
  24265996.0744   -2330003.25449  -1810482.15246                  24265996.1214
        41.0004         24.0004
  24533645.4794  -10453344.26249  -8136951.79346                  24533646.7324
        43.0004         22.5004
  22476608.5134  -21589118.40249 -16765479.36747                  22476606.7074
        48.2504         32.5004
 04  9 30 17 38 45.0000000  0  8G 1G27G16G20G23G25G 4G13
  22047736.5374   -8020458.93449  -6224602.91847                  22047736.7624
        49.0004         35.7504
  24138974.9754   -7440535.64549  -5786577.96147                  24138974.9674
        42.5004         28.5004
  21556607.1234  -16012762.45749 -12420955.02047                  21556605.1204
        49.7504         37.7504
  20571265.6074  -11623178.47749  -9015381.21948                  20571263.8714
        51.0004         42.2504
  20561236.7224  -17161511.21549 -13315434.51248                  20561232.6734
        49.5004         40.5004
  24264305.9644   -2338885.27749  -1817403.27746                  24264305.7274
        40.5004         22.5004
  24523614.6604  -10506058.42649  -8178027.77346                  24523615.2234
        43.2504         23.0004
  22460446.0074  -21674052.60249 -16831661.85547                  22460444.5994
        48.0004         32.7504
 04  9 30 17 39  0.0000000  0  8G 1G27G16G20G23G25G 4G13
  22042556.0424   -8047683.51249  -6245816.89147                  22042555.7524
        50.0004         35.0004
  24122227.1844   -7528544.83649  -5855156.52347                  24122227.8034
        42.0004         28.2504
  21547788.2424  -16059105.93449 -12457066.81247                  21547786.2424
        49.7504         38.5004
  20565673.8744  -11652562.27049  -9038277.69148                  20565672.0384
        52.0004         42.0004
  20549355.4124  -17223946.62949 -13364085.47748                  20549351.6974
        50.2504         41.0004
  24262614.0364   -2347777.38349  -1824332.21146                  24262614.3344
        40.7504         22.7504
  24513605.9434  -10558653.69949  -8219011.10546                  24513607.0064
        42.5004         23.0004
  22444285.5564  -21758973.28949 -16897833.79747                  22444284.0414
        47.5004         32.0004
 04  9 30 17 39 15.0000000  0  8G 1G27G16G20G23G25G 4G13
  22037383.4084   -8074867.15649  -6266998.96947                  22037382.9824
        47.0004         35.5004
  24105486.9414   -7616515.11349  -5923704.78147                  24105487.3604
        42.5004         26.5004
  21538996.5684  -16105306.78149 -12493067.46547                  21538994.3104
        50.2504         37.7504
  20560106.9564  -11681815.86749  -9061072.70348                  20560105.5884
        50.7504         42.2504
  20537484.6264  -17286328.38349 -13412694.62948                  20537480.6414
        51.2504         41.5004
  24260920.5034   -2356678.74249  -1831268.37546                  24260920.3714
        42.2504         23.2504
  24503620.7244  -10611129.27749  -8259901.18046                  24503621.3974
        43.7504         24.5004
  22428128.8374  -21843879.47349 -16963994.46147                  22428127.0964
        46.5004         31.0004
 04  9 30 17 39 30.0000000  0  8G 1G27G16G20G23G25G 4G13
  22032218.3034   -8102010.14849  -6288149.37547                  22032217.6564
        48.2504         34.7504
  24088754.4724   -7704446.75449  -5992222.96147                  24088754.1374
        42.0004         26.5004
  21530231.5754  -16151365.37149 -12528957.26247                  21530229.7064
        50.0004         37.7504
  20554564.9434  -11710939.81249  -9083766.69948                  20554563.2214
        51.2504         42.0004
  20525623.9964  -17348656.71149 -13461262.16048                  20525619.8274
        51.2504         41.0004
  24259224.9514   -2365589.83649  -1838212.11746                  24259224.1444
        42.5004         25.5004
  24493657.5274  -10663485.45349  -8300698.20746                  24493658.1284
        43.5004         24.5004
  22411974.4124  -21928771.37549 -17030143.97347                  22411972.9214
        47.0004         31.0004
 04  9 30 17 39 45.0000000  0  8G 1G27G16G20G23G25G 4G13
  22027060.5524   -8129112.52749  -6309268.11747                  22027060.1474
        48.5004         35.2504
  24072028.3854   -7792339.83649  -6060711.06646                  24072029.0254
        41.7504         25.0004
  21521494.0374  -16197281.82049 -12564736.30147                  21521491.9984
        49.7504         37.5004
  20549047.6374  -11739934.39149  -9106359.89148                  20549045.8504
        51.0004         42.2504
  20513773.6324  -17410931.48049 -13509787.95348                  20513769.2374
        50.2504         41.0004
  24257526.4434   -2374510.89549  -1845163.60546                  24257526.6704
        41.7504         23.5004
  24483716.3944  -10715722.44949  -8341402.38346                  24483716.5994
        43.5004         22.5004
  22395822.8514  -22013648.90649 -17096282.29747                  22395820.8954
        48.2504         31.2504
 04  9 30 17 40  0.0000000  0  8G 1G27G16G20G23G25G 4G13
  22021910.7424   -8156174.80549  -6330355.62147                  22021910.6994
        48.2504         34.2504
  24055310.1174   -7880194.84849  -6129169.50047                  24055310.9814
        41.0004         26.2504
  21512783.4834  -16243056.78549 -12600405.09447                  21512781.4114
        50.0004         37.7504
  20543554.6874  -11768800.30149  -9128852.81648                  20543552.9404
        50.7504         41.7504
  20501933.1234  -17473153.33249 -13558272.51648                  20501928.6224
        51.5004         41.5004
  24255827.0054   -2383442.64549  -1852123.44146                  24255827.4514
        41.7504         24.5004
  24473799.0974  -10767841.12949  -8382014.32446                  24473799.8344
        43.5004         24.5004
  22379673.9544  -22098512.55549 -17162409.81247                  22379672.6174
        47.7504         31.7504
 04  9 30 17 40 15.0000000  0  8G 1G27G16G20G23G25G 4G13
  22016769.1304   -8183196.34849  -6351411.39547                  22016768.8744
        48.5004         34.7504
  24038599.4904   -7968011.03149  -6197597.68047                  24038599.8624
        40.2504         27.0004
  21504099.6254  -16288689.67249 -12635963.17247                  21504097.8414
        50.5004         37.2504
  20538086.3164  -11797537.02749  -9151245.07848                  20538084.5064
        50.7504         41.2504
  20490102.8064  -17535321.48449 -13606715.23048                  20490098.4584
        51.0004         41.0004
  24254125.6334   -2392384.59849  -1859091.27346                  24254125.9914
        42.0004         25.5004
  24463903.5864  -10819840.63349  -8422533.45746                  24463904.9864
        43.5004         24.0004
  22363527.4354  -22183361.67649 -17228525.99247                  22363526.0684
        48.0004         32.7504
 04  9 30 17 40 30.0000000  0  8G 1G27G16G20G23G25G 4G13
  22011634.3284   -8210177.08649  -6372435.35547                  22011634.0974
        49.7504         34.7504
  24021895.6704   -8055788.40649  -6265995.58246                  24021896.8794
        38.7504         23.7504
  21495443.0154  -16334180.40649 -12671410.49247                  21495440.9064
        50.5004         38.2504
  20532642.2854  -11826144.59049  -9173536.69148                  20532640.7404
        50.7504         42.0004
  20478283.2754  -17597435.68749 -13655115.90648                  20478278.9954
        50.7504         41.2504
  24252421.4404   -2401336.88349  -1866067.10246                  24252422.7704
        41.0004         24.5004
  24454031.5744  -10871721.09849  -8462959.75846                  24454032.2824
        43.5004         23.5004
  22347384.0354  -22268196.07449 -17294630.71947                  22347382.4034
        48.0004         31.5004
 04  9 30 17 40 45.0000000  0  8G 1G27G16G20G23G25G 4G13
  22006508.5704   -8237116.55549  -6393427.17647                  22006507.9044
        49.0004         34.7504
  24005199.5194   -8143526.52749  -6334362.94546                  24005200.2944
        38.0004         23.7504
  21486813.4214  -16379528.69949 -12706746.82047                  21486811.7304
        50.0004         37.5004
  20527222.9814  -11854622.82449  -9195727.53548                  20527221.5434
        50.7504         41.5004
  20466473.3814  -17659495.51249 -13703474.20348                  20466469.4294
        50.7504         41.5004
  24250716.4854   -2410299.17649  -1873050.78146                  24250717.4544
        41.7504         25.5004
  24444181.6774  -10923482.19949  -8503293.09046                  24444181.9264
        42.5004         23.0004
  22331243.5414  -22353015.34449 -17360723.64547                  22331242.4424
        48.5004         32.7504
 04  9 30 17 41  0.0000000  0  8G 1G27G16G20G23G25G 4G13
  22001389.5824   -8264015.63749  -6414387.50847                  22001389.5984
        47.7504         35.0004
  23988511.2494   -8231226.28949  -6402700.41046                  23988511.6604
        37.7504         21.7504
  21478210.9374  -16424735.52349 -12741972.90247                  21478209.0594
        50.5004         37.5004
  20521828.3754  -11882972.73849  -9217818.39148                  20521826.6444
        50.2504         41.7504
  20454673.8374  -17721501.68749 -13751790.69948                  20454670.2214
        51.0004         41.7504
  24249009.0494   -2419272.51649  -1880043.06846                  24249009.8774
        42.2504         25.2504
  24434354.1804  -10975125.14549  -8543534.34046                  24434355.1074
        43.2504         24.5004
  22315105.6814  -22437820.30549 -17426805.43047                  22315104.0084
        48.5004         33.0004
 04  9 30 17 41 15.0000000  0  8G 1G27G16G20G23G25G 4G13
  21996278.5504   -8290874.06649  -6435316.16847                  21996278.1784
        48.0004         34.5004
  23971829.4184   -8318887.44949  -6471007.77046                  23971830.0264
        37.5004         23.0004
  21469635.1514  -16469800.69549 -12777088.60947                  21469633.6754
        50.0004         37.5004
  20516458.1564  -11911194.31249  -9239809.23848                  20516456.2034
        50.2504         42.0004
  20442885.0834  -17783453.91449 -13800065.17248                  20442880.9174
        51.0004         41.2504
  24247299.3374   -2428256.74649  -1887043.78147                  24247299.8764
        41.7504         25.7504
  24424549.7754  -11026649.53149  -8583683.21946                  24424550.1744
        43.7504         25.2504
  22298970.3994  -22522610.64849 -17492875.82447                  22298968.0054
        47.7504         31.2504
 04  9 30 17 41 30.0000000  0  8G 1G27G16G20G23G25G 4G13
  21991175.4824   -8317691.06249  -6456212.54747                  21991175.0674
        49.0004         35.0004
  23955155.4344   -8406509.29749  -6539284.53546                  23955155.8294
        38.0004         22.5004
  21461086.9554  -16514723.36749 -12812093.28147                  21461084.8144
        50.0004         37.7504
  20511112.2074  -11939286.91449  -9261699.59048                  20511110.2784
        50.7504         42.0004
  20431106.5814  -17845351.30549 -13848296.90248                  20431102.0234
        51.5004         41.7504
  24245588.3154   -2437251.18449  -1894052.47346                  24245588.8404
        41.7504         24.7504
  24414767.1934  -11078054.75449  -8623739.24247                  24414768.9254
        44.5004         26.7504
  22282838.2184  -22607385.44549 -17558934.10547                  22282836.9184
        47.2504         30.7504
 04  9 30 17 41 45.0000000  0  8G 1G27G16G20G23G25G 4G13
  21986080.1494   -8344466.44949  -6477076.49647                  21986080.0184
        49.0004         34.7504
  23938489.2894   -8494091.53549  -6607530.41046                  23938489.2224
        37.2504         21.7504
  21452565.5214  -16559503.63749 -12846986.99247                  21452563.5484
        49.7504         38.0004
  20505791.0374  -11967250.46949  -9283489.37548                  20505789.5224
        51.2504         41.7504
  20419338.1004  -17907193.64549 -13896485.73848                  20419333.9564
        50.2504         41.2504
  24243874.3084   -2446255.99649  -1901069.23847                  24243875.2154
        42.7504         26.0004
  24405007.9714  -11129340.88749  -8663702.46947                  24405008.8354
        44.5004         26.5004
  22266708.9354  -22692144.56249 -17624980.14147                  22266707.8174
        47.2504         32.0004
 04  9 30 17 42  0.0000000  0  8G 1G27G16G20G23G25G 4G13
  21980992.8334   -8371201.21949  -6497908.80547                  21980992.4414
        49.0004         35.5004
  23921830.3584   -8581635.24649  -6675746.27346                  23921830.4104
        37.0004         21.7504
  21444070.8794  -16604142.54349 -12881770.54747                  21444068.9834
        50.2504         37.7504
  20500493.8854  -11995086.16449  -9305179.54748                  20500492.7034
        50.7504         42.0004
  20407580.2524  -17968981.85549 -13944632.39848                  20407575.7104
        51.5004         41.2504
  24242159.4034   -2455272.28949  -1908094.98047                  24242159.4644
        43.5004         25.7504
  24395271.0764  -11180508.96549  -8703573.72347                  24395271.3144
        45.0004         26.0004
  22250582.7594  -22776888.99649 -17691014.75047                  22250581.6094
        47.5004         31.5004
 04  9 30 17 42 15.0000000  0  8G 1G27G16G20G23G25G 4G13
  21975913.1554   -8397895.04749  -6518709.19947                  21975912.7564
        49.5004         35.0004
  23905178.8264   -8669140.07849  -6743931.82446                  23905178.2254
        37.5004         20.0004
  21435603.6274  -16648639.82849 -12916443.75047                  21435601.4724
        49.5004         38.0004
  20495221.3644  -12022793.94949  -9326770.04348                  20495219.8824
        51.2504         41.5004
  20395832.8444  -18030715.46949 -13992736.51248                  20395828.2184
        50.5004         41.5004
  24240440.9914   -2464299.81649  -1915129.46946                  24240441.6334
        42.0004         25.0004
  24385556.7224  -11231558.80949  -8743352.84447                  24385557.2944
        44.5004         26.0004
  22234459.2604  -22861618.33249 -17757037.60547                  22234458.2974
        47.7504         32.5004
 04  9 30 17 42 30.0000000  0  8G 1G27G16G20G23G25G 4G13
  21970841.7624   -8424546.29349  -6539476.43047                  21970841.1154
        48.5004         34.2504
  23888535.2084   -8756604.52349  -6812085.93446                  23888534.7804
        38.2504         22.5004
  21427163.0534  -16692994.05949 -12951005.48447                  21427161.4244
        50.5004         37.7504
  20489973.3504  -12050372.34849  -9348259.70348                  20489971.7294
        51.0004         41.7504
  20384095.8064  -18092392.87149 -14040796.82848                  20384091.6794
        51.0004         41.2504
  24238721.4144   -2473337.28949  -1922171.66846                  24238721.9734
        41.0004         25.0004
  24375865.0044  -11282489.12949  -8783038.81646                  24375865.3204
        44.5004         25.5004
  22218339.4394  -22946330.85549 -17823047.34847                  22218338.3834
        48.2504         33.0004
 04  9 30 17 42 45.0000000  0  8G 1G27G16G20G23G25G 4G13
  21965778.3094   -8451154.64149  -6560210.21547                  21965778.0164
        44.2504         35.0004
  23871898.7784   -8844028.12549  -6880208.19946                  23871898.6934
        39.7504         22.2504
  21418750.0194  -16737204.87949 -12985455.46547                  21418748.1974
        49.7504         37.0004
  20484750.0414  -12077821.15649  -9369648.39548                  20484748.0514
        48.0004         41.7504
  20372369.6784  -18154013.66049 -14088813.03148                  20372365.8094
        51.0004         41.2504
  24237000.3404   -2482384.39549  -1929221.43446                  24236999.5074
        43.7504         23.0004
  24366196.4354  -11333299.37549  -8822631.26246                  24366196.7114
        44.5004         25.5004
  22202222.1424  -23031026.25849 -17889043.75447                  22202220.8734
        47.7504         32.5004
 04  9 30 17 43  0.0000000  0  8G 1G27G16G20G23G25G 4G13
  21960723.1304   -8477720.48449  -6580910.88347                  21960722.7064
        43.2504         34.5004
  23855270.5104   -8931411.38349  -6948299.07446                  23855269.8084
        39.7504         22.2504
  21410363.9554  -16781272.93049 -13019794.20347                  21410361.9444
        50.0004         37.0004
  20479551.0304  -12105140.98049  -9390936.57448                  20479549.2614
        46.2504         41.7504
  20360654.7264  -18215578.18049 -14136785.37948                  20360650.7184
        51.0004         41.5004
  24235276.2074   -2491441.66849  -1936279.05146                  24235275.4644
        42.7504         22.5004
  24356549.5894  -11383990.46149  -8862130.82446                  24356550.7154
        45.2504         25.2504
  22186108.4644  -23115704.84049 -17955027.04747                  22186107.0434
        48.5004         32.0004
 04  9 30 17 43 15.0000000  0  8G 1G27G16G20G23G25G 4G13
  21955675.9304   -8504243.46549  -6601578.16447                  21955675.6734
        43.0004         34.2504
  23838649.7764   -9018753.89549  -7016358.15246                  23838649.2584
        40.5004         24.0004
  21402005.2774  -16825197.84049 -13054021.40647                  21402003.7754
        50.0004         38.0004
  20474376.9734  -12132331.77049  -9412124.21948                  20474374.9504
        46.0004         40.7504
  20348950.1144  -18277085.94149 -14184713.50048                  20348945.9574
        50.7504         41.2504
  24233550.6364   -2500508.90249  -1943344.45346                  24233550.3094
        42.0004         24.7504
  24346926.9704  -11434561.83249  -8901537.10246                  24346926.4974
        45.0004         25.0004
  22169997.8954  -23200366.04749 -18020996.80947                  22169996.3944
        47.7504         32.0004
 04  9 30 17 43 30.0000000  0  8G 1G27G16G20G23G25G 4G13
  22250429.9344   -8530721.50049  -6622210.41047                  22250429.4914
        43.0004         35.0004
  24121830.1594   -9106049.58649  -7084380.76246                  24121830.0634
        41.2504         25.2504
  21693467.1124  -16868976.42649 -13088134.59447                  21693465.5404
        49.7504         37.5004
  20769020.2844  -12159391.45349  -9433209.69948                  20769018.0584
        46.0004         41.0004
  20637049.3604  -18338532.42649 -14232593.88348                  20637045.6194
        51.0004         41.2504
  24531616.3884   -2509585.24249  -1950416.96146                  24531615.7274
        43.0004         24.5004
  24637119.0774  -11485009.98449  -8940847.35246                  24637118.8874
        45.5004         25.2504
  22453684.2334  -23285004.02049 -18086948.47747                  22453682.9214
        47.7504         32.0004
 04  9 30 17 43 45.0000000  0  8G 1G27G16G20G23G25G 4G13
  22245399.2984   -8557158.32449  -6642810.55147                  22245398.8464
        45.2504         35.2504
  24105224.4004   -9193310.30049  -7152376.09046                  24105224.8714
        39.5004         25.5004
  21685162.8364  -16912614.96949 -13122138.64547                  21685161.0224
        49.0004         37.7504
  20763895.1184  -12186324.20749  -9454196.26648                  20763893.0484
        48.2504         41.2504
  20625366.4364  -18399925.99649 -14280433.02748                  20625362.3994
        51.5004         41.2504
  24529886.9604   -2518672.44949  -1957497.96546                  24529887.1894
        41.7504         24.2504
  24627540.9494  -11535342.25449  -8980067.31246                  24627541.6654
        44.5004         24.5004
  22437580.3864  -23369630.27349 -18152890.98847                  22437579.1234
        47.5004         32.5004
 04  9 30 17 44  0.0000000  0  8G 1G27G16G20G23G25G 4G13
  22240376.5144   -8583552.61349  -6663377.54747                  22240375.7774
        48.0004         33.7504
  24088627.6324   -9280530.58249  -7220339.95747                  24088627.4494
        41.0004         27.2504
  21676885.7384  -16956111.05549 -13156031.70347                  21676884.0334
        50.0004         37.5004
  20758794.4004  -12213128.69149  -9475082.89148                  20758792.5154
        49.7504         41.0004
  20613694.8734  -18461262.97749 -14328228.08248                  20613689.9754
        51.0004         41.0004
  24528155.8334   -2527770.57849  -1964587.43747                  24528156.1694
        41.5004         26.5004
  24617985.6844  -11585555.51649  -9019194.55546                  24617986.2664
        44.2504         25.0004
  22421479.9884  -23454239.43749 -18218820.19947                  22421478.3884
        47.7504         33.0004
 04  9 30 17 44 15.0000000  0  8G 1G27G16G20G23G25G 4G13
  22235361.9624   -8609904.48449  -6683911.48447                  22235361.7154
        48.7504         34.2504
  24072037.5674   -9367710.69549  -7288272.49247                  24072037.7004
        40.5004         26.2504
  21668636.2084  -16999464.84849 -13189813.89147                  21668634.1634
        50.2504         37.2504
  20753718.2204  -12239805.21949  -9495869.80148                  20753716.1774
        51.0004         41.0004
  20602033.4384  -18522543.23049 -14375978.93048                  20602028.9404
        51.2504         41.2504
  24526422.2694   -2536879.82449  -1971685.60547                  24526422.7084
        42.0004         26.2504
  24608453.2004  -11635650.29749  -9058229.46147                  24608453.6024
        44.5004         25.7504
  22405382.3544  -23538831.65249 -18284736.19947                  22405381.1864
        46.7504         32.7504
 04  9 30 17 44 30.0000000  0  8G 1G27G16G20G23G25G 4G13
  22230355.7074   -8636213.14149  -6704411.74247                  22230355.0564
        48.7504         34.5004
  24055456.3464   -9454849.70749  -7356173.00447                  24055456.4704
        42.0004         28.5004
  21660413.3784  -17042675.69549 -13223484.66847                  21660411.6164
        50.5004         37.7504
  20748666.1894  -12266353.10949  -9516556.47348                  20748664.1284
        50.7504         41.2504
  20590383.1304  -18583765.95349 -14423684.94148                  20590379.1194
        51.0004         41.2504
  24524686.9564   -2545999.48049  -1978791.88746                  24524687.3484
        40.7504         25.0004
  24598943.4394  -11685625.67249  -9097171.35246                  24598943.8934
        44.7504         24.7504
  22389288.4244  -23623405.97349 -18350638.24247                  22389287.2304
        47.5004         32.0004
 04  9 30 17 44 45.0000000  0  8G 1G27G16G20G23G25G 4G13
  22225357.1034   -8662477.61349  -6724877.58247                  22225356.9064
        48.5004         34.0004
  24038882.1024   -9541946.78149  -7424040.82047                  24038882.4414
        40.2504         28.5004
  21652218.0714  -17085742.79349 -13257043.44147                  21652216.0784
        49.7504         37.5004
  20743638.8824  -12292771.72749  -9537142.42248                  20743637.2224
        51.0004         41.2504
  20578744.0154  -18644930.20749 -14471345.39848                  20578739.7994
        51.5004         41.5004
  24522948.6774   -2555128.76649  -1985905.67246                  24522950.2404
        40.5004         25.2504
  24589456.0524  -11735481.07849  -9136019.72347                  24589457.1804
        45.5004         25.7504
  22373197.7414  -23707961.39549 -18416525.57847                  22373196.9034
        47.7504         32.5004
 04  9 30 17 45  0.0000000  0  8G 1G27G16G20G23G25G 4G13
  22220367.9004   -8688699.12149  -6745309.94547                  22220367.7054
        51.0004         34.5004
  24022315.5414   -9629003.13749  -7491876.93047                  24022315.4254
        42.0004         26.7504
  21644049.4674  -17128667.39549 -13290491.18447                  21644047.6014
        51.0004         37.2504
  20738635.6394  -12319062.53149  -9557628.77048                  20738634.1584
        50.2504         41.0004
  20567115.5854  -18706037.06249 -14518961.13348                  20567111.3634
        50.2504         41.2504
  24521211.0644   -2564268.95749  -1993027.98446                  24521210.7644
        41.2504         24.2504
  24579991.2404  -11785217.84449  -9174775.65647                  24579992.0464
        45.2504         26.7504
  22357111.1534  -23792499.15249 -18482399.14147                  22357110.1704
        47.7504         33.5004
 04  9 30 17 45 15.0000000  0  8G 1G27G16G20G23G25G 4G13
  22215385.6924   -8714878.16449  -6765709.22347                  22215385.5114
        49.2504         34.7504
  24005756.7744   -9716019.29749  -7559681.72747                  24005757.4264
        40.5004         27.5004
  21635908.1494  -17171449.99649 -13323828.27047                  21635906.5034
        50.0004         37.7504
  20733657.1464  -12345226.23449  -9578016.08648                  20733655.1544
        50.7504         41.2504
  20555498.3484  -18767086.94549 -14566532.46148                  20555494.1164
        51.0004         42.0004
  24519468.6144   -2573420.86749  -2000159.35946                  24519468.8464
        41.7504         25.5004
  24570549.8804  -11834836.61349  -9213439.63347                  24570550.3404
        44.5004         26.7504
  22341027.3864  -23877019.59049 -18548259.21147                  22341026.0764
        48.2504         33.0004
 04  9 30 17 45 30.0000000  0  8G 1G27G16G20G23G25G 4G13
  22210412.7824   -8741013.64149  -6786074.55147                  22210411.9734
        49.2504         34.7504
  23989205.9244   -9802994.24649  -7627454.37147                  23989206.1464
        41.0004         28.0004
  21627794.2374  -17214089.79349 -13357054.09047                  21627792.1334
        50.2504         37.7504
  20728702.7624  -12371261.84849  -9598303.59448                  20728701.0044
        50.7504         41.2504
  20543891.8534  -18828078.77749 -14614058.55948                  20543887.3904
        51.0004         41.0004
  24517725.6774   -2582583.49649  -2007299.12146                  24517725.4084
        42.5004         25.2504
  24561130.0674  -11884336.39849  -9252010.91447                  24561130.6654
        45.0004         26.2504
  22324947.0554  -23961521.64549 -18614104.95747                  22324946.0174
        47.7504         33.2504
 04  9 30 17 45 45.0000000  0  8G 1G27G16G20G23G25G 4G13
  22205447.1154   -8767106.19149  -6806406.41847                  22205447.2974
        49.0004         34.5004
  23972662.6714   -9889928.49249  -7695195.34047                  23972663.2744
        40.7504         28.5004
  21619707.4524  -17256587.47749 -13390169.16047                  21619705.4604
        50.5004         37.5004
  20723772.2854  -12397170.18749  -9618491.91848                  20723770.7814
        50.5004         40.7504
  20532296.3104  -18889013.02049 -14661539.78148                  20532292.2234
        51.2504         41.5004
  24515979.8584   -2591757.59449  -2014447.78547                  24515979.0974
        42.7504         25.7504
  24551732.9484  -11933717.94949  -9290490.07046                  24551733.4094
        44.7504         24.7504
  22308870.4704  -24046005.82449 -18679936.75847                  22308868.7864
        47.2504         32.5004
 04  9 30 17 46  0.0000000  0  8G 1G27G16G20G23G25G 4G13
  22200489.8584   -8793155.42649  -6826704.54747                  22200489.9174
        48.2504         34.0004
  23956127.8764   -9976821.69949  -7762904.27747                  23956128.4274
        40.2504         27.0004
  21611647.2894  -17298942.77349 -13423173.28547                  21611644.9954
        49.2504         38.2504
  20718866.3824  -12422951.10949  -9638580.96548                  20718864.8564
        50.5004         41.0004
  20520712.0974  -18949889.17649 -14708975.75048                  20520707.8454
        51.0004         41.2504
  24514232.6814   -2600942.89549  -2021605.19146                  24514231.5804
        42.7504         25.0004
  24542358.6854  -11982981.13349  -9328876.98847                  24542358.5004
        45.2504         25.7504
  22292797.0744  -24130471.79349 -18745754.39547                  22292795.3284
        46.5004         33.0004
 04  9 30 17 46 15.0000000  0  8G 1G27G16G20G23G25G 4G13
  22195541.4544   -8819161.82049  -6846969.28547                  22195541.4104
        47.5004         34.0004
  23939599.6794  -10063674.43049  -7830581.73846                  23939599.6224
        40.7504         24.7504
  21603614.4634  -17341156.26249 -13456066.91447                  21603612.2444
        49.5004         37.2504
  20713984.6484  -12448605.34849  -9658571.28948                  20713982.8414
        50.0004         41.0004
  20509139.0504  -19010707.66449 -14756366.77348                  20509134.6124
        51.0004         41.7504
  24512481.6564   -2610140.11749  -2028771.87546                  24512481.4974
        40.2504         23.0004
  24533006.4064  -12032126.55949  -9367172.14846                  24533007.2604
        45.0004         25.0004
  22276727.0704  -24214919.93049 -18811558.11747                  22276725.2204
        47.2504         33.2504
 04  9 30 17 46 30.0000000  0  8G 1G27G16G20G23G25G 4G13
  22190600.5494   -8845124.69949  -6867200.10947                  22190600.2974
        44.0004         33.5004
  23923080.8854  -10150486.10549  -7898227.19147                  23923080.6154
        40.5004         26.5004
  21595608.5324  -17383227.50449 -13488849.69147                  21595606.6354
        48.2504         37.0004
  20709127.0384  -12474132.44549  -9678462.54748                  20709125.4364
        48.2504         40.5004
  20497576.5954  -19071467.74649 -14803712.30148                  20497572.2494
        51.0004         41.7504
  24510728.7424   -2619348.64549  -2035947.41446                  24510729.4704
        40.5004         23.0004
  24523676.7014  -12081153.66849  -9405375.12947                  24523676.7334
        44.7504         27.0004
  22260660.7344  -24299349.38349 -18877347.30147                  22260658.6654
        47.5004         33.0004
 04  9 30 17 46 45.0000000  0  8G 1G27G16G20G23G25G 4G13
  22185668.5674   -8871044.35949  -6887397.28947                  22185668.5274
        42.5004         34.0004
  23906567.6774  -10237256.96949  -7965840.77746                  23906568.1474
        38.5004         24.5004
  21587629.7094  -17425156.89549 -13521521.94147                  21587627.9454
        49.5004         37.0004
  20704293.6324  -12499532.90249  -9698255.12548                  20704291.6444
        46.0004         40.5004
  20486025.2874  -19132169.81249 -14851012.60548                  20486021.0934
        51.2504         41.2504
  24508973.9304   -2628569.14849  -2043132.31246                  24508975.3474
        40.0004         22.5004
  24514369.6344  -12130063.09449  -9443486.39146                  24514370.3894
        44.7504         25.2504
  22244597.9854  -24383760.64549 -18943122.30947                  22244596.0524
        47.2504         32.7504
 04  9 30 17 47  0.0000000  0  8G 1G27G16G20G23G25G 4G13
  22180744.3284   -8896921.26249  -6907561.10547                  22180743.7164
        43.0004         33.7504
  23890063.8414  -10323987.51649  -8033423.07846                  23890062.9074
        38.7504         22.5004
  21579677.5944  -17466945.03549 -13554084.12947                  21579675.7504
        50.0004         37.7504
  20699483.8874  -12524807.34849  -9717949.50048                  20699482.0214
        46.2504         40.7504
  20474485.0484  -19192813.93449 -14898267.76248                  20474481.0724
        51.2504         41.5004
  24507217.1024   -2637802.15249  -2050326.91446                  24507218.6284
        38.0004         23.0004
  24505084.7764  -12178855.27749  -9481506.29346                  24505085.1104
        44.5004         24.2504
  22228537.8374  -24468153.85949 -19008883.24647                  22228536.4854
        46.5004         32.2504
 04  9 30 17 47 15.0000000  0  8G 1G27G16G20G23G25G 4G13
  22175828.2154   -8922754.42649  -6927690.86347                  22175827.8624
        42.5004         34.0004
  23873566.6054  -10410676.74649  -8100973.00446                  23873567.5664
        38.5004         22.2504
  21571752.6674  -17508590.98849 -13586535.52347                  21571750.7174
        48.5004         37.5004
  20694698.6094  -12549954.95349  -9737545.04748                  20694696.8774
        46.2504         41.2504
  20462956.2594  -19253399.22749 -14945477.08248                  20462951.9484
        51.2504         41.5004
  24505458.6124   -2647046.78149  -2057530.60546                  24505459.4064
        40.0004         21.7504
  24495822.9584  -12227529.40649  -9519434.21947                  24495823.3524
        44.2504         26.0004
  22212482.1684  -24552528.21949 -19074629.50047                  22212479.9694
        45.5004         32.0004
 04  9 30 17 47 30.0000000  0  8G 1G27G16G20G23G25G 4G13
  22170920.8974   -8948543.52349  -6947786.28547                  22170920.6514
        43.5004         34.0004
  23857080.0464  -10497324.37549  -8168490.71146                  23857077.7634
        39.5004         22.2504
  21563854.7634  -17550094.57849 -13618875.98047                  21563852.7094
        49.0004         37.0004
  20689937.3844  -12574975.70749  -9757041.75848                  20689935.9144
        48.5004         41.2504
  20451438.4214  -19313925.33649 -14992640.28548                  20451433.9494
        51.2504         41.0004
  24503696.9714   -2656303.02349  -2064743.28146                  24503698.2314
        39.2504         22.0004
  24486582.6614  -12276085.25449  -9557269.96947                  24486582.9674
        44.0004         25.7504
  22196429.7484  -24636883.28549 -19140360.70347                  22196428.4224
        44.7504         32.0004
 04  9 30 17 47 45.0000000  0  8G 1G27G16G20G23G25G 4G13
  22166021.3694   -8974290.28949  -6967848.71947                  22166021.5624
        43.5004         33.7504
  23840597.3584  -10583932.18749  -8235977.21946                  23840598.7674
        38.0004         23.0004
  21555983.3134  -17591457.71549 -13651106.99647                  21555981.0814
        47.0004         37.5004
  20685199.8294  -12599871.50049  -9776441.08648                  20685198.0834
        50.0004         41.2504
  20439931.6834  -19374393.82449 -15039758.58248                  20439927.3954
        51.5004         41.0004
  24501933.5784   -2665572.46149  -2071966.28146                  24501933.7404
        40.0004         22.5004
  24477364.9974  -12324525.00849  -9595015.23046                  24477365.3574
        44.0004         24.0004
  22180381.0324  -24721220.57449 -19206078.06647                  22180378.9124
        46.7504         31.7504
 04  9 30 17 48  0.0000000  0  8G 1G27G16G20G23G25G 4G13
  22161130.0344   -8999993.79749  -6987877.46147                  22161130.6564
        45.2504         33.0004
  23824125.2764  -10670499.21949  -8303432.05147                  23824125.8824
        41.0004         26.2504
  21548139.0514  -17632679.60249 -13683227.94147                  21548137.0264
        47.5004         37.0004
  20680486.1894  -12624641.73449  -9795742.57448                  20680484.4014
        50.0004         41.0004
  20428436.0114  -19434803.82849 -15086831.30948                  20428431.7924
        50.7504         41.5004
  24500166.5074   -2674854.67249  -2079199.19546                  24500167.1664
        39.2504         22.0004
  24468169.8834  -12372847.72749  -9632669.32046                  24468169.9974
        44.5004         24.7504
  22164335.6734  -24805539.24649 -19271780.93047                  22164333.2804
        46.0004         31.5004
 04  9 30 17 48 15.0000000  0  8G 1G27G16G20G23G25G 4G13
  22156247.6484   -9025653.03149  -7007871.68047                  22156247.6494
        47.0004         34.0004
  23807659.3564  -10757024.71549  -8370854.52046                  23807658.4384
        40.5004         22.5004
  21540321.9464  -17673759.32049 -13715238.11347                  21540319.9094
        48.5004         37.2504
  20675796.7814  -12649285.47349  -9814945.50048                  20675794.7444
        50.0004         40.7504
  20416951.6764  -19495154.16449 -15133857.54748                  20416947.8054
        51.0004         41.2504
  24498398.7714   -2684148.53149  -2086441.23446                  24498398.8584
        38.7504         21.7504
  24458996.5194  -12421052.48849  -9670231.47346                  24458997.0784
        43.5004         25.2504
  22148294.5984  -24889838.40649 -19337468.57047                  22148292.4994
        46.2504         32.0004
 04  9 30 17 48 30.0000000  0  8G 1G27G16G20G23G25G 4G13
  22151373.1544   -9051267.00449  -7027830.64147                  22151373.5844
        47.5004         33.5004
  23791203.5414  -10843507.27049  -8438243.51247                  23791203.8844
        42.0004         27.5004
  21532532.0444  -17714695.98449 -13747136.81247                  21532530.0754
        49.0004         37.5004
  20671130.9814  -12673801.93749  -9834049.25048                  20671129.3814
        50.2504         41.0004
  20405479.2434  -19555443.66049 -15180836.37548                  20405474.5044
        51.5004         41.2504
  24496626.9814   -2693453.14549  -2093691.59446                  24496627.9494
        38.5004         19.5004
  24449845.5664  -12469138.49249  -9707701.10947                  24449846.3504
        43.5004         25.7504
  22132256.6874  -24974116.53149 -19403139.83247                  22132255.1034
        48.0004         33.2504
 04  9 30 17 48 45.0000000  0  8G 1G27G16G20G23G25G 4G13
  22146507.2204   -9076837.64149  -7047755.83647                  22146507.5184
        47.2504         34.2504
  23774752.7394  -10929949.14549  -8505600.79746                  23774752.6084
        39.7504         23.0004
  21524768.8554  -17755491.69149 -13778925.67647                  21524766.7774
        50.0004         38.0004
  20666489.6894  -12698193.31249  -9853055.53148                  20666487.8954
        50.7504         40.5004
  20394017.5334  -19615674.23049 -15227769.28548                  20394013.1064
        51.7504         41.5004
  24494854.1654   -2702770.70349  -2100952.09846                  24494855.1684
        38.0004         19.5004
  24440717.5024  -12517107.85549  -9745079.83646                  24440717.9414
        43.7504         25.2504
  22116222.9974  -25058375.76649 -19468796.37147                  22116220.9004
        47.7504         33.2504
 04  9 30 17 49  0.0000000  0  8G 1G27G16G20G23G25G 4G13
  22141649.5424   -9102365.47349  -7067647.68047                  22141649.6134
        47.0004         34.2504
  23758311.8744  -11016350.60549  -8572926.61347                  23758312.1054
        41.7504         28.2504
  21517032.2844  -17796147.02749 -13810605.15247                  21517030.2884
        49.2504         37.0004
  20661872.1214  -12722460.36349  -9871964.92648                  20661870.2454
        50.5004         41.0004
  20382567.1904  -19675846.31249 -15274656.62148                  20382562.8844
        51.5004         41.7504
  24493079.5594   -2712101.65249  -2108223.03146                  24493079.5794
        37.2504         20.0004
  24431611.3414  -12564961.25849  -9782368.20746                  24431611.9704
        43.7504         24.7504
  22100192.1404  -25142616.40249 -19534438.42247                  22100190.3104
        47.2504         32.5004
 04  9 30 17 49 15.0000000  0  8G 1G27G16G20G23G25G 4G13
  22136800.4004   -9127849.17249  -7087505.13747                  22136800.4304
        46.5004         33.5004
  23741877.4564  -11102710.71549  -8640220.17647                  23741878.2634
        40.2504         26.0004
  21509322.9854  -17836660.84449 -13842174.35547                  21509320.9324
        49.7504         37.2504
  20657277.7634  -12746602.00449  -9890776.60548                  20657276.2214
        50.0004         40.7504
  20371128.3154  -19735958.55149 -15321497.32848                  20371123.7414
        51.5004         41.2504
  24491301.8524   -2721445.18749  -2115503.77046                  24491301.2184
        40.5004         22.5004
  24422527.5264  -12612697.63749  -9819565.39146                  24422528.1164
        44.7504         24.7504
  22084165.2554  -25226837.35949 -19600065.12147                  22084163.8794
        46.0004         32.2504
 04  9 30 17 49 30.0000000  0  8G 1G27G16G20G23G25G 4G13
  22131959.0094   -9153289.97749  -7107329.16047                  22131958.9554
        48.0004         33.7504
  23725451.4414  -11189030.55949  -8707482.37147                  23725451.9834
        41.0004         27.5004
  21501639.8404  -17877034.52749 -13873634.37547                  21501638.1364
        48.7504         37.5004
  20652707.3094  -12770619.64149  -9909491.66048                  20652705.9234
        50.2504         41.0004
  20359700.1144  -19796012.04749 -15368292.26248                  20359696.0964
        51.7504         41.7504
  24489521.5114   -2730802.58249  -2122795.27046                  24489520.8084
        41.5004         23.5004
  24413465.7874  -12660318.18049  -9856672.33246                  24413466.3774
        44.0004         24.5004
  22068142.2194  -25311039.68049 -19665677.31647                  22068140.7114
        47.0004         32.7504
 04  9 30 17 49 45.0000000  0  8G 1G27G16G20G23G25G 4G13
  22127126.0764   -9178686.92649  -7127118.99647                  22127126.0834
        47.0004         33.5004
  23709032.9054  -11275309.15249  -8774712.43047                  23709033.7514
        41.5004         26.7504
  21493984.3654  -17917267.14149 -13904984.46547                  21493982.2664
        48.5004         37.5004
  20648160.7104  -12794512.49249  -9928109.48448                  20648159.4664
        50.0004         41.2504
  20348283.8084  -19856005.81249 -15415040.64848                  20348279.5584
        51.0004         41.0004
  24487738.5784   -2740173.01249  -2130096.93046                  24487738.3564
        41.7504         25.5004
  24404425.9774  -12707822.35249  -9893688.59446                  24404426.2274
        43.5004         22.5004
  22052122.8444  -25395222.25049 -19731274.10947                  22052121.0964
        45.7504         33.0004
 04  9 30 17 50  0.0000000  0  8G 1G27G16G20G23G25G 4G13
  22122301.4664   -9204040.24249  -7146874.85547                  22122301.4104
        46.2504         33.5004
  23692622.7444  -11361546.85249  -8841910.58247                  23692624.1524
        42.7504         29.5004
  21486354.4914  -17957359.14149 -13936224.98847                  21486352.7314
        47.7504         37.7504
  20643637.9164  -12818280.97749  -9946630.38748                  20643636.2714
        50.0004         41.2504
  20336878.7514  -19915939.96949 -15461742.59448                  20336874.5664
        51.5004         41.2504
  24485952.8004   -2749556.87149  -2137409.05946                  24485953.0884
        41.2504         25.2504
  24395408.3204  -12755210.39149  -9930614.35246                  24395408.5884
        44.5004         23.5004
  22036107.2514  -25479385.15249 -19796855.57447                  22036105.4764
        46.2504         32.7504
 04  9 30 17 50 15.0000000  0  8G 1G27G16G20G23G25G 4G13
  22117485.0894   -9229349.78549  -7166596.59847                  22117486.1254
        45.5004         33.5004
  23676219.8014  -11447743.38749  -8909076.73447                  23676220.2634
        41.5004         26.5004
  21478752.2714  -17997310.53149 -13967355.93747                  21478750.0434
        47.5004         37.5004
  20639138.3924  -12841925.23049  -9965054.50448                  20639137.4434
        49.5004         41.2504
  20325484.9864  -19975814.28549 -15508397.90248                  20325480.7494
        51.0004         41.2504
  24484164.5984   -2758954.00449  -2144731.54746                  24484164.9674
        40.5004         22.5004
  24386412.5074  -12802482.33649  -9967449.66446                  24386413.5764
        44.2504         24.5004
  22020095.1504  -25563528.36749 -19862421.70747                  22020093.1734
        45.0004         32.5004
 04  9 30 17 50 30.0000000  0  8G 1G27G16G20G23G25G 4G13
  22112677.4374   -9254615.97749  -7186284.56647                  22112677.5264
        45.7504         33.5004
  23659825.9104  -11533899.36749  -8976211.21547                  23659826.0394
        43.5004         29.5004
  21471176.3384  -18037121.96149 -13998377.82847                  21471174.1844
        48.0004         37.0004
  20634662.4474  -12865446.05549  -9983382.42648                  20634660.8204
        49.7504         41.0004
  20314102.8024  -20035629.16449 -15555006.89848                  20314098.4114
        50.5004         41.2504
  24482373.0344   -2768364.99249  -2152064.81646                  24482373.5144
        40.0004         23.5004
  24377439.4334  -12849638.89549 -10004195.03546                  24377439.5304
        45.2504         24.5004
  22004087.2444  -25647652.28949 -19927972.80547                  22004085.1034
        46.5004         33.5004
 04  9 30 17 50 45.0000000  0  8G 1G27G16G20G23G25G 4G13
  22107877.7034   -9279838.69949  -7205938.66447                  22107878.0034
        45.2504         34.0004
  23643437.6614  -11620014.62949  -9043313.98446                  23643438.4044
        41.0004         25.5004
  21463627.2234  -18076793.45749 -14029290.68747                  21463625.0464
        46.2504         37.7504
  20630210.2964  -12888843.43049 -10001614.16448                  20630208.7444
        49.2504         41.5004
  20302731.5734  -20095384.30949 -15601569.34848                  20302727.2644
        50.7504         41.5004
  24480578.6224   -2777789.91049  -2159408.93746                  24480579.6044
        37.5004         22.0004
  24368487.4574  -12896680.11349 -10040850.56246                  24368487.9764
        45.0004         24.5004
  21988082.7154  -25731756.57449 -19993508.60947                  21988080.7814
        46.0004         34.0004
 04  9 30 17 51  0.0000000  0  8G 1G27G16G20G23G25G 4G13
  22402878.9244   -9305016.98449  -7225558.11747                  22402878.7634
        44.7504         33.5004
  23926852.5664  -11706084.08249  -9110381.08647                  23926852.0634
        43.5004         29.0004
  21755897.3864  -18116323.07049 -14060092.98447                  21755895.3344
        48.0004         37.5004
  20925574.1014  -12912116.64849 -10019749.15248                  20925572.5354
        49.2504         40.7504
  20591165.3974  -20155076.31249 -15648082.59848                  20591160.9854
        51.0004         42.5004
  24778575.2734   -2787228.89849  -2166764.07046                  24778576.3094
        36.2504         20.0004
  24659350.5494  -12943603.59049 -10077414.33246                  24659350.5614
        44.0004         25.5004
  22271875.1944  -25815836.27349 -20059025.25447                  22271873.2394
        46.7504         34.2504
 04  9 30 17 51 15.0000000  0  8G 1G27G16G20G23G25G 4G13
  22398095.5804   -9330152.68449  -7245144.39847                  22398096.6004
        46.2504         33.7504
  23910479.8954  -11792117.78949  -9177420.24647                  23910481.9114
        41.7504         27.2504
  21748401.5204  -18155714.82449 -14090787.85947                  21748399.5834
        47.5004         37.0004
  20921168.4534  -12935267.58249 -10037788.85548                  20921166.8114
        50.2504         40.5004
  20579817.1054  -20214711.57449 -15694551.63748                  20579813.0354
        51.2504         41.5004
  24776776.2984   -2796681.97349  -2174130.14546                  24776776.9644
        36.7504         20.5004
  24650442.5664  -12990414.46949 -10113890.35246                  24650443.1874
        44.7504         25.2504
  22255878.1374  -25899901.19949 -20124530.37947                  22255876.6414
        46.2504         33.5004
 04  9 30 17 51 30.0000000  0  8G 1G27G16G20G23G25G 4G13
  22393320.9604   -9355244.50449  -7264696.49247                  22393321.5414
        45.0004         33.5004
  23894117.3574  -11878110.39849  -9244427.52347                  23894115.1514
        42.0004         25.7504
  21740932.3804  -18194966.64549 -14121373.69547                  21740929.9934
        47.5004         37.0004
  20916786.3214  -12958295.35949 -10055732.59448                  20916784.7914
        51.0004         41.2504
  20568480.2164  -20274286.45749 -15740973.61748                  20568475.9284
        51.0004         41.7504
  24774976.5104   -2806149.04749  -2181507.12946                  24774975.6144
        38.7504         21.2504
  24641557.2984  -13037109.93049 -10150276.43746                  24641557.6324
        44.0004         25.5004
  22239884.6194  -25983945.71149 -20190019.59047                  22239883.2734
        46.7504         33.5004
 04  9 30 17 51 45.0000000  0  8G 1G27G16G20G23G25G 4G13
  22388554.3444   -9380293.62549  -7284215.30147                  22388554.8994
        46.0004         33.5004
  23877760.0824  -11964063.18749  -9311403.66047                  23877761.4494
        42.5004         29.0004
  21733488.7614  -18234079.78149 -14151851.46947                  21733486.9274
        48.5004         37.5004
  20912427.5974  -12981201.34849 -10073581.42648                  20912426.0484
        50.2504         41.2504
  20557154.7394  -20333802.09449 -15787349.43448                  20557150.6934
        51.2504         42.0004
  24773171.5044   -2815631.37149  -2188895.99646                  24773171.6834
        39.5004         22.5004
  24632692.7074  -13083691.48849 -10186573.79347                  24632693.3994
        44.0004         26.5004
  22223895.0204  -26067971.07849 -20255493.89147                  22223893.7934
        46.0004         33.5004
 04  9 30 17 52  0.0000000  0  8G 1G27G16G20G23G25G 4G13
  22383795.6754   -9405299.42249  -7303700.37147                  22383795.9574
        46.2504         33.5004
  23861411.0234  -12049975.48449  -9378348.30146                  23861410.8554
        42.7504         25.2504
  21726072.6264  -18273053.84849 -14182220.85547                  21726070.3334
        48.7504         37.0004
  20908091.8194  -13003985.16849 -10091335.05948                  20908090.3234
        50.7504         41.2504
  20545840.4754  -20393257.76649 -15833678.53548                  20545836.5964
        51.5004         41.7504
  24771363.8954   -2825128.36349  -2196296.27746                  24771365.3234
        39.5004         23.0004
  24623850.4324  -13130158.85549 -10222782.15647                  24623851.4404
        44.5004         27.2504
  22207909.3564  -26151976.65249 -20320952.77047                  22207908.7384
        47.5004         34.0004
 04  9 30 17 52 15.0000000  0  8G 1G27G16G20G23G25G 4G13
  22379045.6074   -9430261.49249  -7323151.34847                  22379046.0754
        47.5004         33.5004
  23845070.7234  -12135846.93749  -9445261.11347                  23845071.8234
        43.0004         28.2504
  21718682.4674  -18311888.48449 -14212481.61747                  21718680.1504
        49.0004         37.2504
  20903779.6644  -13026646.70749 -10108993.41848                  20903777.8994
        50.7504         41.0004
  20534538.3394  -20452652.95349 -15879960.49648                  20534534.2404
        51.5004         42.0004
  24769554.3244   -2834639.90249  -2203707.92646                  24769555.0044
        39.7504         23.0004
  24615029.7324  -13176511.50849 -10258901.12947                  24615030.5094
        45.0004         26.2504
  22191927.6754  -26235961.92649 -20386395.82447                  22191926.0774
        47.5004         33.5004
 04  9 30 17 52 30.0000000  0  8G 1G27G16G20G23G25G 4G13
  22374304.4124   -9455179.85549  -7342568.27747                  22374304.4564
        46.5004         34.0004
  23828737.5204  -12221677.81249  -9512142.25047                  23828737.9154
        43.0004         27.5004
  21711319.2194  -18350583.95749 -14242633.93447                  21711316.8184
        48.5004         37.0004
  20899490.3134  -13049186.16849 -10126556.63748                  20899488.9644
        50.0004         41.2504
  20523247.2614  -20511987.60249 -15926195.28948                  20523242.6964
        51.7504         41.7504
  24767741.3764   -2844166.18749  -2211131.05546                  24767742.1464
        39.0004         25.2504
  24606231.1474  -13222749.80949 -10294930.99246                  24606231.8784
        43.5004         25.5004
  22175949.8544  -26319926.94149 -20451823.10547                  22175948.1934
        47.2504         33.5004
 04  9 30 17 52 45.0000000  0  8G 1G27G16G20G23G25G 4G13
  22369570.4934   -9480055.44149  -7361951.86347                  22369570.6104
        46.7504         33.5004
  23812411.9344  -12307468.66049  -9578992.27347                  23812412.9544
        43.0004         27.5004
  21703981.8854  -18389141.35549 -14272678.66047                  21703979.6684
        47.7504         36.7504
  20895224.0634  -13071604.76249 -10144025.69148                  20895222.8204
        50.0004         41.0004
  20511967.5144  -20571262.63349 -15972383.62948                  20511963.2324
        51.0004         41.7504
  24765925.3204   -2853708.35549  -2218566.56246                  24765926.6824
        36.5004         22.5004
  24597453.8554  -13268874.98849 -10330872.69946                  24597454.6234
        43.0004         24.7504
  22159975.5084  -26403872.57849 -20517235.28147                  22159973.4214
        46.2504         33.0004
 04  9 30 17 53  0.0000000  0  8G 1G27G16G20G23G25G 4G13
  22364845.1124   -9504887.69549  -7381301.69147                  22364845.0954
        46.7504         33.2504
  23796094.2644  -12393219.37949  -9645810.94147                  23796094.8174
        43.5004         27.2504
  21696670.9024  -18427560.21549 -14302615.43047                  21696668.4964
        47.5004         37.5004
  20890981.5104  -13093902.12149 -10161400.27748                  20890979.5294
        50.2504         40.5004
  20500699.3524  -20630477.36749 -16018524.98048                  20500695.5264
        50.5004         41.5004
  24764106.4184   -2863265.85549  -2226014.03946                  24764107.5974
        37.0004         22.5004
  24588698.0084  -13314886.64849 -10366725.95746                  24588698.7694
        43.0004         23.7504
  22144004.6394  -26487798.14149 -20582631.82847                  22144002.7294
        44.2504         32.2504
 04  9 30 17 53 15.0000000  0  8G 1G27G16G20G23G25G 4G13
  22360128.0624   -9529676.22749  -7400617.43747                  22360127.9044
        47.0004         33.5004
  23779783.8944  -12478929.33649  -9712597.91447                  23779784.4434
        41.2504         26.2504
  21689386.6594  -18465840.34049 -14332444.10247                  21689384.4134
        48.0004         37.2504
  20886761.6674  -13116078.03149 -10178680.21948                  20886759.8054
        50.2504         40.7504
  20489442.4304  -20689631.27049 -16064618.93048                  20489438.8084
        51.5004         42.0004
  24762284.3164   -2872838.44548  -2233473.24646                  24762286.0574
        35.7504         21.2504
  24579964.2214  -13360784.37549 -10402490.44547                  24579965.3574
        43.0004         25.7504
  22128038.3484  -26571703.16849 -20648012.35947                  22128036.5734
        45.2504         33.0004
 04  9 30 17 53 30.0000000  0  8G 1G27G16G20G23G25G 4G13
  22355419.2554   -9554420.54749  -7419898.74647                  22355419.3064
        46.7504         33.2504
  23763482.9564  -12564598.12949  -9779352.79347                  23763481.9344
        43.7504         27.5004
  21682128.4194  -18503981.40249 -14362164.40247                  21682126.7834
        48.5004         37.0004
  20882564.8714  -13138132.32849 -10195865.39848                  20882563.0884
        50.5004         41.2504
  20478197.6644  -20748723.80149 -16110665.05948                  20478193.6054
        51.5004         42.0004
  24760460.7244   -2882425.66049  -2240943.89546                  24760461.1394
        39.7504         21.0004
  24571251.2714  -13406568.03949 -10438166.06647                  24571253.3554
        43.5004         25.7504
  22112075.6934  -26655587.06249 -20713376.42247                  22112073.8634
        46.0004         33.0004
 04  9 30 17 53 45.0000000  0  8G 1G27G16G20G23G25G 4G13
  22350718.6474   -9579120.88749  -7439145.77747                  22350718.7584
        46.0004         33.5004
  23747187.2194  -12650225.99649  -9846075.73447                  23747188.0784
        42.0004         26.5004
  21674896.9234  -18541983.77349 -14391776.63747                  21674894.9614
        48.0004         36.7504
  20878391.1164  -13160065.46149 -10212956.15648                  20878389.6414
        49.7504         41.5004
  20466964.2744  -20807755.05949 -16156663.44148                  20466960.3774
        50.5004         41.7504
  24758633.4814   -2892027.95749  -2248426.26246                  24758634.1114
        37.7504         21.0004
  24562561.0394  -13452237.98449 -10473753.03546                  24562562.5104
        44.5004         25.5004
  22096116.8824  -26739449.91449 -20778724.09847                  22096115.7444
        46.0004         33.0004
 04  9 30 17 54  0.0000000  0  8G 1G27G16G20G23G25G 4G13
  22346026.8794   -9603777.89549  -7458359.05947                  22346027.1254
        46.7504         34.0004
  23730900.7944  -12735813.55149  -9912767.35947                  23730900.2284
        43.5004         27.5004
  21667691.8144  -18579848.32849 -14421281.48847                  21667689.6834
        48.0004         37.2504
  20874240.3004  -13181878.37949 -10229953.25848                  20874238.7524
        50.0004         41.2504
  20455742.9274  -20866725.71149 -16202614.59848                  20455738.4974
        51.0004         42.2504
  24756803.5624   -2901646.10949  -2255920.97346                  24756803.8484
        38.7504         21.2504
  24553891.5624  -13497795.10549 -10509252.10947                  24553892.3494
        43.5004         26.2504
  22080162.6484  -26823292.42649 -20844055.91847                  22080160.7574
        47.0004         33.2504
 04  9 30 17 54 15.0000000  0  8G 1G27G16G20G23G25G 4G13
  22341343.4954   -9628390.80149  -7477537.97347                  22341343.3324
        46.2504         34.0004
  23714622.1344  -12821360.16449  -9979426.98447                  23714622.1624
        43.5004         27.2504
  21660512.4864  -18617574.42249 -14450678.43447                  21660510.5494
        48.0004         37.0004
  20870112.3324  -13203570.39549 -10246856.14148                  20870110.7504
        49.2504         40.7504
  20444532.5424  -20925634.80949 -16248517.79348                  20444528.3024
        51.7504         41.7504
  24754969.3374   -2911279.49649  -2263427.53146                  24754970.6614
        37.5004         21.5004
  24545244.1874  -13543238.77349 -10544662.76246                  24545244.9734
        43.5004         25.0004
  22064211.6324  -26907113.76249 -20909371.23047                  22064210.3974
        46.7504         33.5004
 04  9 30 17 54 30.0000000  0  8G 1G27G16G20G23G25G 4G13
  22336668.1524   -9652957.73049  -7496681.04747                  22336667.9774
        46.2504         33.2504
  23698350.9414  -12906863.99649 -10046053.34446                  23698349.5274
        43.2504         25.2504
  21653359.9024  -18655160.37149 -14479966.18447                  21653358.1714
        48.7504         36.5004
  20866008.2474  -13225139.91049 -10263663.57448                  20866006.5084
        50.5004         41.0004
  20433334.4234  -20984480.45749 -16294371.55548                  20433330.3094
        51.7504         41.7504
  24753133.5584   -2920926.41449  -2270944.66446                  24753135.6154
        39.0004         22.2504
  24536618.2354  -13588567.46149 -10579983.82446                  24536618.8144
        43.2504         24.7504
  22048265.6094  -26990911.87149 -20974668.44147                  22048263.7314
        48.0004         33.5004
 04  9 30 17 54 45.0000000  0  8G 1G27G16G20G23G25G 4G13
  22332002.2004   -9677479.73849  -7515789.13747                  22332002.3234
        46.7504         34.0004
  23682087.4804  -12992326.12149 -10112647.18047                  23682088.1794
        42.5004         27.7504
  21646234.1904  -18692607.34449 -14509145.64147                  21646232.0394
        48.0004         36.5004
  20861926.1644  -13246588.36749 -10280376.66848                  20861924.8684
        50.2504         41.0004
  20422148.7064  -21043263.61749 -16340176.60948                  20422144.3854
        51.0004         41.7504
  24751295.5404   -2930588.00849  -2278473.23446                  24751296.8424
        38.5004         21.0004
  24528014.3954  -13633782.17649 -10615216.10546                  24528014.7844
        42.7504         24.2504
  22032323.4284  -27074687.85549 -21039948.41047                  22032321.3334
        47.2504         34.0004
 04  9 30 17 55  0.0000000  0  8G 1G27G16G20G23G25G 4G13
  22327344.0024   -9701956.78149  -7534862.17647                  22327344.1254
        46.5004         33.7504
  23665833.2154  -13077746.44149 -10179208.46547                  23665831.4704
        43.7504         26.0004
  21639134.2904  -18729915.41849 -14538216.85947                  21639132.6784
        48.2504         37.0004
  20857868.0724  -13267915.81249 -10296995.46948                  20857866.0774
        50.2504         40.7504
  20410974.2714  -21101984.25049 -16385932.95748                  20410970.2014
        50.7504         41.7504
  24749454.6404   -2940264.25849  -2286013.24246                  24749455.9024
        39.0004         22.0004
  24519432.4684  -13678883.23849 -10650359.79746                  24519432.8054
        43.0004         23.5004
  22016385.7404  -27158441.55149 -21105211.02347                  22016384.0584
        48.0004         33.7504
 04  9 30 17 55 15.0000000  0  8G 1G27G16G20G23G25G 4G13
  22322694.7914   -9726388.81249  -7553900.15247                  22322694.5234
        45.5004         33.0004
  23649585.8094  -13163125.12549 -10245737.26647                  23649586.0874
        43.2504         26.7504
  21632061.3264  -18767084.81649 -14567180.02347                  21632059.3174
        48.0004         37.0004
  20853832.4214  -13289122.52749 -10313520.19548                  20853830.7974
        50.0004         41.0004
  20399812.3914  -21160642.05549 -16431640.33248                  20399807.8954
        51.5004         41.7504
  24747609.4894   -2949955.32049  -2293564.75046                  24747611.7524
        37.0004         22.0004
  24510871.1904  -13723870.68749 -10685414.99246                  24510872.4574
        41.7504         24.5004
  22000452.3834  -27242172.78549 -21170456.13747                  22000450.4564
        49.0004         34.2504
 04  9 30 17 55 30.0000000  0  8G 1G27G16G20G23G25G 4G13
  22318054.0594   -9750774.07849  -7572901.67247                  22318054.4494
        46.0004         32.7504
  23633346.8494  -13248460.27049 -10312232.16846                  23633345.9214
        41.0004         22.5004
  21625015.2404  -18804113.94549 -14596033.87947                  21625013.2104
        47.7504         37.5004
  20849820.1504  -13310206.97349 -10329949.64548                  20849818.1904
        48.5004         40.5004
  20388662.5574  -21219235.18749 -16477297.31648                  20388658.0114
        51.2504         41.7504
  24745763.5664   -2959659.65249  -2301126.66446                  24745765.1144
        39.0004         20.5004
  24502332.2684  -13768743.16849 -10720380.59846                  24502333.3124
        41.0004         23.0004
  21984523.5144  -27325879.90249 -21235682.46147                  21984521.3824
        49.2504         34.0004
 04  9 30 17 55 45.0000000  0  8G 1G27G16G20G23G25G 4G13
  22313422.6614   -9775113.62549  -7591867.57847                  22313422.7954
        45.5004         32.5004
  23617116.7484  -13333753.05949 -10378694.04347                  23617117.5624
        42.7504         28.0004
  21617995.3074  -18841003.92649 -14624779.32047                  21617993.1704
        48.7504         37.2504
  20845831.0634  -13331170.44949 -10346284.84848                  20845829.3084
        49.2504         40.5004
  20377524.5084  -21277764.69149 -16522904.73048                  20377520.4994
        51.2504         41.7504
  24743914.3074   -2969378.37549  -2308699.73046                  24743915.9354
        38.7504         21.0004
  24493814.6214  -13813501.74649 -10755257.43746                  24493815.9604
        41.0004         23.5004
  21968598.8844  -27409563.71149 -21300890.61347                  21968596.8604
        48.0004         33.7504
 04  9 30 17 56  0.0000000  0  8G 1G27G16G20G23G25G 4G13
  22308800.0904   -9799406.88749  -7610797.40647                  22308799.8844
        46.2504         32.5004
  23600893.8724  -13419002.88749 -10445122.39547                  23600893.6674
        41.0004         27.0004
  21611001.6754  -18877754.35949 -14653416.00847                  21611000.2344
        46.5004         37.0004
  20841864.7414  -13352012.55549 -10362525.46148                  20841863.2054
        48.5004         40.5004
  20366398.9214  -21336229.91849 -16568462.05548                  20366394.9564
        51.5004         41.7504
  24742062.5044   -2979111.03549  -2316283.71546                  24742063.3314
        37.5004         20.0004
  24485319.0684  -13858146.03549 -10790045.20746                  24485320.3674
        40.7504         22.7504
  21952678.7064  -27493223.29749 -21366079.89147                  21952676.7364
        47.7504         33.5004
 04  9 30 17 56 15.0000000  0  8G 1G27G16G20G23G25G 4G13
  22304186.2614   -9823654.49249  -7629691.67647                  22304186.2234
        46.0004         32.5004
  23584678.8614  -13504210.40249 -10511517.85247                  23584680.0744
        41.5004         27.7504
  21604034.9464  -18914366.09849 -14681944.64147                  21604032.7704
        49.5004         37.0004
  20837921.4434  -13372734.27749 -10378672.26648                  20837919.8744
        49.7504         40.5004
  20355285.5104  -21394631.34449 -16613969.66448                  20355281.8324
        51.2504         41.7504
  24740207.9584   -2988858.41449  -2323879.12146                  24740208.6374
        39.0004         21.0004
  24476845.2684  -13902676.91849 -10824744.60946                  24476845.8584
        40.2504         22.7504
  21936762.9564  -27576859.45749 -21431250.91847                  21936761.3174
        47.5004         33.2504
 04  9 30 17 56 30.0000000  0  8G 1G27G16G20G23G25G 4G13
  22299580.3854   -9847857.11349  -7648550.86747                  22299579.5214
        46.5004         33.7504
  23568473.2714  -13589376.25849 -10577880.82847                  23568471.8654
        43.0004         28.2504
  21597094.3194  -18950839.99649 -14710365.84847                  21597091.8804
        48.2504         37.2504
  20834001.1304  -13393336.36349 -10394725.85548                  20833999.3664
        50.0004         40.0004
  20344184.2694  -21452969.50449 -16659427.96148                  20344180.4444
        50.7504         41.7504
  24738349.3644   -2998621.19549  -2331486.50046                  24738351.2174
        38.5004         21.0004
  24468392.7564  -13947095.22349 -10859356.30146                  24468393.4834
        40.7504         23.0004
  21920851.8614  -27660472.83249 -21496404.18447                  21920850.7924
        47.5004         34.0004
 04  9 30 17 56 45.0000000  0  8G 1G27G16G20G23G25G 4G13
  22294983.4764   -9872014.10949  -7667374.52347                  22294983.3284
        45.7504         33.2504
  23552274.9354  -13674499.89849 -10644210.89147                  23552275.1514
        43.7504         29.2504
  21590179.7524  -18987175.60549 -14738679.30547                  21590177.5574
        47.7504         37.5004
  20830103.6574  -13413818.69549 -10410686.12948                  20830102.2874
        50.0004         40.2504
  20333095.1034  -21511243.72749 -16704836.45348                  20333090.5904
        50.7504         42.2504
  24736489.0724   -3008398.99249  -2339105.58246                  24736490.1284
        41.5004         20.0004
  24459961.6284  -13991400.55949 -10893879.96546                  24459962.8084
        40.0004         22.5004
  21904945.4414  -27744062.64149 -21561539.09047                  21904944.0384
        47.5004         35.2504
 04  9 30 17 57  0.0000000  0  8G 1G27G16G20G23G25G 4G13
  22290395.4334   -9896124.62149  -7686161.95747                  22290395.6084
        45.5004         32.7504
  23536083.5174  -13759580.60249 -10710507.51647                  23536084.3904
        41.7504         28.7504
  21583291.6614  -19023372.28149 -14766884.49647                  21583289.7494
        49.0004         37.0004
  20826228.7204  -13434180.63349 -10426552.59048                  20826227.4454
        50.0004         40.5004
  20322018.1634  -21569453.10949 -16750194.41448                  20322013.8584
        51.0004         42.0004
  24734626.3674   -3018191.16049  -2346735.91446                  24734626.3884
        41.5004         21.0004
  24451551.7094  -14035592.14849 -10928315.00046                  24451553.1594
        40.2504         24.7504
  21889043.8844  -27827627.85949 -21626654.82847                  21889042.4634
        47.5004         34.7504
 04  9 30 17 57 15.0000000  0  8G 1G27G16G20G23G25G 4G13
  22285815.7664   -9920189.13749  -7704913.54747                  22285816.0534
        45.5004         33.0004
  23519901.5484  -13844618.76649 -10776770.98447                  23519902.7674
        43.7504         29.5004
  21576430.1234  -19059430.69149 -14794981.96147                  21576428.0314
        48.5004         36.5004
  20822376.8834  -13454422.78949 -10442325.70348                  20822375.3924
        50.2504         40.2504
  20310953.4544  -21627598.04349 -16795502.15648                  20310949.3934
        51.5004         42.0004
  24732760.6244   -3027998.14149  -2354377.74246                  24732760.1624
        40.5004         21.7504
  24443164.2784  -14079670.90249 -10962662.07846                  24443165.3394
        40.5004         22.2504
  21873146.6654  -27911168.97749 -21691751.78547                  21873145.5124
        48.0004         35.2504
 04  9 30 17 57 30.0000000  0  8G 1G27G16G20G23G25G 4G13
  22281245.2204   -9944208.13349  -7723629.67247                  22281245.2334
        46.2504         32.7504
  23503727.7074  -13929614.92249 -10843001.72347                  23503728.2664
        44.7504         30.0004
  21569594.5304  -19095351.41049 -14822972.12147                  21569592.2734
        49.5004         37.0004
  20818547.2944  -13474545.92249 -10458006.07848                  20818545.9294
        50.0004         40.5004
  20299901.0944  -21685678.79749 -16840759.88348                  20299897.1744
        50.5004         41.7504
  24730890.8764   -3037820.58249  -2362031.66046                  24730891.0624
        41.2504         21.7504
  24434798.0094  -14123637.45749 -10996921.76246                  24434798.9294
        40.2504         24.0004
  21857253.4974  -27994686.49249 -21756830.36747                  21857252.2744
        48.2504         35.0004
 04  9 30 17 57 45.0000000  0  8G 1G27G16G20G23G25G 4G13
  22276684.0054   -9968180.23449  -7742309.25847                  22276683.1634
        45.2504         33.5004
  23487561.3314  -14014567.79749 -10909198.71547                  23487561.8014
        42.7504         29.0004
  21562785.5204  -19131133.22349 -14850854.04347                  21562783.4104
        48.5004         36.5004
  20814741.0484  -13494548.87549 -10473592.81648                  20814739.3014
        49.5004         40.2504
  20288861.1494  -21743694.05149 -16885966.58248                  20288857.1524
        51.5004         42.0004
  24729019.3454   -3047657.27749  -2369696.62146                  24729019.4564
        41.0004         22.2504
  24426453.1794  -14167490.58249 -11031093.05546                  24426454.2604
        41.5004         22.7504
  21841365.4084  -28078178.87149 -21821889.34847                  21841364.2254
        47.5004         34.7504
 04  9 30 17 58  0.0000000  0  8G 1G27G16G20G23G25G 4G13
  22272130.4774   -9992106.55949  -7760953.17247                  22272130.6024
        45.0004         32.5004
  23471403.0394  -14099478.40649 -10975362.82847                  23471404.3544
        42.2504         29.5004
  21556002.3394  -19166777.48849 -14878628.79347                  21556000.6324
        47.7504         36.0004
  20810957.2524  -13514432.98449 -10489086.94148                  20810955.9474
        50.0004         40.5004
  20277833.4084  -21801644.83649 -16931123.03548                  20277829.2734
        50.0004         41.7504
  24727144.7094   -3057509.39149  -2377373.67246                  24727145.2864
        41.5004         22.5004
  24418129.7224  -14211231.62549 -11065176.96946                  24418130.4184
        38.7504         23.0004
  21825481.9084  -28161647.04349 -21886929.46547                  21825480.3614
        47.7504         35.0004
 04  9 30 17 58 15.0000000  0  8G 1G27G16G20G23G25G 4G13
  22267586.3154  -10015986.29349  -7779560.76647                  22267586.5134
        45.2504         32.7504
  23455254.0944  -14184346.09849 -11041493.44147                  23455253.5454
        43.7504         28.2504
  21549246.0484  -19202283.55149 -14906295.85247                  21549243.5304
        46.2504         36.5004
  20807196.1584  -13534197.78949 -10504488.09848                  20807194.4394
        49.0004         40.5004
  20266818.4124  -21859530.21549 -16976228.52348                  20266814.1004
        50.5004         42.0004
  24725266.7754   -3067376.26649  -2385062.21146                  24725268.1614
        41.7504         22.0004
  24409826.8514  -14254859.96949 -11099173.10246                  24409828.1124
        38.5004         24.7504
  21809603.2554  -28245090.20349 -21951950.09847                  21809602.3484
        47.7504         35.0004
 04  9 30 17 58 30.0000000  0  8G 1G27G16G20G23G25G 4G13
  22263051.0784  -10039819.79749  -7798132.35947                  22263050.8084
        45.7504         32.7504
  23439111.5144  -14269171.12549 -11107590.82047                  23439112.5764
        44.0004         29.7504
  21542515.2404  -19237651.91849 -14933855.60547                  21542512.9164
        47.0004         36.5004
  20803457.6054  -13553843.80949 -10519796.70348                  20803456.3354
        49.2504         40.2504
  20255815.6854  -21917350.35549 -17021283.18048                  20255811.1394
        51.2504         42.0004
  24723385.5954   -3077258.35549  -2392762.59046                  24723387.0954
        40.5004         22.2504
  24401545.8884  -14298376.15649 -11133081.82046                  24401546.7734
        41.0004         22.5004
  21793729.1104  -28328508.52349 -22016951.36747                  21793727.8034
        48.0004         34.2504
 04  9 30 17 58 45.0000000  0  8G 1G27G16G20G23G25G 4G13
  22558317.2084  -10063605.10949  -7816666.39147                  22558317.7814
        46.0004         32.7504
  23722771.9074  -14353947.57449 -11173650.36747                  23722771.4094
        42.5004         28.0004
  21835604.1494  -19272880.06249 -14961306.10947                  21835601.8384
        46.2504         36.2504
  21099534.5724  -13573369.73449 -10535011.72748                  21099532.4004
        48.7504         40.0004
  20544618.4064  -21975101.00049 -17066283.68048                  20544613.8384
        50.7504         42.5004
  25021295.3904   -3087154.69149  -2400474.09446                  25021296.6254
        41.0004         22.2504
  24693080.2174  -14341777.13349 -11166900.78946                  24693080.6994
        40.7504         23.5004
  22077653.6244  -28411896.09449 -22081928.68747                  22077651.8184
        47.5004         34.0004
 04  9 30 17 59  0.0000000  0  8G 1G27G16G20G23G25G 4G13
  22553799.7264  -10087344.32849  -7835164.51247                  22553800.4854
        45.5004         33.0004
  23706646.9454  -14438685.78149 -11239680.09447                  23706647.7874
        44.0004         29.5004
  21828926.5084  -19307971.86349 -14988650.35947                  21828924.2624
        48.7504         36.5004
  21095841.6004  -13592777.30149 -10550134.52748                  21095839.6734
        50.7504         39.5004
  20533640.6374  -22032788.67249 -17111235.11748                  20533636.4544
        51.0004         41.7504
  25019409.9854   -3097065.66049  -2408196.99646                  25019409.7794
        42.5004         22.2504
  24684842.2544  -14385067.81249 -11200633.79746                  24684843.6924
        39.2504         23.0004
  22061789.3464  -28495262.84849 -22146889.79347                  22061787.7454
        48.5004         33.5004
 04  9 30 17 59 15.0000000  0  8G 1G27G16G20G23G25G 4G13
  22549291.5334  -10111036.24649  -7853625.76647                  22549291.4354
        46.0004         31.7504
  23690530.3374  -14523380.46549 -11305675.95347                  23690529.0384
        45.0004         27.7504
  21822274.7364  -19342925.52349 -15015886.98447                  21822272.5414
        48.0004         36.0004
  21092170.9684  -13612065.93749 -10565164.63748                  21092169.3264
        49.7504         40.0004
  20522676.0234  -22090409.76649 -17156134.67648                  20522671.9074
        51.0004         42.2504
  25017521.3244   -3106991.12549  -2415931.18746                  25017521.5124
        42.2504         21.7504
  24676625.8244  -14428245.94949 -11234279.12946                  24676626.4364
        42.2504         23.5004
  22045930.6274  -28578603.52349 -22211830.57847                  22045928.3734
        48.7504         34.5004
 04  9 30 17 59 30.0000000  0  8G 1G27G16G20G23G25G 4G13
  22544792.0764  -10134680.30549  -7872049.73847                  22544793.2224
        46.5004         32.5004
  23674421.8674  -14608031.00849 -11371637.35947                  23674421.8974
        44.0004         28.7504
  21815649.5644  -19377740.62149 -15043015.62147                  21815647.6024
        45.7504         36.5004
  21088522.8904  -13631235.24649 -10580101.77748                  21088521.3754
        48.5004         40.0004
  20511723.5154  -22147963.74249 -17200981.93048                  20511719.6684
        51.0004         42.2504
  25015629.2104   -3116930.68049  -2423676.38346                  25015630.9824
        40.7504         21.0004
  24668430.6614  -14471311.27349 -11267836.52746                  24668431.4424
        42.2504         25.0004
  22030076.2594  -28661917.27749 -22276750.38347                  22030075.0884
        49.0004         35.0004
 04  9 30 17 59 45.0000000  0  8G 1G27G16G20G23G25G 4G13
  22540301.3094  -10158278.82049  -7890438.21547                  22540301.1324
        45.7504         31.5004
  23658321.4794  -14692639.82449 -11437566.32847                  23658320.8414
        44.2504         29.5004
  21809050.8254  -19412419.69949 -15070038.28147                  21809048.5564
        49.0004         36.2504
  21084897.4524  -13650287.71949 -10594947.87948                  21084895.8084
        51.0004         40.0004
  20500784.0694  -22205452.76249 -17245778.56648                  20500779.8524
        51.5004         42.5004
  25013735.0644   -3126886.81649  -2431434.44546                  25013735.4704
        40.2504         20.0004
  24660256.2514  -14514266.04749 -11301307.79346                  24660257.8594
        42.5004         24.5004
  22014226.7984  -28745206.54749 -22341651.10247                  22014225.4384
        47.7504         34.5004
